<?xml version='1.0' encoding='UTF-8'?><gpx version="1.1" creator="JPX - https://github.com/jenetics/jpx" xmlns="http://www.topografix.com/GPX/1/1"><trk><trkseg><trkpt lat="45.76865439487075" lon="8.835268077299013"><ele>409.0</ele><time>2026-04-29T14:38:41.733Z</time></trkpt><trkpt lat="45.76839934930418" lon="8.835509476832506"><ele>408.0</ele><time>2026-04-29T14:38:44.999Z</time></trkpt><trkpt lat="45.76833406888358" lon="8.835807370501406"><ele>408.0</ele><time>2026-04-29T14:38:50.999Z</time></trkpt><trkpt lat="45.76813158516782" lon="8.835733639541274"><ele>408.0</ele><time>2026-04-29T14:39:11.999Z</time></trkpt><trkpt lat="45.76814790544399" lon="8.83564536492185"><ele>408.0</ele><time>2026-04-29T14:42:50Z</time></trkpt><trkpt lat="45.76812751364611" lon="8.835757223541124"><ele>408.0</ele><time>2026-04-29T14:44:29.999Z</time></trkpt><trkpt lat="45.768180070283556" lon="8.835663353077786"><ele>408.0</ele><time>2026-04-29T14:47:05.999Z</time></trkpt><trkpt lat="45.7682727941237" lon="8.835676906011523"><ele>408.0</ele><time>2026-04-29T14:47:08.999Z</time></trkpt><trkpt lat="45.7682886602437" lon="8.83581090352475"><ele>408.0</ele><time>2026-04-29T14:47:53.999Z</time></trkpt><trkpt lat="45.76826237120526" lon="8.835973233926442"><ele>408.0</ele><time>2026-04-29T14:47:55.999Z</time></trkpt><trkpt lat="45.76822679595045" lon="8.836116787276328"><ele>408.0</ele><time>2026-04-29T14:47:57.999Z</time></trkpt><trkpt lat="45.7681806851628" lon="8.836245068863203"><ele>408.0</ele><time>2026-04-29T14:47:59.999Z</time></trkpt><trkpt lat="45.76815470907876" lon="8.836342148415001"><ele>408.2</ele><time>2026-04-29T14:48:00.999Z</time></trkpt><trkpt lat="45.76812204944288" lon="8.836465581767872"><ele>408.4</ele><time>2026-04-29T14:48:01.999Z</time></trkpt><trkpt lat="45.76808307589328" lon="8.836598654056463"><ele>408.59999999999997</ele><time>2026-04-29T14:48:02.999Z</time></trkpt><trkpt lat="45.76803970295333" lon="8.836737609919233"><ele>408.79999999999995</ele><time>2026-04-29T14:48:03.999Z</time></trkpt><trkpt lat="45.76799808344667" lon="8.836884715451106"><ele>409.0</ele><time>2026-04-29T14:48:04.999Z</time></trkpt><trkpt lat="45.76795286335784" lon="8.837025314217842"><ele>409.4</ele><time>2026-04-29T14:48:05.999Z</time></trkpt><trkpt lat="45.76791294477959" lon="8.837159850355725"><ele>409.79999999999995</ele><time>2026-04-29T14:48:06.999Z</time></trkpt><trkpt lat="45.767875243206625" lon="8.83729830842615"><ele>410.20000000000005</ele><time>2026-04-29T14:48:07.999Z</time></trkpt><trkpt lat="45.76783671026338" lon="8.83744180924598"><ele>410.6</ele><time>2026-04-29T14:48:08.999Z</time></trkpt><trkpt lat="45.76779714680154" lon="8.837584770871294"><ele>411.0</ele><time>2026-04-29T14:48:09.999Z</time></trkpt><trkpt lat="45.76775633363211" lon="8.837719187074727"><ele>411.0</ele><time>2026-04-29T14:48:10.999Z</time></trkpt><trkpt lat="45.76771995361719" lon="8.837853865678536"><ele>411.0</ele><time>2026-04-29T14:48:11.999Z</time></trkpt><trkpt lat="45.767687035915166" lon="8.837989251561735"><ele>411.0</ele><time>2026-04-29T14:48:12.999Z</time></trkpt><trkpt lat="45.76765318911509" lon="8.838124021822978"><ele>411.0</ele><time>2026-04-29T14:48:14Z</time></trkpt><trkpt lat="45.76761842295836" lon="8.838257253676048"><ele>411.0</ele><time>2026-04-29T14:48:15Z</time></trkpt><trkpt lat="45.76758788122669" lon="8.838375543565501"><ele>411.5</ele><time>2026-04-29T14:48:16Z</time></trkpt><trkpt lat="45.76755843440719" lon="8.83848399398452"><ele>412.0</ele><time>2026-04-29T14:48:17Z</time></trkpt><trkpt lat="45.76752522867793" lon="8.838600292934132"><ele>412.5</ele><time>2026-04-29T14:48:18Z</time></trkpt><trkpt lat="45.76748000787685" lon="8.838712076542492"><ele>413.0</ele><time>2026-04-29T14:48:19Z</time></trkpt><trkpt lat="45.76744535664656" lon="8.83883599163019"><ele>413.5</ele><time>2026-04-29T14:48:20Z</time></trkpt><trkpt lat="45.767409397831116" lon="8.8389645105179"><ele>414.0</ele><time>2026-04-29T14:48:21Z</time></trkpt><trkpt lat="45.76737081835993" lon="8.839102395782046"><ele>414.0</ele><time>2026-04-29T14:48:22Z</time></trkpt><trkpt lat="45.76733278891405" lon="8.839239033530179"><ele>414.0</ele><time>2026-04-29T14:48:23Z</time></trkpt><trkpt lat="45.76730266023552" lon="8.839348871568866"><ele>414.0</ele><time>2026-04-29T14:48:24Z</time></trkpt><trkpt lat="45.76727721323289" lon="8.83944369652231"><ele>414.0</ele><time>2026-04-29T14:48:25Z</time></trkpt><trkpt lat="45.7672550030167" lon="8.839604734351072"><ele>414.0</ele><time>2026-04-29T14:48:27Z</time></trkpt><trkpt lat="45.767206113927585" lon="8.839768282825332"><ele>414.0</ele><time>2026-04-29T14:48:29Z</time></trkpt><trkpt lat="45.767188227684166" lon="8.839877083622806"><ele>414.0</ele><time>2026-04-29T14:48:30Z</time></trkpt><trkpt lat="45.76716751266399" lon="8.839991363059672"><ele>414.0</ele><time>2026-04-29T14:48:31Z</time></trkpt><trkpt lat="45.76714471999199" lon="8.840113527627011"><ele>414.0</ele><time>2026-04-29T14:48:32Z</time></trkpt><trkpt lat="45.76712093134168" lon="8.840239637971571"><ele>414.0</ele><time>2026-04-29T14:48:33Z</time></trkpt><trkpt lat="45.76709583556092" lon="8.840368853463971"><ele>414.0</ele><time>2026-04-29T14:48:34Z</time></trkpt><trkpt lat="45.76707126544158" lon="8.840494613674839"><ele>413.4</ele><time>2026-04-29T14:48:35Z</time></trkpt><trkpt lat="45.767046248768104" lon="8.840621578149214"><ele>412.79999999999995</ele><time>2026-04-29T14:48:36Z</time></trkpt><trkpt lat="45.76702119619919" lon="8.840747024385974"><ele>412.20000000000005</ele><time>2026-04-29T14:48:37Z</time></trkpt><trkpt lat="45.76699659708069" lon="8.840870200051356"><ele>411.6</ele><time>2026-04-29T14:48:38Z</time></trkpt><trkpt lat="45.7669733014867" lon="8.840998137008736"><ele>411.0</ele><time>2026-04-29T14:48:39Z</time></trkpt><trkpt lat="45.766955089710486" lon="8.841117114079942"><ele>410.8</ele><time>2026-04-29T14:48:40Z</time></trkpt><trkpt lat="45.76693561150232" lon="8.841257208252767"><ele>410.6</ele><time>2026-04-29T14:48:41Z</time></trkpt><trkpt lat="45.766915411947465" lon="8.841410315017272"><ele>410.4</ele><time>2026-04-29T14:48:42Z</time></trkpt><trkpt lat="45.76689400216304" lon="8.841572594963818"><ele>410.2</ele><time>2026-04-29T14:48:43Z</time></trkpt><trkpt lat="45.766872328509756" lon="8.841718346375695"><ele>410.0</ele><time>2026-04-29T14:48:44Z</time></trkpt><trkpt lat="45.76685274409623" lon="8.841843920711089"><ele>410.0</ele><time>2026-04-29T14:48:45Z</time></trkpt><trkpt lat="45.766827553803225" lon="8.841947399597792"><ele>410.0</ele><time>2026-04-29T14:48:46Z</time></trkpt><trkpt lat="45.76678465505317" lon="8.842048653458683"><ele>410.0</ele><time>2026-04-29T14:48:47Z</time></trkpt><trkpt lat="45.76672031442753" lon="8.842141986211798"><ele>410.0</ele><time>2026-04-29T14:48:48Z</time></trkpt><trkpt lat="45.76664023541364" lon="8.842237272292047"><ele>410.0</ele><time>2026-04-29T14:48:49Z</time></trkpt><trkpt lat="45.766547097868454" lon="8.842345665497021"><ele>410.0</ele><time>2026-04-29T14:48:50Z</time></trkpt><trkpt lat="45.76645183012897" lon="8.842451518541608"><ele>410.0</ele><time>2026-04-29T14:48:51Z</time></trkpt><trkpt lat="45.766372314876115" lon="8.842552685733224"><ele>410.0</ele><time>2026-04-29T14:48:52Z</time></trkpt><trkpt lat="45.766307490549565" lon="8.842650377463558"><ele>410.0</ele><time>2026-04-29T14:48:53Z</time></trkpt><trkpt lat="45.766241084297924" lon="8.842758505746028"><ele>410.0</ele><time>2026-04-29T14:48:54Z</time></trkpt><trkpt lat="45.76617105473711" lon="8.842880331216337"><ele>409.49999999999994</ele><time>2026-04-29T14:48:55Z</time></trkpt><trkpt lat="45.76610454665793" lon="8.842992774162513"><ele>409.0</ele><time>2026-04-29T14:48:56Z</time></trkpt><trkpt lat="45.76604569451026" lon="8.843089236274276"><ele>408.5</ele><time>2026-04-29T14:48:57Z</time></trkpt><trkpt lat="45.765991887777545" lon="8.843175832861235"><ele>408.0</ele><time>2026-04-29T14:48:58Z</time></trkpt><trkpt lat="45.765939663320395" lon="8.8432518086247"><ele>407.49999999999994</ele><time>2026-04-29T14:48:59Z</time></trkpt><trkpt lat="45.76589156399531" lon="8.843317146934595"><ele>407.0</ele><time>2026-04-29T14:49:00Z</time></trkpt><trkpt lat="45.76584499556139" lon="8.843379008907835"><ele>406.99999999999994</ele><time>2026-04-29T14:49:01Z</time></trkpt><trkpt lat="45.76580584459114" lon="8.84345409878538"><ele>407.0</ele><time>2026-04-29T14:49:02Z</time></trkpt><trkpt lat="45.76573503103365" lon="8.843523213743008"><ele>407.0</ele><time>2026-04-29T14:49:03Z</time></trkpt><trkpt lat="45.76566730051806" lon="8.84361137517698"><ele>407.0</ele><time>2026-04-29T14:49:04Z</time></trkpt><trkpt lat="45.765593733590975" lon="8.843706245697195"><ele>406.99999999999994</ele><time>2026-04-29T14:49:05Z</time></trkpt><trkpt lat="45.76551895071635" lon="8.843802478230279"><ele>407.0</ele><time>2026-04-29T14:49:06Z</time></trkpt><trkpt lat="45.76545262036556" lon="8.84388828424851"><ele>407.0</ele><time>2026-04-29T14:49:07Z</time></trkpt><trkpt lat="45.76538331371097" lon="8.84398161217197"><ele>407.0</ele><time>2026-04-29T14:49:08Z</time></trkpt><trkpt lat="45.76531080929079" lon="8.8440873725094"><ele>407.0</ele><time>2026-04-29T14:49:09Z</time></trkpt><trkpt lat="45.76525123535285" lon="8.844213011189018"><ele>407.0</ele><time>2026-04-29T14:49:10Z</time></trkpt><trkpt lat="45.765192545070434" lon="8.844307830015659"><ele>407.0</ele><time>2026-04-29T14:49:11Z</time></trkpt><trkpt lat="45.76514098608923" lon="8.844392764729774"><ele>406.99999999999994</ele><time>2026-04-29T14:49:12Z</time></trkpt><trkpt lat="45.76508150807259" lon="8.844453578045893"><ele>407.0</ele><time>2026-04-29T14:49:13Z</time></trkpt><trkpt lat="45.76503923438023" lon="8.84452217951712"><ele>407.0</ele><time>2026-04-29T14:49:14Z</time></trkpt><trkpt lat="45.764990752332004" lon="8.84460558183344"><ele>407.0</ele><time>2026-04-29T14:49:15Z</time></trkpt><trkpt lat="45.76493511394947" lon="8.844699572478492"><ele>406.99999999999994</ele><time>2026-04-29T14:49:16Z</time></trkpt><trkpt lat="45.76487393774637" lon="8.844802942992905"><ele>407.0</ele><time>2026-04-29T14:49:17Z</time></trkpt><trkpt lat="45.76480840810154" lon="8.844913671662702"><ele>407.0</ele><time>2026-04-29T14:49:18Z</time></trkpt><trkpt lat="45.76473760395933" lon="8.845033455327611"><ele>407.0</ele><time>2026-04-29T14:49:19Z</time></trkpt><trkpt lat="45.76466752910046" lon="8.845152896899178"><ele>407.0</ele><time>2026-04-29T14:49:20Z</time></trkpt><trkpt lat="45.764599189612255" lon="8.845269380561923"><ele>407.0</ele><time>2026-04-29T14:49:21Z</time></trkpt><trkpt lat="45.764531263083356" lon="8.845385160344247"><ele>407.0</ele><time>2026-04-29T14:49:22Z</time></trkpt><trkpt lat="45.76446109611758" lon="8.845499694336562"><ele>407.20000000000005</ele><time>2026-04-29T14:49:23Z</time></trkpt><trkpt lat="45.764390782139095" lon="8.845613496031442"><ele>407.4</ele><time>2026-04-29T14:49:24Z</time></trkpt><trkpt lat="45.76432337071778" lon="8.845729731771375"><ele>407.6</ele><time>2026-04-29T14:49:25Z</time></trkpt><trkpt lat="45.76427131473582" lon="8.845838734438034"><ele>407.79999999999995</ele><time>2026-04-29T14:49:26Z</time></trkpt><trkpt lat="45.7642421530968" lon="8.845963704287469"><ele>408.0</ele><time>2026-04-29T14:49:27Z</time></trkpt><trkpt lat="45.76419724638931" lon="8.846065422812462"><ele>408.59999999999997</ele><time>2026-04-29T14:49:27.999Z</time></trkpt><trkpt lat="45.76418711059816" lon="8.846199566830883"><ele>409.2</ele><time>2026-04-29T14:49:28.999Z</time></trkpt><trkpt lat="45.764180127512105" lon="8.84633922072605"><ele>409.8</ele><time>2026-04-29T14:49:29.999Z</time></trkpt><trkpt lat="45.76417047682027" lon="8.846485744337338"><ele>410.4</ele><time>2026-04-29T14:49:30.999Z</time></trkpt><trkpt lat="45.764172881191385" lon="8.846624228573328"><ele>411.0</ele><time>2026-04-29T14:49:31.999Z</time></trkpt><trkpt lat="45.76417802965428" lon="8.846760337939173"><ele>411.6</ele><time>2026-04-29T14:49:32.999Z</time></trkpt><trkpt lat="45.76418368155838" lon="8.846901569642618"><ele>412.20000000000005</ele><time>2026-04-29T14:49:33.999Z</time></trkpt><trkpt lat="45.76419280788918" lon="8.847049091195675"><ele>412.79999999999995</ele><time>2026-04-29T14:49:34.999Z</time></trkpt><trkpt lat="45.76420498376643" lon="8.84720416263787"><ele>413.4</ele><time>2026-04-29T14:49:35.999Z</time></trkpt><trkpt lat="45.76422516289646" lon="8.847349490157281"><ele>414.0</ele><time>2026-04-29T14:49:36.999Z</time></trkpt><trkpt lat="45.76424271964642" lon="8.847482017520228"><ele>414.0</ele><time>2026-04-29T14:49:37.999Z</time></trkpt><trkpt lat="45.76425450633203" lon="8.847599616404482"><ele>414.0</ele><time>2026-04-29T14:49:38.999Z</time></trkpt><trkpt lat="45.76426393411488" lon="8.847707420849854"><ele>414.0</ele><time>2026-04-29T14:49:39.999Z</time></trkpt><trkpt lat="45.764272441745604" lon="8.84781293318872"><ele>414.0</ele><time>2026-04-29T14:49:40.999Z</time></trkpt><trkpt lat="45.76428252756446" lon="8.847922994849931"><ele>414.0</ele><time>2026-04-29T14:49:41.999Z</time></trkpt><trkpt lat="45.76429336342694" lon="8.848018799247374"><ele>414.0</ele><time>2026-04-29T14:49:42.999Z</time></trkpt><trkpt lat="45.76430552976427" lon="8.848165516440536"><ele>414.0</ele><time>2026-04-29T14:49:44.999Z</time></trkpt><trkpt lat="45.76428425450942" lon="8.848278205986205"><ele>414.0</ele><time>2026-04-29T14:49:47.999Z</time></trkpt><trkpt lat="45.764312461452874" lon="8.84838099843302"><ele>414.0</ele><time>2026-04-29T14:49:51.999Z</time></trkpt><trkpt lat="45.764332608192596" lon="8.848522724282233"><ele>414.0</ele><time>2026-04-29T14:49:53.999Z</time></trkpt><trkpt lat="45.7643509285967" lon="8.848612939864855"><ele>414.0</ele><time>2026-04-29T14:49:54.999Z</time></trkpt><trkpt lat="45.7643961631778" lon="8.848775380211162"><ele>414.0</ele><time>2026-04-29T14:49:56.999Z</time></trkpt><trkpt lat="45.764440895037666" lon="8.848867194451289"><ele>413.4</ele><time>2026-04-29T14:49:57.999Z</time></trkpt><trkpt lat="45.76449243475578" lon="8.84902974068983"><ele>412.79999999999995</ele><time>2026-04-29T14:49:58.999Z</time></trkpt><trkpt lat="45.76456138652305" lon="8.849168189922866"><ele>412.20000000000005</ele><time>2026-04-29T14:49:59.999Z</time></trkpt><trkpt lat="45.76461042893082" lon="8.849257759058645"><ele>411.6</ele><time>2026-04-29T14:50:00.999Z</time></trkpt><trkpt lat="45.7646671029097" lon="8.84935873391967"><ele>411.0</ele><time>2026-04-29T14:50:01.999Z</time></trkpt><trkpt lat="45.76471872266532" lon="8.8494529811241"><ele>411.0</ele><time>2026-04-29T14:50:02.999Z</time></trkpt><trkpt lat="45.76478307019833" lon="8.849583008089988"><ele>411.0</ele><time>2026-04-29T14:50:03.999Z</time></trkpt><trkpt lat="45.764839157428696" lon="8.849686596521869"><ele>411.0</ele><time>2026-04-29T14:50:04.999Z</time></trkpt><trkpt lat="45.7648857915549" lon="8.849756902591725"><ele>411.0</ele><time>2026-04-29T14:50:06.999Z</time></trkpt><trkpt lat="45.764907838075864" lon="8.84988326060018"><ele>411.0</ele><time>2026-04-29T14:50:07.999Z</time></trkpt><trkpt lat="45.7649435233212" lon="8.85000959094522"><ele>410.8333333333333</ele><time>2026-04-29T14:50:08.999Z</time></trkpt><trkpt lat="45.7649708881867" lon="8.85013033947329"><ele>410.66666666666663</ele><time>2026-04-29T14:50:09.999Z</time></trkpt><trkpt lat="45.76499033018808" lon="8.85025590762648"><ele>410.5</ele><time>2026-04-29T14:50:10.999Z</time></trkpt><trkpt lat="45.765017874206386" lon="8.850381934918675"><ele>410.3333333333333</ele><time>2026-04-29T14:50:11.999Z</time></trkpt><trkpt lat="45.76502358117534" lon="8.85050505854489"><ele>410.16666666666663</ele><time>2026-04-29T14:50:12.999Z</time></trkpt><trkpt lat="45.765032029424496" lon="8.850618453851409"><ele>410.0</ele><time>2026-04-29T14:50:13.999Z</time></trkpt><trkpt lat="45.76504550345181" lon="8.850746305761042"><ele>410.0</ele><time>2026-04-29T14:50:14.999Z</time></trkpt><trkpt lat="45.765033228330466" lon="8.8508434639758"><ele>410.0</ele><time>2026-04-29T14:50:15.999Z</time></trkpt><trkpt lat="45.76503369474461" lon="8.850949065411939"><ele>410.0</ele><time>2026-04-29T14:50:16.999Z</time></trkpt><trkpt lat="45.76504792851668" lon="8.851049587600993"><ele>410.0</ele><time>2026-04-29T14:50:17.999Z</time></trkpt><trkpt lat="45.765084468921046" lon="8.851132991272397"><ele>410.0</ele><time>2026-04-29T14:50:19Z</time></trkpt><trkpt lat="45.765150754242406" lon="8.851202248907578"><ele>410.0</ele><time>2026-04-29T14:50:20Z</time></trkpt><trkpt lat="45.765214044291326" lon="8.851255435709465"><ele>410.0</ele><time>2026-04-29T14:50:21Z</time></trkpt><trkpt lat="45.765284704256636" lon="8.851385247757705"><ele>408.3333333333333</ele><time>2026-04-29T14:50:23Z</time></trkpt><trkpt lat="45.76527976188667" lon="8.85149314043949"><ele>406.66666666666663</ele><time>2026-04-29T14:50:24Z</time></trkpt><trkpt lat="45.76527734105248" lon="8.85162950307174"><ele>405.0</ele><time>2026-04-29T14:50:25Z</time></trkpt><trkpt lat="45.76529565951524" lon="8.85174249896196"><ele>403.33333333333337</ele><time>2026-04-29T14:50:26Z</time></trkpt><trkpt lat="45.76532225329994" lon="8.85186593785527"><ele>401.6666666666667</ele><time>2026-04-29T14:50:27Z</time></trkpt><trkpt lat="45.7653604796782" lon="8.851976167429324"><ele>400.0</ele><time>2026-04-29T14:50:28Z</time></trkpt><trkpt lat="45.76542955496483" lon="8.852107144811054"><ele>398.8</ele><time>2026-04-29T14:50:29Z</time></trkpt><trkpt lat="45.76552306370231" lon="8.852206673254516"><ele>397.6</ele><time>2026-04-29T14:50:30Z</time></trkpt><trkpt lat="45.76559733838023" lon="8.852265040644658"><ele>396.4</ele><time>2026-04-29T14:50:31Z</time></trkpt><trkpt lat="45.765653264140774" lon="8.852314889992451"><ele>395.2</ele><time>2026-04-29T14:50:32Z</time></trkpt><trkpt lat="45.76575602610443" lon="8.852452888458528"><ele>394.0</ele><time>2026-04-29T14:50:34Z</time></trkpt><trkpt lat="45.76580531107966" lon="8.852569057135847"><ele>390.79999999999995</ele><time>2026-04-29T14:50:35Z</time></trkpt><trkpt lat="45.76585803649142" lon="8.852707620411392"><ele>387.59999999999997</ele><time>2026-04-29T14:50:36Z</time></trkpt><trkpt lat="45.76589938927218" lon="8.852799066711002"><ele>384.4</ele><time>2026-04-29T14:50:37Z</time></trkpt><trkpt lat="45.765941976375764" lon="8.852885571398625"><ele>381.2</ele><time>2026-04-29T14:50:38Z</time></trkpt><trkpt lat="45.76600230377518" lon="8.85299991851191"><ele>378.0</ele><time>2026-04-29T14:50:39Z</time></trkpt><trkpt lat="45.76606507528512" lon="8.853100364229435"><ele>377.2</ele><time>2026-04-29T14:50:40Z</time></trkpt><trkpt lat="45.76613749378033" lon="8.853190369434001"><ele>376.4</ele><time>2026-04-29T14:50:41Z</time></trkpt><trkpt lat="45.76623074770775" lon="8.853258488704219"><ele>375.59999999999997</ele><time>2026-04-29T14:50:42Z</time></trkpt><trkpt lat="45.766314782571" lon="8.853356438524827"><ele>374.79999999999995</ele><time>2026-04-29T14:50:43Z</time></trkpt><trkpt lat="45.76637799391857" lon="8.853426100549045"><ele>374.0</ele><time>2026-04-29T14:50:44Z</time></trkpt><trkpt lat="45.766448988849625" lon="8.853525052368758"><ele>371.75</ele><time>2026-04-29T14:50:46Z</time></trkpt><trkpt lat="45.76648044966588" lon="8.853608419501645"><ele>369.5</ele><time>2026-04-29T14:50:48Z</time></trkpt><trkpt lat="45.76648386895242" lon="8.853806359351378"><ele>367.25</ele><time>2026-04-29T14:50:50Z</time></trkpt><trkpt lat="45.76647795031467" lon="8.853981747177714"><ele>365.0</ele><time>2026-04-29T14:50:51Z</time></trkpt><trkpt lat="45.76647195815954" lon="8.854183417955523"><ele>364.4</ele><time>2026-04-29T14:50:52Z</time></trkpt><trkpt lat="45.76646775954103" lon="8.854347365624328"><ele>363.8</ele><time>2026-04-29T14:50:53Z</time></trkpt><trkpt lat="45.76646411270064" lon="8.854459484317406"><ele>363.20000000000005</ele><time>2026-04-29T14:50:54Z</time></trkpt><trkpt lat="45.76645938655789" lon="8.854558282695923"><ele>362.6</ele><time>2026-04-29T14:50:55Z</time></trkpt><trkpt lat="45.76644771806198" lon="8.854710640811906"><ele>362.0</ele><time>2026-04-29T14:50:57Z</time></trkpt><trkpt lat="45.76643609658444" lon="8.854847027496891"><ele>362.0</ele><time>2026-04-29T14:51:00Z</time></trkpt><trkpt lat="45.766404766382536" lon="8.854948987065045"><ele>362.0</ele><time>2026-04-29T14:51:02Z</time></trkpt><trkpt lat="45.76645312905909" lon="8.855182892033083"><ele>362.0</ele><time>2026-04-29T14:51:04Z</time></trkpt><trkpt lat="45.76643637136399" lon="8.8553302253756"><ele>362.0</ele><time>2026-04-29T14:51:05Z</time></trkpt><trkpt lat="45.7664258865996" lon="8.85548008347912"><ele>362.33333333333337</ele><time>2026-04-29T14:51:06Z</time></trkpt><trkpt lat="45.766409941065774" lon="8.85561869108993"><ele>362.6666666666667</ele><time>2026-04-29T14:51:07Z</time></trkpt><trkpt lat="45.76639480974116" lon="8.855742573141127"><ele>363.0</ele><time>2026-04-29T14:51:08Z</time></trkpt><trkpt lat="45.766388842171395" lon="8.855860469513742"><ele>363.3333333333333</ele><time>2026-04-29T14:51:09Z</time></trkpt><trkpt lat="45.76638085823243" lon="8.85598329080802"><ele>363.66666666666663</ele><time>2026-04-29T14:51:10Z</time></trkpt><trkpt lat="45.76636980582967" lon="8.856113378707153"><ele>364.0</ele><time>2026-04-29T14:51:11Z</time></trkpt><trkpt lat="45.76636260538733" lon="8.856235521815949"><ele>364.3333333333333</ele><time>2026-04-29T14:51:12Z</time></trkpt><trkpt lat="45.76635549003995" lon="8.856355478499221"><ele>364.66666666666663</ele><time>2026-04-29T14:51:13Z</time></trkpt><trkpt lat="45.76634812718952" lon="8.8564632689287"><ele>365.0</ele><time>2026-04-29T14:51:14Z</time></trkpt><trkpt lat="45.76634328965733" lon="8.856553552153494"><ele>365.3333333333333</ele><time>2026-04-29T14:51:15Z</time></trkpt><trkpt lat="45.76634821399064" lon="8.85665943950319"><ele>365.6666666666667</ele><time>2026-04-29T14:51:16Z</time></trkpt><trkpt lat="45.76635165637895" lon="8.856754504230832"><ele>366.0</ele><time>2026-04-29T14:51:17Z</time></trkpt><trkpt lat="45.7664062959892" lon="8.856868115484309"><ele>366.0</ele><time>2026-04-29T14:51:19Z</time></trkpt><trkpt lat="45.766474927339445" lon="8.856914361011796"><ele>366.0</ele><time>2026-04-29T14:51:20Z</time></trkpt><trkpt lat="45.76655391831341" lon="8.856961524921962"><ele>366.0</ele><time>2026-04-29T14:51:21Z</time></trkpt><trkpt lat="45.76663268782243" lon="8.857010317176773"><ele>366.0</ele><time>2026-04-29T14:51:22Z</time></trkpt><trkpt lat="45.76673512019282" lon="8.857062193627707"><ele>366.0</ele><time>2026-04-29T14:51:23Z</time></trkpt><trkpt lat="45.76684137860661" lon="8.857098241811919"><ele>366.1666666666667</ele><time>2026-04-29T14:51:24Z</time></trkpt><trkpt lat="45.76694143735078" lon="8.85712213928604"><ele>366.3333333333333</ele><time>2026-04-29T14:51:25Z</time></trkpt><trkpt lat="45.76702396800113" lon="8.857124945658393"><ele>366.5</ele><time>2026-04-29T14:51:26Z</time></trkpt><trkpt lat="45.767107818184876" lon="8.857127992318908"><ele>366.66666666666663</ele><time>2026-04-29T14:51:27Z</time></trkpt><trkpt lat="45.7671875424803" lon="8.857133809339157"><ele>366.8333333333333</ele><time>2026-04-29T14:51:28Z</time></trkpt><trkpt lat="45.76727387736805" lon="8.85713516363968"><ele>367.0</ele><time>2026-04-29T14:51:29Z</time></trkpt><trkpt lat="45.76735733827559" lon="8.857131844778056"><ele>367.0</ele><time>2026-04-29T14:51:30Z</time></trkpt><trkpt lat="45.76743498355121" lon="8.857136711097349"><ele>367.0</ele><time>2026-04-29T14:51:31Z</time></trkpt><trkpt lat="45.76755134495585" lon="8.857186805325664"><ele>367.0</ele><time>2026-04-29T14:51:33Z</time></trkpt><trkpt lat="45.76765619967277" lon="8.857243889303456"><ele>367.0</ele><time>2026-04-29T14:51:35Z</time></trkpt><trkpt lat="45.76775984592514" lon="8.857261937382306"><ele>367.0</ele><time>2026-04-29T14:51:36.999Z</time></trkpt><trkpt lat="45.767863412046886" lon="8.857274487526935"><ele>366.3333333333333</ele><time>2026-04-29T14:51:38.999Z</time></trkpt><trkpt lat="45.767926114170244" lon="8.857288382524406"><ele>365.66666666666663</ele><time>2026-04-29T14:51:42.999Z</time></trkpt><trkpt lat="45.76799053976769" lon="8.857321724007083"><ele>365.0</ele><time>2026-04-29T14:54:52Z</time></trkpt><trkpt lat="45.76798730836384" lon="8.857440788283153"><ele>364.3333333333333</ele><time>2026-04-29T14:54:55Z</time></trkpt><trkpt lat="45.76800042662805" lon="8.857569808394631"><ele>363.6666666666667</ele><time>2026-04-29T14:54:57Z</time></trkpt><trkpt lat="45.76799242862306" lon="8.85767628779129"><ele>363.0</ele><time>2026-04-29T14:54:58Z</time></trkpt><trkpt lat="45.76798801774601" lon="8.857813088458055"><ele>362.59999999999997</ele><time>2026-04-29T14:54:59Z</time></trkpt><trkpt lat="45.76798000788823" lon="8.857924044418274"><ele>362.2</ele><time>2026-04-29T14:55:00Z</time></trkpt><trkpt lat="45.76798026271193" lon="8.858070611202166"><ele>361.8</ele><time>2026-04-29T14:55:02Z</time></trkpt><trkpt lat="45.76797549850416" lon="8.858174283884155"><ele>361.4</ele><time>2026-04-29T14:55:04Z</time></trkpt><trkpt lat="45.767983164376" lon="8.858034732707223"><ele>361.0</ele><time>2026-04-29T14:55:19Z</time></trkpt><trkpt lat="45.7679701828981" lon="8.857828111209418"><ele>361.0</ele><time>2026-04-29T14:55:21Z</time></trkpt><trkpt lat="45.767978785645674" lon="8.857684600091638"><ele>361.0</ele><time>2026-04-29T14:55:22Z</time></trkpt><trkpt lat="45.76798985952992" lon="8.857577293461466"><ele>361.0</ele><time>2026-04-29T14:55:23Z</time></trkpt><trkpt lat="45.767996126867935" lon="8.857418957086146"><ele>361.0</ele><time>2026-04-29T14:55:25Z</time></trkpt><trkpt lat="45.768004573944836" lon="8.8573286671061"><ele>361.0</ele><time>2026-04-29T14:55:27Z</time></trkpt><trkpt lat="45.76788975170761" lon="8.85726103945439"><ele>361.3333333333333</ele><time>2026-04-29T14:55:31Z</time></trkpt><trkpt lat="45.76780269925263" lon="8.857247324739445"><ele>361.66666666666663</ele><time>2026-04-29T14:55:32Z</time></trkpt><trkpt lat="45.76771850418829" lon="8.857232383012539"><ele>362.0</ele><time>2026-04-29T14:55:33Z</time></trkpt><trkpt lat="45.76761663938594" lon="8.857199372862658"><ele>362.3333333333333</ele><time>2026-04-29T14:55:34Z</time></trkpt><trkpt lat="45.76752700780854" lon="8.857165478629556"><ele>362.6666666666667</ele><time>2026-04-29T14:55:35Z</time></trkpt><trkpt lat="45.76745314692025" lon="8.857127184823891"><ele>363.0</ele><time>2026-04-29T14:55:36Z</time></trkpt><trkpt lat="45.76737520894604" lon="8.857101129576801"><ele>363.79999999999995</ele><time>2026-04-29T14:55:37Z</time></trkpt><trkpt lat="45.767300816673526" lon="8.857094288962985"><ele>364.6</ele><time>2026-04-29T14:55:38Z</time></trkpt><trkpt lat="45.767228097190454" lon="8.857094307460295"><ele>365.4</ele><time>2026-04-29T14:55:39Z</time></trkpt><trkpt lat="45.76712097741781" lon="8.857101100369311"><ele>366.20000000000005</ele><time>2026-04-29T14:55:40Z</time></trkpt><trkpt lat="45.767015333159385" lon="8.857101822557222"><ele>367.0</ele><time>2026-04-29T14:55:41Z</time></trkpt><trkpt lat="45.766917592304" lon="8.857099434745066"><ele>366.8</ele><time>2026-04-29T14:55:42Z</time></trkpt><trkpt lat="45.76681422533946" lon="8.857081676941267"><ele>366.6</ele><time>2026-04-29T14:55:43Z</time></trkpt><trkpt lat="45.76670416707716" lon="8.857047343208087"><ele>366.40000000000003</ele><time>2026-04-29T14:55:43.999Z</time></trkpt><trkpt lat="45.76662139186391" lon="8.85700328561781"><ele>366.20000000000005</ele><time>2026-04-29T14:55:44.999Z</time></trkpt><trkpt lat="45.766557529132896" lon="8.856956013231434"><ele>366.0</ele><time>2026-04-29T14:55:45.999Z</time></trkpt><trkpt lat="45.766463500773206" lon="8.856880458694004"><ele>366.0</ele><time>2026-04-29T14:55:47.999Z</time></trkpt><trkpt lat="45.76640194931407" lon="8.856840470361941"><ele>366.0</ele><time>2026-04-29T14:55:49.999Z</time></trkpt><trkpt lat="45.76636392382316" lon="8.856711753367371"><ele>366.0</ele><time>2026-04-29T14:55:51.999Z</time></trkpt><trkpt lat="45.766354169787554" lon="8.856614242317285"><ele>366.0</ele><time>2026-04-29T14:55:52.999Z</time></trkpt><trkpt lat="45.7663616003234" lon="8.856487496996433"><ele>366.0</ele><time>2026-04-29T14:55:53.999Z</time></trkpt><trkpt lat="45.76637079148393" lon="8.856342796584222"><ele>366.0</ele><time>2026-04-29T14:55:54.999Z</time></trkpt><trkpt lat="45.76637365792612" lon="8.856195947878778"><ele>366.0</ele><time>2026-04-29T14:55:55.999Z</time></trkpt><trkpt lat="45.766381585936216" lon="8.856047433355425"><ele>366.0</ele><time>2026-04-29T14:55:56.999Z</time></trkpt><trkpt lat="45.76639077022156" lon="8.855909285313112"><ele>366.0</ele><time>2026-04-29T14:55:57.999Z</time></trkpt><trkpt lat="45.7664013136622" lon="8.855793039037335"><ele>366.0</ele><time>2026-04-29T14:55:58.999Z</time></trkpt><trkpt lat="45.76640955852053" lon="8.855698255510807"><ele>366.0</ele><time>2026-04-29T14:55:59.999Z</time></trkpt><trkpt lat="45.76641987450582" lon="8.855537431749289"><ele>365.6</ele><time>2026-04-29T14:56:01.999Z</time></trkpt><trkpt lat="45.76643293412673" lon="8.85542204578182"><ele>365.20000000000005</ele><time>2026-04-29T14:56:03.999Z</time></trkpt><trkpt lat="45.76644109211571" lon="8.855318359297335"><ele>364.79999999999995</ele><time>2026-04-29T14:56:05.999Z</time></trkpt><trkpt lat="45.76645151630857" lon="8.85517965441926"><ele>364.4</ele><time>2026-04-29T14:56:07.999Z</time></trkpt><trkpt lat="45.76645314917588" lon="8.855003063512791"><ele>364.0</ele><time>2026-04-29T14:56:10.999Z</time></trkpt><trkpt lat="45.7664440733972" lon="8.854893971783744"><ele>364.2</ele><time>2026-04-29T14:56:12.999Z</time></trkpt><trkpt lat="45.76648531748653" lon="8.854809117682672"><ele>364.4</ele><time>2026-04-29T14:56:15.999Z</time></trkpt><trkpt lat="45.7665002700316" lon="8.854698086875413"><ele>364.6</ele><time>2026-04-29T14:56:17.999Z</time></trkpt><trkpt lat="45.76651189598675" lon="8.854573278041078"><ele>364.8</ele><time>2026-04-29T14:56:18.999Z</time></trkpt><trkpt lat="45.76651182647874" lon="8.854418120608718"><ele>365.0</ele><time>2026-04-29T14:56:19.999Z</time></trkpt><trkpt lat="45.76651511245385" lon="8.854226353163575"><ele>365.0</ele><time>2026-04-29T14:56:20.999Z</time></trkpt><trkpt lat="45.76652664054816" lon="8.854063773757991"><ele>365.0</ele><time>2026-04-29T14:56:21.999Z</time></trkpt><trkpt lat="45.76653707848948" lon="8.85390803657714"><ele>365.0</ele><time>2026-04-29T14:56:22.999Z</time></trkpt><trkpt lat="45.76653821599177" lon="8.8537420218015"><ele>365.0</ele><time>2026-04-29T14:56:23.999Z</time></trkpt><trkpt lat="45.76652713174307" lon="8.853623917807784"><ele>365.0</ele><time>2026-04-29T14:56:24.999Z</time></trkpt><trkpt lat="45.766494131360375" lon="8.853489338885632"><ele>366.8</ele><time>2026-04-29T14:56:26.999Z</time></trkpt><trkpt lat="45.76642334701968" lon="8.853353883656368"><ele>368.6</ele><time>2026-04-29T14:56:28.999Z</time></trkpt><trkpt lat="45.76634023587987" lon="8.853279904428403"><ele>370.4</ele><time>2026-04-29T14:56:29.999Z</time></trkpt><trkpt lat="45.76623119678642" lon="8.85321235066619"><ele>372.2</ele><time>2026-04-29T14:56:30.999Z</time></trkpt><trkpt lat="45.766150661779676" lon="8.85313855363171"><ele>374.0</ele><time>2026-04-29T14:56:31.999Z</time></trkpt><trkpt lat="45.766078012094496" lon="8.853071091556595"><ele>374.79999999999995</ele><time>2026-04-29T14:56:32.999Z</time></trkpt><trkpt lat="45.766015285475746" lon="8.852954062564654"><ele>375.59999999999997</ele><time>2026-04-29T14:56:33.999Z</time></trkpt><trkpt lat="45.76594567503403" lon="8.852850098755116"><ele>376.4</ele><time>2026-04-29T14:56:34.999Z</time></trkpt><trkpt lat="45.7658985909314" lon="8.85271339901572"><ele>377.2</ele><time>2026-04-29T14:56:35.999Z</time></trkpt><trkpt lat="45.765842370922776" lon="8.852566770597152"><ele>378.0</ele><time>2026-04-29T14:56:37Z</time></trkpt><trkpt lat="45.765784806652356" lon="8.85243121528442"><ele>382.0</ele><time>2026-04-29T14:56:38Z</time></trkpt><trkpt lat="45.765693992682976" lon="8.852309950971135"><ele>386.0</ele><time>2026-04-29T14:56:40Z</time></trkpt><trkpt lat="45.76563359915265" lon="8.852194628820193"><ele>390.0</ele><time>2026-04-29T14:56:41Z</time></trkpt><trkpt lat="45.765530955687076" lon="8.852127302489112"><ele>394.0</ele><time>2026-04-29T14:56:42Z</time></trkpt><trkpt lat="45.76544279400995" lon="8.85202504141879"><ele>394.0</ele><time>2026-04-29T14:56:43Z</time></trkpt><trkpt lat="45.76538889253381" lon="8.851972192091953"><ele>394.0</ele><time>2026-04-29T14:56:45Z</time></trkpt><trkpt lat="45.765346067582584" lon="8.851826885328649"><ele>394.0</ele><time>2026-04-29T14:56:47Z</time></trkpt><trkpt lat="45.76532126422312" lon="8.851697933729184"><ele>394.0</ele><time>2026-04-29T14:56:49Z</time></trkpt><trkpt lat="45.76530281493173" lon="8.851561738128481"><ele>394.0</ele><time>2026-04-29T14:56:51Z</time></trkpt><trkpt lat="45.765348847716865" lon="8.851391549546"><ele>395.2</ele><time>2026-04-29T14:56:52Z</time></trkpt><trkpt lat="45.76529473664411" lon="8.851270385571798"><ele>396.4</ele><time>2026-04-29T14:56:53Z</time></trkpt><trkpt lat="45.76523698432155" lon="8.851220998781196"><ele>397.6</ele><time>2026-04-29T14:56:54Z</time></trkpt><trkpt lat="45.76516588355504" lon="8.851152965240729"><ele>398.8</ele><time>2026-04-29T14:57:00Z</time></trkpt><trkpt lat="45.76507081704751" lon="8.85132299665181"><ele>400.0</ele><time>2026-04-29T14:57:02Z</time></trkpt><trkpt lat="45.76491475040725" lon="8.851349840769107"><ele>400.1666666666667</ele><time>2026-04-29T14:57:06Z</time></trkpt><trkpt lat="45.764835935238075" lon="8.851386090630927"><ele>400.33333333333337</ele><time>2026-04-29T14:57:09Z</time></trkpt><trkpt lat="45.76475335067377" lon="8.851463265896305"><ele>400.5</ele><time>2026-04-29T14:57:12Z</time></trkpt><trkpt lat="45.76466000586042" lon="8.85154153544817"><ele>400.66666666666663</ele><time>2026-04-29T14:57:14Z</time></trkpt><trkpt lat="45.76459113173033" lon="8.851564587267156"><ele>400.8333333333333</ele><time>2026-04-29T14:57:16Z</time></trkpt><trkpt lat="45.76452067783906" lon="8.851591399835803"><ele>401.0</ele><time>2026-04-29T14:57:19Z</time></trkpt><trkpt lat="45.76445518039814" lon="8.851587113636885"><ele>402.6</ele><time>2026-04-29T14:57:21Z</time></trkpt><trkpt lat="45.76434958895883" lon="8.851577329859756"><ele>404.20000000000005</ele><time>2026-04-29T14:57:24Z</time></trkpt><trkpt lat="45.764273561335" lon="8.851567420927875"><ele>405.79999999999995</ele><time>2026-04-29T14:57:26Z</time></trkpt><trkpt lat="45.764184462730995" lon="8.851580409792462"><ele>407.4</ele><time>2026-04-29T14:57:28Z</time></trkpt><trkpt lat="45.76409250757678" lon="8.85159573112892"><ele>409.0</ele><time>2026-04-29T14:57:30Z</time></trkpt><trkpt lat="45.76372360414601" lon="8.85154309844554"><ele>409.0</ele><time>2026-04-29T14:57:31Z</time></trkpt><trkpt lat="45.763649710633366" lon="8.851484250257947"><ele>409.0</ele><time>2026-04-29T14:57:33Z</time></trkpt><trkpt lat="45.76355738204319" lon="8.851393969695412"><ele>409.0</ele><time>2026-04-29T14:57:35Z</time></trkpt><trkpt lat="45.76349091835938" lon="8.851308713199302"><ele>409.0</ele><time>2026-04-29T14:57:37Z</time></trkpt><trkpt lat="45.763455005765884" lon="8.851229142763495"><ele>409.0</ele><time>2026-04-29T14:57:39Z</time></trkpt><trkpt lat="45.76336275485287" lon="8.851298491510743"><ele>409.0</ele><time>2026-04-29T14:57:43Z</time></trkpt><trkpt lat="45.7632995623351" lon="8.851439666909483"><ele>409.0</ele><time>2026-04-29T14:57:44.999Z</time></trkpt><trkpt lat="45.763273009862125" lon="8.851532989235169"><ele>409.0</ele><time>2026-04-29T14:57:45.999Z</time></trkpt><trkpt lat="45.763248381907346" lon="8.851625435198931"><ele>409.0</ele><time>2026-04-29T14:57:46.999Z</time></trkpt><trkpt lat="45.76319834332116" lon="8.85171852708528"><ele>409.0</ele><time>2026-04-29T14:57:47.999Z</time></trkpt><trkpt lat="45.76311402690645" lon="8.851846479424983"><ele>407.5</ele><time>2026-04-29T14:57:48.999Z</time></trkpt><trkpt lat="45.76304300988932" lon="8.851970883592767"><ele>406.0</ele><time>2026-04-29T14:57:49.999Z</time></trkpt><trkpt lat="45.76294425471077" lon="8.852077886125015"><ele>404.5</ele><time>2026-04-29T14:57:51.999Z</time></trkpt><trkpt lat="45.762869291765455" lon="8.852195476899388"><ele>403.0</ele><time>2026-04-29T14:57:52.999Z</time></trkpt><trkpt lat="45.76279407473093" lon="8.852314297392043"><ele>403.0</ele><time>2026-04-29T14:57:53.999Z</time></trkpt><trkpt lat="45.762742334416814" lon="8.852397168225435"><ele>403.0</ele><time>2026-04-29T14:57:54.999Z</time></trkpt><trkpt lat="45.76266253439849" lon="8.852510547072718"><ele>403.0</ele><time>2026-04-29T14:57:56.999Z</time></trkpt><trkpt lat="45.762554387504345" lon="8.852707377430685"><ele>403.0</ele><time>2026-04-29T14:58:00.999Z</time></trkpt><trkpt lat="45.76248505800537" lon="8.85280423131217"><ele>402.6666666666667</ele><time>2026-04-29T14:58:02.999Z</time></trkpt><trkpt lat="45.76244252233834" lon="8.852875906250365"><ele>402.33333333333337</ele><time>2026-04-29T14:58:04.999Z</time></trkpt><trkpt lat="45.762398837365524" lon="8.853009605485042"><ele>402.0</ele><time>2026-04-29T14:58:06.999Z</time></trkpt><trkpt lat="45.76236002995367" lon="8.853098651595928"><ele>401.66666666666663</ele><time>2026-04-29T14:58:08.999Z</time></trkpt><trkpt lat="45.762268485398316" lon="8.853181625303947"><ele>401.3333333333333</ele><time>2026-04-29T14:58:10.999Z</time></trkpt><trkpt lat="45.7622061500695" lon="8.853266384653606"><ele>401.0</ele><time>2026-04-29T14:58:11.999Z</time></trkpt><trkpt lat="45.762156956590566" lon="8.853330734223615"><ele>401.0</ele><time>2026-04-29T14:58:12.999Z</time></trkpt><trkpt lat="45.762076047261104" lon="8.853378992067798"><ele>401.0</ele><time>2026-04-29T14:58:14.999Z</time></trkpt><trkpt lat="45.761973832690764" lon="8.85346029807964"><ele>401.0</ele><time>2026-04-29T14:58:16.999Z</time></trkpt><trkpt lat="45.76186367504185" lon="8.853505457890341"><ele>401.0</ele><time>2026-04-29T14:58:18.999Z</time></trkpt><trkpt lat="45.761784763735456" lon="8.853474390033226"><ele>401.0</ele><time>2026-04-29T14:58:20.999Z</time></trkpt><trkpt lat="45.76166972081943" lon="8.853488640066779"><ele>400.16666666666663</ele><time>2026-04-29T14:58:22.999Z</time></trkpt><trkpt lat="45.76159117434366" lon="8.853499773341063"><ele>399.3333333333333</ele><time>2026-04-29T14:58:23.999Z</time></trkpt><trkpt lat="45.761523597748834" lon="8.853486304603154"><ele>398.5</ele><time>2026-04-29T14:58:24.999Z</time></trkpt><trkpt lat="45.76140381197641" lon="8.853515890051598"><ele>397.66666666666663</ele><time>2026-04-29T14:58:26.999Z</time></trkpt><trkpt lat="45.761336455701986" lon="8.85350997531592"><ele>396.8333333333333</ele><time>2026-04-29T14:58:27.999Z</time></trkpt><trkpt lat="45.76125838099835" lon="8.853497507192925"><ele>396.0</ele><time>2026-04-29T14:58:29.999Z</time></trkpt><trkpt lat="45.761358929572374" lon="8.853528982565882"><ele>396.0</ele><time>2026-04-29T14:58:57Z</time></trkpt><trkpt lat="45.76142625145217" lon="8.853536018277387"><ele>396.0</ele><time>2026-04-29T14:58:58Z</time></trkpt><trkpt lat="45.76152924241993" lon="8.85355649016824"><ele>396.0</ele><time>2026-04-29T14:59:00Z</time></trkpt><trkpt lat="45.76164644244407" lon="8.853578501138285"><ele>396.0</ele><time>2026-04-29T14:59:02Z</time></trkpt><trkpt lat="45.761756497272586" lon="8.853593689141814"><ele>396.0</ele><time>2026-04-29T14:59:04Z</time></trkpt><trkpt lat="45.761819159096014" lon="8.853604475333817"><ele>395.4</ele><time>2026-04-29T14:59:05Z</time></trkpt><trkpt lat="45.76193942640515" lon="8.853576827400422"><ele>394.8</ele><time>2026-04-29T14:59:07Z</time></trkpt><trkpt lat="45.76201807556657" lon="8.853536243752199"><ele>394.2</ele><time>2026-04-29T14:59:09Z</time></trkpt><trkpt lat="45.76213328292957" lon="8.853439446648618"><ele>393.59999999999997</ele><time>2026-04-29T14:59:11Z</time></trkpt><trkpt lat="45.762194472820525" lon="8.85336482700622"><ele>393.0</ele><time>2026-04-29T14:59:12Z</time></trkpt><trkpt lat="45.76224333368674" lon="8.85326149423031"><ele>394.59999999999997</ele><time>2026-04-29T14:59:14Z</time></trkpt><trkpt lat="45.762270500088476" lon="8.853169874811966"><ele>396.2</ele><time>2026-04-29T14:59:15Z</time></trkpt><trkpt lat="45.76231829319946" lon="8.85304795880618"><ele>397.8</ele><time>2026-04-29T14:59:16Z</time></trkpt><trkpt lat="45.76238698301118" lon="8.852928597943082"><ele>399.4</ele><time>2026-04-29T14:59:17Z</time></trkpt><trkpt lat="45.7624450124457" lon="8.852822134511502"><ele>401.0</ele><time>2026-04-29T14:59:18Z</time></trkpt><trkpt lat="45.76251811845959" lon="8.852693943420325"><ele>401.3333333333333</ele><time>2026-04-29T14:59:20Z</time></trkpt><trkpt lat="45.76257671361836" lon="8.852619491466838"><ele>401.66666666666663</ele><time>2026-04-29T14:59:21Z</time></trkpt><trkpt lat="45.762650762086565" lon="8.852496693345149"><ele>402.0</ele><time>2026-04-29T14:59:22Z</time></trkpt><trkpt lat="45.76272022386959" lon="8.852373188343957"><ele>402.33333333333337</ele><time>2026-04-29T14:59:23Z</time></trkpt><trkpt lat="45.76276503330773" lon="8.852292807414544"><ele>402.6666666666667</ele><time>2026-04-29T14:59:24Z</time></trkpt><trkpt lat="45.762809710378505" lon="8.852227675135563"><ele>403.0</ele><time>2026-04-29T14:59:25Z</time></trkpt><trkpt lat="45.76287550808373" lon="8.85215555656779"><ele>403.0</ele><time>2026-04-29T14:59:26Z</time></trkpt><trkpt lat="45.76297603058699" lon="8.85201918476229"><ele>403.0</ele><time>2026-04-29T14:59:28Z</time></trkpt><trkpt lat="45.76305850080636" lon="8.851895094632564"><ele>403.0</ele><time>2026-04-29T14:59:30Z</time></trkpt><trkpt lat="45.76310198518727" lon="8.851765276662238"><ele>403.0</ele><time>2026-04-29T14:59:32Z</time></trkpt><trkpt lat="45.76319307971452" lon="8.851600695764093"><ele>404.00000000000006</ele><time>2026-04-29T14:59:34Z</time></trkpt><trkpt lat="45.763253011639705" lon="8.8514518855891"><ele>405.0</ele><time>2026-04-29T14:59:36Z</time></trkpt><trkpt lat="45.76329011606422" lon="8.851359579977746"><ele>406.0</ele><time>2026-04-29T14:59:38Z</time></trkpt><trkpt lat="45.763352001302025" lon="8.851312388715344"><ele>407.0</ele><time>2026-04-29T14:59:42Z</time></trkpt><trkpt lat="45.763405354209674" lon="8.85124606424978"><ele>408.00000000000006</ele><time>2026-04-29T14:59:45Z</time></trkpt><trkpt lat="45.763494078475595" lon="8.85132359051468"><ele>409.0</ele><time>2026-04-29T14:59:48Z</time></trkpt><trkpt lat="45.76354725878222" lon="8.851397763409725"><ele>409.00000000000006</ele><time>2026-04-29T14:59:50.999Z</time></trkpt><trkpt lat="45.7636184962573" lon="8.851463901896647"><ele>409.0</ele><time>2026-04-29T14:59:54.999Z</time></trkpt><trkpt lat="45.76369339314937" lon="8.851522310265857"><ele>409.0</ele><time>2026-04-29T14:59:56.999Z</time></trkpt><trkpt lat="45.763751699971785" lon="8.851579829178505"><ele>409.0</ele><time>2026-04-29T14:59:57.999Z</time></trkpt><trkpt lat="45.76382701355952" lon="8.851610366522777"><ele>409.00000000000006</ele><time>2026-04-29T14:59:58.999Z</time></trkpt><trkpt lat="45.76391574114046" lon="8.851603090918516"><ele>409.0</ele><time>2026-04-29T14:59:59.999Z</time></trkpt><trkpt lat="45.76398740707637" lon="8.851575584843674"><ele>409.0</ele><time>2026-04-29T15:00:00.999Z</time></trkpt><trkpt lat="45.76406833476809" lon="8.851520108500697"><ele>409.0</ele><time>2026-04-29T15:00:01.999Z</time></trkpt><trkpt lat="45.764148132417105" lon="8.851434647081714"><ele>409.0</ele><time>2026-04-29T15:00:03.999Z</time></trkpt><trkpt lat="45.76419377082923" lon="8.85162302206683"><ele>409.0</ele><time>2026-04-29T15:00:04.999Z</time></trkpt><trkpt lat="45.764323473901506" lon="8.851607112912342"><ele>407.4</ele><time>2026-04-29T15:00:07.999Z</time></trkpt><trkpt lat="45.76444338047687" lon="8.851575568785062"><ele>405.79999999999995</ele><time>2026-04-29T15:00:08.999Z</time></trkpt><trkpt lat="45.76453046877586" lon="8.851554017490729"><ele>404.20000000000005</ele><time>2026-04-29T15:00:09.999Z</time></trkpt><trkpt lat="45.76461253230734" lon="8.851509207893358"><ele>402.6</ele><time>2026-04-29T15:00:10.999Z</time></trkpt><trkpt lat="45.764677339717636" lon="8.851471999607082"><ele>401.0</ele><time>2026-04-29T15:00:11.999Z</time></trkpt><trkpt lat="45.76475283601948" lon="8.851421855153543"><ele>401.0</ele><time>2026-04-29T15:00:12.999Z</time></trkpt><trkpt lat="45.76485243723811" lon="8.85136301941697"><ele>401.0</ele><time>2026-04-29T15:00:13.999Z</time></trkpt><trkpt lat="45.764918063226375" lon="8.851325812163953"><ele>401.0</ele><time>2026-04-29T15:00:14.999Z</time></trkpt><trkpt lat="45.76497107274704" lon="8.85124328143185"><ele>401.0</ele><time>2026-04-29T15:00:16.999Z</time></trkpt><trkpt lat="45.76504533892697" lon="8.851207271090141"><ele>401.0</ele><time>2026-04-29T15:00:19.999Z</time></trkpt><trkpt lat="45.76516828972022" lon="8.851236668799977"><ele>400.75</ele><time>2026-04-29T15:00:21.999Z</time></trkpt><trkpt lat="45.7652609127621" lon="8.851537950422339"><ele>400.5</ele><time>2026-04-29T15:00:26.999Z</time></trkpt><trkpt lat="45.76524887377267" lon="8.851643275016905"><ele>400.25</ele><time>2026-04-29T15:00:27.999Z</time></trkpt><trkpt lat="45.76530207712292" lon="8.851745793905549"><ele>400.0</ele><time>2026-04-29T15:00:28.999Z</time></trkpt><trkpt lat="45.76532569600281" lon="8.851876202212708"><ele>398.8</ele><time>2026-04-29T15:00:29.999Z</time></trkpt><trkpt lat="45.76539151037216" lon="8.852059339786198"><ele>397.6</ele><time>2026-04-29T15:00:30.999Z</time></trkpt><trkpt lat="45.76546072975894" lon="8.852143798723207"><ele>396.4</ele><time>2026-04-29T15:00:31.999Z</time></trkpt><trkpt lat="45.76552101237995" lon="8.85220049965398"><ele>395.2</ele><time>2026-04-29T15:00:32.999Z</time></trkpt><trkpt lat="45.765617171603466" lon="8.852277808538997"><ele>394.0</ele><time>2026-04-29T15:00:34.999Z</time></trkpt><trkpt lat="45.7656995880789" lon="8.852395634696467"><ele>394.0</ele><time>2026-04-29T15:00:35.999Z</time></trkpt><trkpt lat="45.76574408881903" lon="8.85250365874013"><ele>394.0</ele><time>2026-04-29T15:00:36.999Z</time></trkpt><trkpt lat="45.765801192770994" lon="8.852615442762902"><ele>394.0</ele><time>2026-04-29T15:00:37.999Z</time></trkpt><trkpt lat="45.765858452080714" lon="8.852747447761855"><ele>394.0</ele><time>2026-04-29T15:00:38.999Z</time></trkpt><trkpt lat="45.76591742225384" lon="8.852851101367728"><ele>394.0</ele><time>2026-04-29T15:00:39.999Z</time></trkpt><trkpt lat="45.76596183646204" lon="8.852938438611018"><ele>390.0</ele><time>2026-04-29T15:00:40.999Z</time></trkpt><trkpt lat="45.76602969750262" lon="8.853025418654337"><ele>386.0</ele><time>2026-04-29T15:00:41.999Z</time></trkpt><trkpt lat="45.766103876218416" lon="8.853150148322479"><ele>382.0</ele><time>2026-04-29T15:00:42.999Z</time></trkpt><trkpt lat="45.76618001205278" lon="8.853215132694517"><ele>378.0</ele><time>2026-04-29T15:00:43.999Z</time></trkpt><trkpt lat="45.76625504136193" lon="8.853290687476061"><ele>374.0</ele><time>2026-04-29T15:00:45.999Z</time></trkpt><trkpt lat="45.766368669618366" lon="8.853386312343591"><ele>372.2</ele><time>2026-04-29T15:00:47.999Z</time></trkpt><trkpt lat="45.76642516597528" lon="8.85347389508556"><ele>370.4</ele><time>2026-04-29T15:00:49Z</time></trkpt><trkpt lat="45.76646490190861" lon="8.853585538998813"><ele>368.6</ele><time>2026-04-29T15:00:50Z</time></trkpt><trkpt lat="45.766487904207885" lon="8.853732761198879"><ele>366.8</ele><time>2026-04-29T15:00:51Z</time></trkpt><trkpt lat="45.7664878935973" lon="8.853892125036168"><ele>365.0</ele><time>2026-04-29T15:00:52Z</time></trkpt><trkpt lat="45.76648093181235" lon="8.854007144944932"><ele>365.0</ele><time>2026-04-29T15:00:53Z</time></trkpt><trkpt lat="45.76647119624335" lon="8.854129499112522"><ele>365.0</ele><time>2026-04-29T15:00:54Z</time></trkpt><trkpt lat="45.76646354605542" lon="8.854256656400189"><ele>365.0</ele><time>2026-04-29T15:00:55Z</time></trkpt><trkpt lat="45.7664608699507" lon="8.85436440491714"><ele>365.0</ele><time>2026-04-29T15:00:56Z</time></trkpt><trkpt lat="45.766462312590605" lon="8.854515594717432"><ele>365.0</ele><time>2026-04-29T15:00:58Z</time></trkpt><trkpt lat="45.76642237815263" lon="8.854585912718903"><ele>365.0</ele><time>2026-04-29T15:00:59Z</time></trkpt><trkpt lat="45.76645072005017" lon="8.854688454598596"><ele>364.8</ele><time>2026-04-29T15:01:00Z</time></trkpt><trkpt lat="45.76641934148416" lon="8.854825596130967"><ele>364.6</ele><time>2026-04-29T15:01:02Z</time></trkpt><trkpt lat="45.76642952912242" lon="8.854937796698202"><ele>364.4</ele><time>2026-04-29T15:01:04Z</time></trkpt><trkpt lat="45.76639090051767" lon="8.855009322453363"><ele>364.2</ele><time>2026-04-29T15:01:05Z</time></trkpt><trkpt lat="45.76632267134854" lon="8.855072464732647"><ele>364.0</ele><time>2026-04-29T15:01:06Z</time></trkpt><trkpt lat="45.76641881117293" lon="8.855313490075101"><ele>364.0</ele><time>2026-04-29T15:01:07Z</time></trkpt><trkpt lat="45.766408979328276" lon="8.855473208642675"><ele>364.0</ele><time>2026-04-29T15:01:08Z</time></trkpt><trkpt lat="45.76639538105729" lon="8.855626168892831"><ele>364.0</ele><time>2026-04-29T15:01:09Z</time></trkpt><trkpt lat="45.76637800620892" lon="8.85578157931603"><ele>364.0</ele><time>2026-04-29T15:01:10Z</time></trkpt><trkpt lat="45.7663688237762" lon="8.855941971110335"><ele>364.0</ele><time>2026-04-29T15:01:11Z</time></trkpt><trkpt lat="45.76635894420438" lon="8.856103734018768"><ele>364.4</ele><time>2026-04-29T15:01:12Z</time></trkpt><trkpt lat="45.76635018241217" lon="8.856268035500456"><ele>364.79999999999995</ele><time>2026-04-29T15:01:13Z</time></trkpt><trkpt lat="45.76633948511711" lon="8.856415072807298"><ele>365.20000000000005</ele><time>2026-04-29T15:01:14Z</time></trkpt><trkpt lat="45.7663364102196" lon="8.856538789588432"><ele>365.6</ele><time>2026-04-29T15:01:15Z</time></trkpt><trkpt lat="45.76634271942725" lon="8.856661547446516"><ele>366.0</ele><time>2026-04-29T15:01:16Z</time></trkpt><trkpt lat="45.76635282323072" lon="8.856775312845237"><ele>366.0</ele><time>2026-04-29T15:01:17Z</time></trkpt><trkpt lat="45.76639236926105" lon="8.856853795478365"><ele>366.0</ele><time>2026-04-29T15:01:18Z</time></trkpt><trkpt lat="45.766462143352875" lon="8.85691394992566"><ele>366.0</ele><time>2026-04-29T15:01:19Z</time></trkpt><trkpt lat="45.76655059319627" lon="8.856962636045713"><ele>366.0</ele><time>2026-04-29T15:01:20Z</time></trkpt><trkpt lat="45.7666415317179" lon="8.857015296526493"><ele>366.0</ele><time>2026-04-29T15:01:21Z</time></trkpt><trkpt lat="45.76673955661372" lon="8.857069635780219"><ele>366.0</ele><time>2026-04-29T15:01:22Z</time></trkpt><trkpt lat="45.76684944882943" lon="8.857104946645965"><ele>366.20000000000005</ele><time>2026-04-29T15:01:23Z</time></trkpt><trkpt lat="45.76696962963166" lon="8.857117265461381"><ele>366.40000000000003</ele><time>2026-04-29T15:01:24Z</time></trkpt><trkpt lat="45.76707941788851" lon="8.857122055128844"><ele>366.6</ele><time>2026-04-29T15:01:25Z</time></trkpt><trkpt lat="45.76717820445104" lon="8.857122476817295"><ele>366.8</ele><time>2026-04-29T15:01:26Z</time></trkpt><trkpt lat="45.76726308041531" lon="8.857112977096001"><ele>367.0</ele><time>2026-04-29T15:01:27Z</time></trkpt><trkpt lat="45.76735605656136" lon="8.857110203167823"><ele>367.0</ele><time>2026-04-29T15:01:28Z</time></trkpt><trkpt lat="45.76744783495806" lon="8.857118505096123"><ele>367.0</ele><time>2026-04-29T15:01:29Z</time></trkpt><trkpt lat="45.76753278958324" lon="8.857153717554423"><ele>367.0</ele><time>2026-04-29T15:01:30Z</time></trkpt><trkpt lat="45.76762251597195" lon="8.85720759143754"><ele>367.0</ele><time>2026-04-29T15:01:31Z</time></trkpt><trkpt lat="45.76770710164905" lon="8.857243730634547"><ele>367.0</ele><time>2026-04-29T15:01:32Z</time></trkpt><trkpt lat="45.767798926439326" lon="8.857261630973516"><ele>366.20000000000005</ele><time>2026-04-29T15:01:33Z</time></trkpt><trkpt lat="45.76787116284458" lon="8.857267473809445"><ele>365.4</ele><time>2026-04-29T15:01:34Z</time></trkpt><trkpt lat="45.76793464877798" lon="8.857274542306902"><ele>364.6</ele><time>2026-04-29T15:01:35Z</time></trkpt><trkpt lat="45.768035517571974" lon="8.857285354192689"><ele>363.79999999999995</ele><time>2026-04-29T15:01:37Z</time></trkpt><trkpt lat="45.768184868798684" lon="8.857338874891786"><ele>363.0</ele><time>2026-04-29T15:01:39Z</time></trkpt><trkpt lat="45.76829115642021" lon="8.857370146892011"><ele>363.0</ele><time>2026-04-29T15:01:40Z</time></trkpt><trkpt lat="45.76837035251897" lon="8.857398803143756"><ele>363.0</ele><time>2026-04-29T15:01:41Z</time></trkpt><trkpt lat="45.768435766034735" lon="8.857422376683756"><ele>363.0</ele><time>2026-04-29T15:01:42Z</time></trkpt><trkpt lat="45.768501282104275" lon="8.85743920949398"><ele>363.0</ele><time>2026-04-29T15:01:43Z</time></trkpt><trkpt lat="45.76860042185421" lon="8.857486828820452"><ele>363.0</ele><time>2026-04-29T15:01:45Z</time></trkpt><trkpt lat="45.76866840850294" lon="8.857519206966668"><ele>363.0</ele><time>2026-04-29T15:01:48Z</time></trkpt><trkpt lat="45.768734223543326" lon="8.857520749215242"><ele>362.59999999999997</ele><time>2026-04-29T15:01:51Z</time></trkpt><trkpt lat="45.768870971965214" lon="8.857566041357256"><ele>362.2</ele><time>2026-04-29T15:01:54Z</time></trkpt><trkpt lat="45.768930752127574" lon="8.857606855693874"><ele>361.8</ele><time>2026-04-29T15:02:05.999Z</time></trkpt><trkpt lat="45.76885547064679" lon="8.857567630617424"><ele>361.4</ele><time>2026-04-29T15:02:15.999Z</time></trkpt><trkpt lat="45.76874548696659" lon="8.857532448580121"><ele>361.0</ele><time>2026-04-29T15:02:18.999Z</time></trkpt><trkpt lat="45.768667148500604" lon="8.857503819814124"><ele>361.0</ele><time>2026-04-29T15:02:19.999Z</time></trkpt><trkpt lat="45.768566226766445" lon="8.857467534571565"><ele>361.0</ele><time>2026-04-29T15:02:20.999Z</time></trkpt><trkpt lat="45.76847341059602" lon="8.857419401344863"><ele>361.0</ele><time>2026-04-29T15:02:21.999Z</time></trkpt><trkpt lat="45.76837624295167" lon="8.857380152714946"><ele>361.0</ele><time>2026-04-29T15:02:22.999Z</time></trkpt><trkpt lat="45.76827313156394" lon="8.857363281444876"><ele>361.0</ele><time>2026-04-29T15:02:23.999Z</time></trkpt><trkpt lat="45.76817259518252" lon="8.85733076637434"><ele>361.4</ele><time>2026-04-29T15:02:24.999Z</time></trkpt><trkpt lat="45.76807666991007" lon="8.857299406155128"><ele>361.8</ele><time>2026-04-29T15:02:25.999Z</time></trkpt><trkpt lat="45.767983757558646" lon="8.85727013345805"><ele>362.2</ele><time>2026-04-29T15:02:26.999Z</time></trkpt><trkpt lat="45.76790634991049" lon="8.857256852551599"><ele>362.59999999999997</ele><time>2026-04-29T15:02:27.999Z</time></trkpt><trkpt lat="45.76781026973199" lon="8.857251748963563"><ele>363.0</ele><time>2026-04-29T15:02:28.999Z</time></trkpt><trkpt lat="45.76769058643851" lon="8.85722467326909"><ele>363.6666666666667</ele><time>2026-04-29T15:02:29.999Z</time></trkpt><trkpt lat="45.76758524964653" lon="8.857187892047213"><ele>364.3333333333333</ele><time>2026-04-29T15:02:30.999Z</time></trkpt><trkpt lat="45.76750451474178" lon="8.857148036998783"><ele>365.0</ele><time>2026-04-29T15:02:31.999Z</time></trkpt><trkpt lat="45.76744121680738" lon="8.857112353821183"><ele>365.66666666666663</ele><time>2026-04-29T15:02:32.999Z</time></trkpt><trkpt lat="45.76736120953886" lon="8.857094383070166"><ele>366.3333333333333</ele><time>2026-04-29T15:02:33.999Z</time></trkpt><trkpt lat="45.76726827617057" lon="8.857096383706837"><ele>367.0</ele><time>2026-04-29T15:02:34.999Z</time></trkpt><trkpt lat="45.767160265246055" lon="8.85710391140639"><ele>367.0</ele><time>2026-04-29T15:02:35.999Z</time></trkpt><trkpt lat="45.767056717944854" lon="8.857106274343797"><ele>367.0</ele><time>2026-04-29T15:02:36.999Z</time></trkpt><trkpt lat="45.76694944209953" lon="8.857102846046914"><ele>367.0</ele><time>2026-04-29T15:02:37.999Z</time></trkpt><trkpt lat="45.76682274485281" lon="8.85708149673508"><ele>367.0</ele><time>2026-04-29T15:02:38.999Z</time></trkpt><trkpt lat="45.76671100542068" lon="8.857053331725076"><ele>366.8333333333333</ele><time>2026-04-29T15:02:39.999Z</time></trkpt><trkpt lat="45.76663130383602" lon="8.857011587920768"><ele>366.66666666666663</ele><time>2026-04-29T15:02:40.999Z</time></trkpt><trkpt lat="45.76655373001705" lon="8.856955131392631"><ele>366.5</ele><time>2026-04-29T15:02:41.999Z</time></trkpt><trkpt lat="45.76649592294658" lon="8.856905101366591"><ele>366.3333333333333</ele><time>2026-04-29T15:02:42.999Z</time></trkpt><trkpt lat="45.7664317269986" lon="8.856858137679586"><ele>366.1666666666667</ele><time>2026-04-29T15:02:43.999Z</time></trkpt><trkpt lat="45.76635723517869" lon="8.856735125177428"><ele>366.0</ele><time>2026-04-29T15:02:45.999Z</time></trkpt><trkpt lat="45.766346246976774" lon="8.856622626989632"><ele>366.0</ele><time>2026-04-29T15:02:46.999Z</time></trkpt><trkpt lat="45.76635424940056" lon="8.856468664368869"><ele>366.0</ele><time>2026-04-29T15:02:47.999Z</time></trkpt><trkpt lat="45.766369313609985" lon="8.856306420768776"><ele>366.0</ele><time>2026-04-29T15:02:48.999Z</time></trkpt><trkpt lat="45.76637426301504" lon="8.856155481091758"><ele>366.0</ele><time>2026-04-29T15:02:49.999Z</time></trkpt><trkpt lat="45.766377934098735" lon="8.855975401941718"><ele>365.6</ele><time>2026-04-29T15:02:50.999Z</time></trkpt><trkpt lat="45.766390843394724" lon="8.855811876055267"><ele>365.20000000000005</ele><time>2026-04-29T15:02:51.999Z</time></trkpt><trkpt lat="45.76640309388431" lon="8.855670795008441"><ele>364.79999999999995</ele><time>2026-04-29T15:02:52.999Z</time></trkpt><trkpt lat="45.766417530992655" lon="8.85553628998306"><ele>364.4</ele><time>2026-04-29T15:02:53.999Z</time></trkpt><trkpt lat="45.76643342710541" lon="8.855400744870565"><ele>364.0</ele><time>2026-04-29T15:02:55Z</time></trkpt><trkpt lat="45.76644414148461" lon="8.85527524786599"><ele>364.0</ele><time>2026-04-29T15:02:56Z</time></trkpt><trkpt lat="45.76645172531721" lon="8.855168641057388"><ele>364.0</ele><time>2026-04-29T15:02:57Z</time></trkpt><trkpt lat="45.766456620557236" lon="8.85507754936376"><ele>364.0</ele><time>2026-04-29T15:02:58Z</time></trkpt><trkpt lat="45.76645587440573" lon="8.85493936753188"><ele>364.0</ele><time>2026-04-29T15:03:00Z</time></trkpt><trkpt lat="45.76643790646888" lon="8.854849600242366"><ele>364.0</ele><time>2026-04-29T15:03:02Z</time></trkpt><trkpt lat="45.76650514082561" lon="8.85472526899363"><ele>364.0</ele><time>2026-04-29T15:03:04Z</time></trkpt><trkpt lat="45.766510027025085" lon="8.85461532967554"><ele>364.25</ele><time>2026-04-29T15:03:05Z</time></trkpt><trkpt lat="45.76651215067888" lon="8.85446837170377"><ele>364.5</ele><time>2026-04-29T15:03:06Z</time></trkpt><trkpt lat="45.76651259610994" lon="8.854293395904612"><ele>364.75</ele><time>2026-04-29T15:03:07Z</time></trkpt><trkpt lat="45.766525293058855" lon="8.854080819471942"><ele>365.0</ele><time>2026-04-29T15:03:08Z</time></trkpt><trkpt lat="45.76653970565834" lon="8.853831170453642"><ele>365.0</ele><time>2026-04-29T15:03:09Z</time></trkpt><trkpt lat="45.766529066444996" lon="8.853645080525313"><ele>365.0</ele><time>2026-04-29T15:03:10Z</time></trkpt><trkpt lat="45.76649330731568" lon="8.853485915189179"><ele>365.0</ele><time>2026-04-29T15:03:12Z</time></trkpt><trkpt lat="45.76644401582556" lon="8.853393498968654"><ele>365.0</ele><time>2026-04-29T15:03:13Z</time></trkpt><trkpt lat="45.76638643426681" lon="8.853310646138011"><ele>365.0</ele><time>2026-04-29T15:03:14Z</time></trkpt><trkpt lat="45.766295902997605" lon="8.853247838675339"><ele>366.8</ele><time>2026-04-29T15:03:15Z</time></trkpt><trkpt lat="45.76619909034215" lon="8.8531850463043"><ele>368.6</ele><time>2026-04-29T15:03:16Z</time></trkpt><trkpt lat="45.76611430017897" lon="8.853102369461144"><ele>370.4</ele><time>2026-04-29T15:03:17Z</time></trkpt><trkpt lat="45.76605642893628" lon="8.85301799710599"><ele>372.2</ele><time>2026-04-29T15:03:18Z</time></trkpt><trkpt lat="45.76600604689675" lon="8.852931321864379"><ele>374.0</ele><time>2026-04-29T15:03:19Z</time></trkpt><trkpt lat="45.765949109496276" lon="8.852817342590232"><ele>374.79999999999995</ele><time>2026-04-29T15:03:20Z</time></trkpt><trkpt lat="45.76588977732512" lon="8.85269066179449"><ele>375.59999999999997</ele><time>2026-04-29T15:03:21Z</time></trkpt><trkpt lat="45.76584166152466" lon="8.852564912888047"><ele>376.4</ele><time>2026-04-29T15:03:22Z</time></trkpt><trkpt lat="45.76579200168121" lon="8.852446513494435"><ele>377.2</ele><time>2026-04-29T15:03:23Z</time></trkpt><trkpt lat="45.765755730779254" lon="8.852369393699052"><ele>378.0</ele><time>2026-04-29T15:03:24Z</time></trkpt><trkpt lat="45.76567908347257" lon="8.852284585794328"><ele>381.2</ele><time>2026-04-29T15:03:25Z</time></trkpt><trkpt lat="45.76559253862262" lon="8.85218984099068"><ele>384.4</ele><time>2026-04-29T15:03:26Z</time></trkpt><trkpt lat="45.765502003526144" lon="8.852101764901834"><ele>387.59999999999997</ele><time>2026-04-29T15:03:27Z</time></trkpt><trkpt lat="45.765431390846196" lon="8.851991480821201"><ele>390.79999999999995</ele><time>2026-04-29T15:03:29Z</time></trkpt><trkpt lat="45.76537322939376" lon="8.851875457684647"><ele>394.0</ele><time>2026-04-29T15:03:31Z</time></trkpt><trkpt lat="45.76535313612614" lon="8.851769473416319"><ele>395.5</ele><time>2026-04-29T15:03:32Z</time></trkpt><trkpt lat="45.7653110356614" lon="8.851679386389382"><ele>397.0</ele><time>2026-04-29T15:03:34Z</time></trkpt><trkpt lat="45.765329805881365" lon="8.851570042218128"><ele>398.5</ele><time>2026-04-29T15:03:37Z</time></trkpt><trkpt lat="45.765321099550235" lon="8.85130278589621"><ele>400.0</ele><time>2026-04-29T15:03:38Z</time></trkpt><trkpt lat="45.76530888717683" lon="8.851576422345369"><ele>400.0</ele><time>2026-04-29T15:03:40Z</time></trkpt><trkpt lat="45.76532523968236" lon="8.851438389545073"><ele>400.0</ele><time>2026-04-29T15:03:41Z</time></trkpt><trkpt lat="45.76527670165679" lon="8.851195164445809"><ele>400.0</ele><time>2026-04-29T15:03:43Z</time></trkpt><trkpt lat="45.76515704523419" lon="8.851149416704038"><ele>400.0</ele><time>2026-04-29T15:03:44Z</time></trkpt><trkpt lat="45.76510608964473" lon="8.851058402148952"><ele>400.2</ele><time>2026-04-29T15:03:46Z</time></trkpt><trkpt lat="45.76506968093469" lon="8.850984156947657"><ele>400.4</ele><time>2026-04-29T15:03:47Z</time></trkpt><trkpt lat="45.7649885542251" lon="8.850827005548211"><ele>400.6</ele><time>2026-04-29T15:03:49Z</time></trkpt><trkpt lat="45.76500016890959" lon="8.850663850297604"><ele>400.8</ele><time>2026-04-29T15:03:50Z</time></trkpt><trkpt lat="45.76494124902151" lon="8.850536949826695"><ele>401.0</ele><time>2026-04-29T15:03:51Z</time></trkpt><trkpt lat="45.764844010382056" lon="8.850408277968315"><ele>402.8</ele><time>2026-04-29T15:03:52Z</time></trkpt><trkpt lat="45.76479520531714" lon="8.850328945677221"><ele>404.6</ele><time>2026-04-29T15:03:53Z</time></trkpt><trkpt lat="45.76469921420317" lon="8.850214837531295"><ele>406.4</ele><time>2026-04-29T15:03:55Z</time></trkpt><trkpt lat="45.76464689060491" lon="8.850113667607596"><ele>408.2</ele><time>2026-04-29T15:03:57Z</time></trkpt><trkpt lat="45.76460167503868" lon="8.850040058184375"><ele>410.0</ele><time>2026-04-29T15:03:58Z</time></trkpt><trkpt lat="45.76457890418317" lon="8.849901932141597"><ele>410.25</ele><time>2026-04-29T15:03:59.999Z</time></trkpt><trkpt lat="45.76454845381363" lon="8.849745140317449"><ele>410.5</ele><time>2026-04-29T15:04:01.999Z</time></trkpt><trkpt lat="45.76448132137239" lon="8.849406951626369"><ele>410.75</ele><time>2026-04-29T15:04:02.999Z</time></trkpt><trkpt lat="45.76444989428377" lon="8.849286685973112"><ele>411.0</ele><time>2026-04-29T15:04:03.999Z</time></trkpt><trkpt lat="45.764448160015625" lon="8.849088260589088"><ele>411.0</ele><time>2026-04-29T15:04:05.999Z</time></trkpt><trkpt lat="45.764380932502476" lon="8.8489420972792"><ele>411.0</ele><time>2026-04-29T15:04:07.999Z</time></trkpt><trkpt lat="45.7643633115964" lon="8.848815723616482"><ele>411.0</ele><time>2026-04-29T15:04:09.999Z</time></trkpt><trkpt lat="45.76433295735514" lon="8.848684915002083"><ele>411.0</ele><time>2026-04-29T15:04:11.999Z</time></trkpt><trkpt lat="45.764304218574445" lon="8.84855950664086"><ele>411.0</ele><time>2026-04-29T15:04:13.999Z</time></trkpt><trkpt lat="45.764313723708774" lon="8.848450648124144"><ele>411.8</ele><time>2026-04-29T15:04:16.999Z</time></trkpt><trkpt lat="45.76429159757917" lon="8.848326719909071"><ele>412.6</ele><time>2026-04-29T15:04:18.999Z</time></trkpt><trkpt lat="45.76427189213753" lon="8.848233675332871"><ele>413.4</ele><time>2026-04-29T15:04:22.999Z</time></trkpt><trkpt lat="45.76425163253328" lon="8.848146080810881"><ele>414.2</ele><time>2026-04-29T15:04:31.999Z</time></trkpt><trkpt lat="45.76416400856205" lon="8.84815659397275"><ele>415.0</ele><time>2026-04-29T15:04:34.999Z</time></trkpt><trkpt lat="45.763869904500375" lon="8.847895778396094"><ele>415.0</ele><time>2026-04-29T15:04:38.999Z</time></trkpt><trkpt lat="45.763741869816414" lon="8.847889180768517"><ele>415.0</ele><time>2026-04-29T15:04:40.999Z</time></trkpt><trkpt lat="45.76367027649023" lon="8.847882373814528"><ele>415.0</ele><time>2026-04-29T15:04:41.999Z</time></trkpt><trkpt lat="45.76353517536534" lon="8.847911839828704"><ele>415.0</ele><time>2026-04-29T15:04:43.999Z</time></trkpt><trkpt lat="45.76343322564903" lon="8.847839953569228"><ele>414.6666666666667</ele><time>2026-04-29T15:04:46.999Z</time></trkpt><trkpt lat="45.763356523245264" lon="8.847695024254614"><ele>414.33333333333337</ele><time>2026-04-29T15:04:48.999Z</time></trkpt><trkpt lat="45.76329799232302" lon="8.8476336748044"><ele>414.0</ele><time>2026-04-29T15:04:50.999Z</time></trkpt><trkpt lat="45.763255122097036" lon="8.847550904295183"><ele>413.66666666666663</ele><time>2026-04-29T15:04:52.999Z</time></trkpt><trkpt lat="45.763194491558785" lon="8.847519672127008"><ele>413.3333333333333</ele><time>2026-04-29T15:04:56.999Z</time></trkpt><trkpt lat="45.763109525063854" lon="8.847493399104124"><ele>413.0</ele><time>2026-04-29T15:04:58.999Z</time></trkpt><trkpt lat="45.76300216278851" lon="8.847448033287225"><ele>412.66666666666663</ele><time>2026-04-29T15:05:01Z</time></trkpt><trkpt lat="45.76292057087035" lon="8.847474712386747"><ele>412.3333333333333</ele><time>2026-04-29T15:05:02Z</time></trkpt><trkpt lat="45.762844610761015" lon="8.847435864040206"><ele>412.0</ele><time>2026-04-29T15:05:04Z</time></trkpt><trkpt lat="45.762810365393634" lon="8.847351090910108"><ele>411.66666666666663</ele><time>2026-04-29T15:05:07Z</time></trkpt><trkpt lat="45.7627244717252" lon="8.847351359603177"><ele>411.3333333333333</ele><time>2026-04-29T15:05:10Z</time></trkpt><trkpt lat="45.76264639877976" lon="8.847328721869355"><ele>411.0</ele><time>2026-04-29T15:05:13Z</time></trkpt><trkpt lat="45.76256161899226" lon="8.847316541161122"><ele>410.0</ele><time>2026-04-29T15:05:26Z</time></trkpt><trkpt lat="45.762481117366946" lon="8.847284938476292"><ele>409.0</ele><time>2026-04-29T15:05:30Z</time></trkpt><trkpt lat="45.76239740192734" lon="8.847289867599999"><ele>408.0</ele><time>2026-04-29T15:05:33Z</time></trkpt><trkpt lat="45.762332905458244" lon="8.847293131570531"><ele>407.0</ele><time>2026-04-29T15:05:34Z</time></trkpt><trkpt lat="45.76222048350409" lon="8.847277497632357"><ele>406.0</ele><time>2026-04-29T15:05:36Z</time></trkpt><trkpt lat="45.76212576788404" lon="8.847284320288097"><ele>405.0</ele><time>2026-04-29T15:05:37Z</time></trkpt><trkpt lat="45.76204419207307" lon="8.847316650648777"><ele>405.0</ele><time>2026-04-29T15:05:41Z</time></trkpt><trkpt lat="45.76197576254552" lon="8.847289637114248"><ele>405.0</ele><time>2026-04-29T15:05:43Z</time></trkpt><trkpt lat="45.76189424135119" lon="8.847312129976924"><ele>405.0</ele><time>2026-04-29T15:05:46Z</time></trkpt><trkpt lat="45.761821815431894" lon="8.84729741881174"><ele>405.0</ele><time>2026-04-29T15:05:51Z</time></trkpt><trkpt lat="45.76170707970663" lon="8.847309876209879"><ele>405.0</ele><time>2026-04-29T15:05:52Z</time></trkpt><trkpt lat="45.76158284439516" lon="8.847352116136975"><ele>403.4</ele><time>2026-04-29T15:05:54Z</time></trkpt><trkpt lat="45.761481941933916" lon="8.847374631827945"><ele>401.8</ele><time>2026-04-29T15:05:55Z</time></trkpt><trkpt lat="45.7613949846608" lon="8.847398863745598"><ele>400.20000000000005</ele><time>2026-04-29T15:05:56Z</time></trkpt><trkpt lat="45.76130602191124" lon="8.847427389126109"><ele>398.6</ele><time>2026-04-29T15:05:57Z</time></trkpt><trkpt lat="45.761228819799854" lon="8.847465687566924"><ele>397.0</ele><time>2026-04-29T15:05:58Z</time></trkpt><trkpt lat="45.76130861250188" lon="8.847418152090277"><ele>397.0</ele><time>2026-04-29T15:05:59Z</time></trkpt><trkpt lat="45.76123952645218" lon="8.847430444215979"><ele>397.0</ele><time>2026-04-29T15:06:00Z</time></trkpt><trkpt lat="45.76115517624742" lon="8.847456395932921"><ele>397.0</ele><time>2026-04-29T15:06:01Z</time></trkpt><trkpt lat="45.761062556417805" lon="8.847508902002572"><ele>397.0</ele><time>2026-04-29T15:06:02Z</time></trkpt><trkpt lat="45.76090325741698" lon="8.847597340689951"><ele>397.0</ele><time>2026-04-29T15:06:03Z</time></trkpt><trkpt lat="45.760832560410755" lon="8.847644508594627"><ele>396.20000000000005</ele><time>2026-04-29T15:06:03.999Z</time></trkpt><trkpt lat="45.760733555698764" lon="8.847702435317478"><ele>395.4</ele><time>2026-04-29T15:06:05.999Z</time></trkpt><trkpt lat="45.760616622739704" lon="8.847795121759319"><ele>394.6</ele><time>2026-04-29T15:06:07.999Z</time></trkpt><trkpt lat="45.760557673815676" lon="8.847846198884355"><ele>393.79999999999995</ele><time>2026-04-29T15:06:08.999Z</time></trkpt><trkpt lat="45.76047174760565" lon="8.847895450691006"><ele>393.0</ele><time>2026-04-29T15:06:10.999Z</time></trkpt><trkpt lat="45.7604113644101" lon="8.84792729541653"><ele>393.0</ele><time>2026-04-29T15:06:11.999Z</time></trkpt><trkpt lat="45.76034871074762" lon="8.847949572860403"><ele>393.0</ele><time>2026-04-29T15:06:12.999Z</time></trkpt><trkpt lat="45.76027372140083" lon="8.847959870434904"><ele>393.0</ele><time>2026-04-29T15:06:13.999Z</time></trkpt><trkpt lat="45.760158728800846" lon="8.847979054938884"><ele>393.0</ele><time>2026-04-29T15:06:15.999Z</time></trkpt><trkpt lat="45.760067398270195" lon="8.848084020256508"><ele>393.0</ele><time>2026-04-29T15:06:17.999Z</time></trkpt><trkpt lat="45.760002425500794" lon="8.848086467836918"><ele>393.0</ele><time>2026-04-29T15:06:19.999Z</time></trkpt><trkpt lat="45.75994214341614" lon="8.848117604266706"><ele>393.0</ele><time>2026-04-29T15:06:23.999Z</time></trkpt><trkpt lat="45.75986431697846" lon="8.848160347356485"><ele>393.0</ele><time>2026-04-29T15:06:25.999Z</time></trkpt><trkpt lat="45.75982595918353" lon="8.848241623557405"><ele>393.0</ele><time>2026-04-29T15:06:27.999Z</time></trkpt><trkpt lat="45.75986772715794" lon="8.84815042951777"><ele>393.0</ele><time>2026-04-29T15:06:31.999Z</time></trkpt><trkpt lat="45.759895934887865" lon="8.848000129939928"><ele>393.0</ele><time>2026-04-29T15:06:32.999Z</time></trkpt><trkpt lat="45.75949121794478" lon="8.84781161209284"><ele>393.0</ele><time>2026-04-29T15:06:33.999Z</time></trkpt><trkpt lat="45.75940551108304" lon="8.847802976334481"><ele>393.0</ele><time>2026-04-29T15:06:34.999Z</time></trkpt><trkpt lat="45.759304343359794" lon="8.847791963048817"><ele>393.0</ele><time>2026-04-29T15:06:35.999Z</time></trkpt><trkpt lat="45.75918493254071" lon="8.847773484412922"><ele>393.0</ele><time>2026-04-29T15:06:36.999Z</time></trkpt><trkpt lat="45.759066863616695" lon="8.84776914498169"><ele>393.0</ele><time>2026-04-29T15:06:37.999Z</time></trkpt><trkpt lat="45.758961393985906" lon="8.847759984564691"><ele>393.0</ele><time>2026-04-29T15:06:38.999Z</time></trkpt><trkpt lat="45.7588579415216" lon="8.847749872632189"><ele>393.0</ele><time>2026-04-29T15:06:39.999Z</time></trkpt><trkpt lat="45.7587874630323" lon="8.847732087456952"><ele>393.0</ele><time>2026-04-29T15:06:40.999Z</time></trkpt><trkpt lat="45.75869172349289" lon="8.847723678227474"><ele>393.0</ele><time>2026-04-29T15:06:42.999Z</time></trkpt><trkpt lat="45.75862520268824" lon="8.847722555628257"><ele>393.0</ele><time>2026-04-29T15:06:43.999Z</time></trkpt><trkpt lat="45.758554354880594" lon="8.84773382339241"><ele>393.0</ele><time>2026-04-29T15:06:44.999Z</time></trkpt><trkpt lat="45.75848306779485" lon="8.84773420444902"><ele>392.25</ele><time>2026-04-29T15:06:46.999Z</time></trkpt><trkpt lat="45.75841337189074" lon="8.847717170728973"><ele>391.5</ele><time>2026-04-29T15:06:50.999Z</time></trkpt><trkpt lat="45.75846116439079" lon="8.847440538368888"><ele>390.75</ele><time>2026-04-29T15:07:00.999Z</time></trkpt><trkpt lat="45.758544086869" lon="8.847294986453003"><ele>390.0</ele><time>2026-04-29T15:07:01.999Z</time></trkpt><trkpt lat="45.75865586311398" lon="8.847160358715218"><ele>391.2</ele><time>2026-04-29T15:07:02.999Z</time></trkpt><trkpt lat="45.75873500420554" lon="8.847064900779792"><ele>392.4</ele><time>2026-04-29T15:07:03.999Z</time></trkpt><trkpt lat="45.75873178590366" lon="8.847187594420477"><ele>393.6</ele><time>2026-04-29T15:07:04.999Z</time></trkpt><trkpt lat="45.75880892074137" lon="8.847079448627879"><ele>394.8</ele><time>2026-04-29T15:07:05.999Z</time></trkpt><trkpt lat="45.758878214447094" lon="8.846981908174154"><ele>396.0</ele><time>2026-04-29T15:07:07Z</time></trkpt><trkpt lat="45.75892171517148" lon="8.846909283924832"><ele>396.0</ele><time>2026-04-29T15:07:08Z</time></trkpt><trkpt lat="45.758975103669115" lon="8.846811101481755"><ele>396.0</ele><time>2026-04-29T15:07:09Z</time></trkpt><trkpt lat="45.75902497514778" lon="8.84674014081262"><ele>396.0</ele><time>2026-04-29T15:07:10Z</time></trkpt><trkpt lat="45.75907630945294" lon="8.846674927380002"><ele>396.0</ele><time>2026-04-29T15:07:11Z</time></trkpt><trkpt lat="45.759153811961674" lon="8.846620718846507"><ele>396.0</ele><time>2026-04-29T15:07:13Z</time></trkpt><trkpt lat="45.75923711393247" lon="8.8465685483326"><ele>396.0</ele><time>2026-04-29T15:07:15Z</time></trkpt><trkpt lat="45.75931266565154" lon="8.84653025200761"><ele>395.25</ele><time>2026-04-29T15:07:17Z</time></trkpt><trkpt lat="45.759392110395616" lon="8.846431948347911"><ele>394.5</ele><time>2026-04-29T15:07:19Z</time></trkpt><trkpt lat="45.759387490862395" lon="8.84618411917713"><ele>393.75</ele><time>2026-04-29T15:07:21Z</time></trkpt><trkpt lat="45.75939447270284" lon="8.84598583864182"><ele>393.0</ele><time>2026-04-29T15:07:23Z</time></trkpt><trkpt lat="45.75940300970539" lon="8.845847404066474"><ele>392.59999999999997</ele><time>2026-04-29T15:07:24Z</time></trkpt><trkpt lat="45.759425726606864" lon="8.84575245691132"><ele>392.2</ele><time>2026-04-29T15:07:25Z</time></trkpt><trkpt lat="45.75948389685135" lon="8.845577655525275"><ele>391.8</ele><time>2026-04-29T15:07:27Z</time></trkpt><trkpt lat="45.759505846078156" lon="8.845408441457558"><ele>391.4</ele><time>2026-04-29T15:07:29Z</time></trkpt><trkpt lat="45.75947458101743" lon="8.84526725223249"><ele>391.0</ele><time>2026-04-29T15:07:31Z</time></trkpt><trkpt lat="45.759408377949725" lon="8.84516750268615"><ele>390.4</ele><time>2026-04-29T15:07:33Z</time></trkpt><trkpt lat="45.75935430485364" lon="8.84509361547615"><ele>389.8</ele><time>2026-04-29T15:07:38Z</time></trkpt><trkpt lat="45.759418239849076" lon="8.84502708719396"><ele>389.2</ele><time>2026-04-29T15:07:45Z</time></trkpt><trkpt lat="45.75948761625651" lon="8.844863564431467"><ele>388.59999999999997</ele><time>2026-04-29T15:07:48Z</time></trkpt><trkpt lat="45.759531604723556" lon="8.844700607120377"><ele>388.0</ele><time>2026-04-29T15:07:50Z</time></trkpt><trkpt lat="45.75960003532297" lon="8.84462326656702"><ele>388.0</ele><time>2026-04-29T15:07:52Z</time></trkpt><trkpt lat="45.75964272777684" lon="8.844544212764479"><ele>388.0</ele><time>2026-04-29T15:07:53Z</time></trkpt><trkpt lat="45.75970778482373" lon="8.844432189347552"><ele>388.0</ele><time>2026-04-29T15:07:54Z</time></trkpt><trkpt lat="45.75978094373215" lon="8.844343260410433"><ele>388.0</ele><time>2026-04-29T15:07:55Z</time></trkpt><trkpt lat="45.7598733123349" lon="8.844216844673468"><ele>388.0</ele><time>2026-04-29T15:07:56Z</time></trkpt><trkpt lat="45.759926544622076" lon="8.844132026782576"><ele>389.25</ele><time>2026-04-29T15:07:57Z</time></trkpt><trkpt lat="45.76003235743624" lon="8.843979971665568"><ele>390.5</ele><time>2026-04-29T15:07:59Z</time></trkpt><trkpt lat="45.759918097944926" lon="8.844153389486339"><ele>391.75</ele><time>2026-04-29T15:08:00Z</time></trkpt><trkpt lat="45.76003834991044" lon="8.844088276505412"><ele>393.0</ele><time>2026-04-29T15:08:02Z</time></trkpt><trkpt lat="45.760132290322474" lon="8.844032689747133"><ele>393.4</ele><time>2026-04-29T15:08:03Z</time></trkpt><trkpt lat="45.76023419475856" lon="8.843956650907806"><ele>393.79999999999995</ele><time>2026-04-29T15:08:04Z</time></trkpt><trkpt lat="45.76033097052321" lon="8.843833569613327"><ele>394.2</ele><time>2026-04-29T15:08:05.999Z</time></trkpt><trkpt lat="45.76040052804886" lon="8.843757357612445"><ele>394.6</ele><time>2026-04-29T15:08:06.999Z</time></trkpt><trkpt lat="45.760464249251" lon="8.843707181290036"><ele>395.0</ele><time>2026-04-29T15:08:07.999Z</time></trkpt><trkpt lat="45.760525522234396" lon="8.843654079427841"><ele>395.0</ele><time>2026-04-29T15:08:08.999Z</time></trkpt><trkpt lat="45.760598012530686" lon="8.843620366069661"><ele>395.0</ele><time>2026-04-29T15:08:09.999Z</time></trkpt><trkpt lat="45.76066661703673" lon="8.843567916388057"><ele>395.0</ele><time>2026-04-29T15:08:10.999Z</time></trkpt><trkpt lat="45.76079896378592" lon="8.843502957051799"><ele>395.0</ele><time>2026-04-29T15:08:12.999Z</time></trkpt><trkpt lat="45.76088826083242" lon="8.843456627289417"><ele>395.0</ele><time>2026-04-29T15:08:13.999Z</time></trkpt><trkpt lat="45.760968270613965" lon="8.843413612829773"><ele>395.0</ele><time>2026-04-29T15:08:14.999Z</time></trkpt><trkpt lat="45.761037394536494" lon="8.843395069847148"><ele>395.0</ele><time>2026-04-29T15:08:15.999Z</time></trkpt><trkpt lat="45.76111799907082" lon="8.843331299601145"><ele>395.0</ele><time>2026-04-29T15:08:16.999Z</time></trkpt><trkpt lat="45.761233626394144" lon="8.843240836359724"><ele>395.0</ele><time>2026-04-29T15:08:17.999Z</time></trkpt><trkpt lat="45.76135525973865" lon="8.843147689420586"><ele>395.0</ele><time>2026-04-29T15:08:18.999Z</time></trkpt><trkpt lat="45.7614639626079" lon="8.843052646858053"><ele>395.0</ele><time>2026-04-29T15:08:19.999Z</time></trkpt><trkpt lat="45.76155488026814" lon="8.842959986785457"><ele>395.0</ele><time>2026-04-29T15:08:20.999Z</time></trkpt><trkpt lat="45.76166538061336" lon="8.842849179802691"><ele>395.0</ele><time>2026-04-29T15:08:21.999Z</time></trkpt><trkpt lat="45.761833304699685" lon="8.84270382443477"><ele>395.0</ele><time>2026-04-29T15:08:22.999Z</time></trkpt><trkpt lat="45.76199226446593" lon="8.842548550478867"><ele>396.0</ele><time>2026-04-29T15:08:23.999Z</time></trkpt><trkpt lat="45.76212891578534" lon="8.842422752497644"><ele>397.0</ele><time>2026-04-29T15:08:24.999Z</time></trkpt><trkpt lat="45.7622275053338" lon="8.842332741638945"><ele>398.0</ele><time>2026-04-29T15:08:25.999Z</time></trkpt><trkpt lat="45.76231647370537" lon="8.842259697513775"><ele>399.0</ele><time>2026-04-29T15:08:26.999Z</time></trkpt><trkpt lat="45.76240070207683" lon="8.842213471601415"><ele>399.0</ele><time>2026-04-29T15:08:27.999Z</time></trkpt><trkpt lat="45.76248380437954" lon="8.842143081507018"><ele>399.0</ele><time>2026-04-29T15:08:28.999Z</time></trkpt><trkpt lat="45.762561889024106" lon="8.84206473582917"><ele>399.0</ele><time>2026-04-29T15:08:29.999Z</time></trkpt><trkpt lat="45.76266665506873" lon="8.841941671091295"><ele>399.0</ele><time>2026-04-29T15:08:30.999Z</time></trkpt><trkpt lat="45.7627738884625" lon="8.841790942334747"><ele>399.75</ele><time>2026-04-29T15:08:31.999Z</time></trkpt><trkpt lat="45.76286289882118" lon="8.841631568380189"><ele>400.5</ele><time>2026-04-29T15:08:32.999Z</time></trkpt><trkpt lat="45.76295502216233" lon="8.841479476175152"><ele>401.25</ele><time>2026-04-29T15:08:33.999Z</time></trkpt><trkpt lat="45.76303322165719" lon="8.841369596943208"><ele>402.0</ele><time>2026-04-29T15:08:34.999Z</time></trkpt><trkpt lat="45.76311008702685" lon="8.841293933941943"><ele>402.0</ele><time>2026-04-29T15:08:35.999Z</time></trkpt><trkpt lat="45.76318077382425" lon="8.841207059519492"><ele>402.0</ele><time>2026-04-29T15:08:36.999Z</time></trkpt><trkpt lat="45.763237134002196" lon="8.84113620993195"><ele>402.0</ele><time>2026-04-29T15:08:37.999Z</time></trkpt><trkpt lat="45.763295818498555" lon="8.841060834082944"><ele>402.0</ele><time>2026-04-29T15:08:39.999Z</time></trkpt><trkpt lat="45.76333334094443" lon="8.84095772715301"><ele>402.0</ele><time>2026-04-29T15:08:41.999Z</time></trkpt><trkpt lat="45.76343587086474" lon="8.84106229180262"><ele>402.0</ele><time>2026-04-29T15:08:45.999Z</time></trkpt><trkpt lat="45.76349931042977" lon="8.841121965425256"><ele>402.0</ele><time>2026-04-29T15:08:46.999Z</time></trkpt><trkpt lat="45.763548939464975" lon="8.841186174874924"><ele>402.0</ele><time>2026-04-29T15:08:47.999Z</time></trkpt><trkpt lat="45.76363368712534" lon="8.841293580707962"><ele>402.0</ele><time>2026-04-29T15:08:48.999Z</time></trkpt><trkpt lat="45.763688824604145" lon="8.841364819572135"><ele>402.0</ele><time>2026-04-29T15:08:49.999Z</time></trkpt><trkpt lat="45.763788547650854" lon="8.84149366478338"><ele>402.25</ele><time>2026-04-29T15:08:51.999Z</time></trkpt><trkpt lat="45.7639875400247" lon="8.841645178861464"><ele>402.5</ele><time>2026-04-29T15:08:52.999Z</time></trkpt><trkpt lat="45.76409645986462" lon="8.841612565278645"><ele>402.75</ele><time>2026-04-29T15:08:53.999Z</time></trkpt><trkpt lat="45.76416815466807" lon="8.841589369578545"><ele>403.0</ele><time>2026-04-29T15:08:54.999Z</time></trkpt><trkpt lat="45.76424328929407" lon="8.841573158834388"><ele>403.0</ele><time>2026-04-29T15:08:55.999Z</time></trkpt><trkpt lat="45.76433279053306" lon="8.841536102446172"><ele>403.0</ele><time>2026-04-29T15:08:57.999Z</time></trkpt><trkpt lat="45.76440001378875" lon="8.841526322472896"><ele>403.0</ele><time>2026-04-29T15:08:58.999Z</time></trkpt><trkpt lat="45.76445735762038" lon="8.84145609903246"><ele>403.0</ele><time>2026-04-29T15:08:59.999Z</time></trkpt><trkpt lat="45.76452212665694" lon="8.841448009391321"><ele>403.0</ele><time>2026-04-29T15:09:00.999Z</time></trkpt><trkpt lat="45.764587815586026" lon="8.841479710721622"><ele>403.0</ele><time>2026-04-29T15:09:01.999Z</time></trkpt><trkpt lat="45.7646484799241" lon="8.84154419983206"><ele>403.0</ele><time>2026-04-29T15:09:02.999Z</time></trkpt><trkpt lat="45.76471851613893" lon="8.841615201088244"><ele>403.00000000000006</ele><time>2026-04-29T15:09:03.999Z</time></trkpt><trkpt lat="45.7647918999366" lon="8.84167689455894"><ele>403.0</ele><time>2026-04-29T15:09:04.999Z</time></trkpt><trkpt lat="45.76486967807231" lon="8.841735211667132"><ele>403.0</ele><time>2026-04-29T15:09:05.999Z</time></trkpt><trkpt lat="45.76493642730825" lon="8.841787378477159"><ele>403.0</ele><time>2026-04-29T15:09:06.999Z</time></trkpt><trkpt lat="45.76500279292132" lon="8.841832907461542"><ele>403.00000000000006</ele><time>2026-04-29T15:09:07.999Z</time></trkpt><trkpt lat="45.76508888795796" lon="8.841892831663944"><ele>403.0</ele><time>2026-04-29T15:09:09.999Z</time></trkpt><trkpt lat="45.76497482895465" lon="8.841808269318303"><ele>403.0</ele><time>2026-04-29T15:09:17Z</time></trkpt><trkpt lat="45.76489178985135" lon="8.841753564721369"><ele>403.0</ele><time>2026-04-29T15:09:18Z</time></trkpt><trkpt lat="45.76480036198935" lon="8.841678911839862"><ele>403.0</ele><time>2026-04-29T15:09:19Z</time></trkpt><trkpt lat="45.76469520745078" lon="8.841602668584706"><ele>403.0</ele><time>2026-04-29T15:09:20Z</time></trkpt><trkpt lat="45.76460794364583" lon="8.841530977095514"><ele>403.0</ele><time>2026-04-29T15:09:21Z</time></trkpt><trkpt lat="45.76453569310996" lon="8.84148089676607"><ele>403.00000000000006</ele><time>2026-04-29T15:09:22Z</time></trkpt><trkpt lat="45.7644731736655" lon="8.841454625581623"><ele>403.0</ele><time>2026-04-29T15:09:23Z</time></trkpt><trkpt lat="45.76435060247646" lon="8.841539587063313"><ele>403.0</ele><time>2026-04-29T15:09:25Z</time></trkpt><trkpt lat="45.7642887248464" lon="8.841609412603013"><ele>403.0</ele><time>2026-04-29T15:09:26Z</time></trkpt><trkpt lat="45.76421769331814" lon="8.841613613211496"><ele>403.00000000000006</ele><time>2026-04-29T15:09:27Z</time></trkpt><trkpt lat="45.76414871671512" lon="8.841574682722356"><ele>403.0</ele><time>2026-04-29T15:09:28Z</time></trkpt><trkpt lat="45.76408069525688" lon="8.841537649092764"><ele>403.00000000000006</ele><time>2026-04-29T15:09:29Z</time></trkpt><trkpt lat="45.764019217675816" lon="8.841602384433818"><ele>403.0</ele><time>2026-04-29T15:09:30Z</time></trkpt><trkpt lat="45.76390921040679" lon="8.841607526330584"><ele>403.0</ele><time>2026-04-29T15:09:32Z</time></trkpt><trkpt lat="45.763852816717296" lon="8.841534915141983"><ele>403.0</ele><time>2026-04-29T15:09:33Z</time></trkpt><trkpt lat="45.76380031312398" lon="8.841437357011577"><ele>403.00000000000006</ele><time>2026-04-29T15:09:34Z</time></trkpt><trkpt lat="45.76372848301854" lon="8.841340313853058"><ele>403.0</ele><time>2026-04-29T15:09:35Z</time></trkpt><trkpt lat="45.763647836134886" lon="8.841237346715317"><ele>403.00000000000006</ele><time>2026-04-29T15:09:36Z</time></trkpt><trkpt lat="45.76357999977541" lon="8.841151296944604"><ele>403.0</ele><time>2026-04-29T15:09:37Z</time></trkpt><trkpt lat="45.763511317194734" lon="8.841098185760794"><ele>403.0</ele><time>2026-04-29T15:09:38Z</time></trkpt><trkpt lat="45.76345936434419" lon="8.841046413109225"><ele>403.0</ele><time>2026-04-29T15:09:39Z</time></trkpt><trkpt lat="45.76337746665579" lon="8.840978705478676"><ele>403.00000000000006</ele><time>2026-04-29T15:09:41Z</time></trkpt><trkpt lat="45.763305502565416" lon="8.840909347955769"><ele>403.0</ele><time>2026-04-29T15:09:45Z</time></trkpt><trkpt lat="45.76320292439317" lon="8.841058684390132"><ele>402.75</ele><time>2026-04-29T15:09:46Z</time></trkpt><trkpt lat="45.76315455361876" lon="8.841145183631104"><ele>402.5</ele><time>2026-04-29T15:09:47Z</time></trkpt><trkpt lat="45.763059001741254" lon="8.841262617535186"><ele>402.25</ele><time>2026-04-29T15:09:48Z</time></trkpt><trkpt lat="45.762950648434" lon="8.84140742374094"><ele>402.0</ele><time>2026-04-29T15:09:49Z</time></trkpt><trkpt lat="45.76286832801416" lon="8.841526402000406"><ele>402.0</ele><time>2026-04-29T15:09:50Z</time></trkpt><trkpt lat="45.7627913459052" lon="8.841639542172626"><ele>402.0</ele><time>2026-04-29T15:09:51Z</time></trkpt><trkpt lat="45.762701317503954" lon="8.84174765298719"><ele>402.0</ele><time>2026-04-29T15:09:52Z</time></trkpt><trkpt lat="45.76284067129323" lon="8.841600953732563"><ele>402.0</ele><time>2026-04-29T15:09:53Z</time></trkpt><trkpt lat="45.76274773350556" lon="8.841737776798084"><ele>401.25</ele><time>2026-04-29T15:09:54Z</time></trkpt><trkpt lat="45.76265663230059" lon="8.8418703230203"><ele>400.5</ele><time>2026-04-29T15:09:55Z</time></trkpt><trkpt lat="45.7625610388682" lon="8.84200279021874"><ele>399.75</ele><time>2026-04-29T15:09:56Z</time></trkpt><trkpt lat="45.76250778258509" lon="8.842070652857748"><ele>399.0</ele><time>2026-04-29T15:09:57Z</time></trkpt><trkpt lat="45.762374659727016" lon="8.842176842400455"><ele>399.0</ele><time>2026-04-29T15:09:58Z</time></trkpt><trkpt lat="45.7622510761943" lon="8.842316514843882"><ele>399.0</ele><time>2026-04-29T15:09:59Z</time></trkpt><trkpt lat="45.76211455055333" lon="8.842383380807577"><ele>399.0</ele><time>2026-04-29T15:10:00Z</time></trkpt><trkpt lat="45.762000993948234" lon="8.842439144134447"><ele>399.0</ele><time>2026-04-29T15:10:01Z</time></trkpt><trkpt lat="45.76191502164008" lon="8.842481106051826"><ele>398.5</ele><time>2026-04-29T15:10:02Z</time></trkpt><trkpt lat="45.76183155857817" lon="8.84252198457882"><ele>398.0</ele><time>2026-04-29T15:10:03Z</time></trkpt><trkpt lat="45.761771123220605" lon="8.842638353625611"><ele>397.5</ele><time>2026-04-29T15:10:04Z</time></trkpt><trkpt lat="45.76171429449314" lon="8.842695895209237"><ele>397.0</ele><time>2026-04-29T15:10:05Z</time></trkpt><trkpt lat="45.76165482464405" lon="8.842756766252315"><ele>396.5</ele><time>2026-04-29T15:10:06Z</time></trkpt><trkpt lat="45.76159896132846" lon="8.842813505726074"><ele>396.0</ele><time>2026-04-29T15:10:07Z</time></trkpt><trkpt lat="45.761533738207625" lon="8.842858434488571"><ele>395.8333333333333</ele><time>2026-04-29T15:10:08Z</time></trkpt><trkpt lat="45.761473527727404" lon="8.84289231223329"><ele>395.66666666666663</ele><time>2026-04-29T15:10:09Z</time></trkpt><trkpt lat="45.76140955815308" lon="8.842929798706853"><ele>395.5</ele><time>2026-04-29T15:10:10Z</time></trkpt><trkpt lat="45.76129289095183" lon="8.842985210024464"><ele>395.3333333333333</ele><time>2026-04-29T15:10:12Z</time></trkpt><trkpt lat="45.76121554243882" lon="8.843008736852381"><ele>395.16666666666663</ele><time>2026-04-29T15:10:13Z</time></trkpt><trkpt lat="45.76115502393929" lon="8.843061095202987"><ele>395.0</ele><time>2026-04-29T15:10:14Z</time></trkpt><trkpt lat="45.761091572032086" lon="8.843107052753512"><ele>395.0</ele><time>2026-04-29T15:10:14.999Z</time></trkpt><trkpt lat="45.760960309460714" lon="8.843174669012702"><ele>395.0</ele><time>2026-04-29T15:10:16.999Z</time></trkpt><trkpt lat="45.76089262664025" lon="8.843210414345068"><ele>395.0</ele><time>2026-04-29T15:10:17.999Z</time></trkpt><trkpt lat="45.76076150201945" lon="8.843283022938806"><ele>395.0</ele><time>2026-04-29T15:10:19.999Z</time></trkpt><trkpt lat="45.760677504628006" lon="8.843337387264892"><ele>395.0</ele><time>2026-04-29T15:10:20.999Z</time></trkpt><trkpt lat="45.76059759281492" lon="8.843379944390561"><ele>395.0</ele><time>2026-04-29T15:10:21.999Z</time></trkpt><trkpt lat="45.76051704838546" lon="8.843436697748395"><ele>395.0</ele><time>2026-04-29T15:10:22.999Z</time></trkpt><trkpt lat="45.7604380952987" lon="8.843499864838442"><ele>395.0</ele><time>2026-04-29T15:10:23.999Z</time></trkpt><trkpt lat="45.76034874450921" lon="8.843580972392953"><ele>395.0</ele><time>2026-04-29T15:10:24.999Z</time></trkpt><trkpt lat="45.76024503236763" lon="8.843616990352638"><ele>395.0</ele><time>2026-04-29T15:10:26.999Z</time></trkpt><trkpt lat="45.76017002109683" lon="8.843708119785141"><ele>394.66666666666663</ele><time>2026-04-29T15:10:27.999Z</time></trkpt><trkpt lat="45.76007716581543" lon="8.843812547347062"><ele>394.3333333333333</ele><time>2026-04-29T15:10:28.999Z</time></trkpt><trkpt lat="45.75999716717099" lon="8.843893225361068"><ele>394.0</ele><time>2026-04-29T15:10:29.999Z</time></trkpt><trkpt lat="45.75995283471411" lon="8.843967486059354"><ele>393.66666666666663</ele><time>2026-04-29T15:10:30.999Z</time></trkpt><trkpt lat="45.75991799105879" lon="8.844054480129802"><ele>393.3333333333333</ele><time>2026-04-29T15:10:31.999Z</time></trkpt><trkpt lat="45.7598590724641" lon="8.84413286065694"><ele>393.0</ele><time>2026-04-29T15:10:32.999Z</time></trkpt><trkpt lat="45.75978832696072" lon="8.8442605419225"><ele>392.0</ele><time>2026-04-29T15:10:34.999Z</time></trkpt><trkpt lat="45.75972835713632" lon="8.844355894767864"><ele>391.0</ele><time>2026-04-29T15:10:36.999Z</time></trkpt><trkpt lat="45.7596578844508" lon="8.844454669942468"><ele>390.0</ele><time>2026-04-29T15:10:38.999Z</time></trkpt><trkpt lat="45.75958790809717" lon="8.844577468770469"><ele>389.0</ele><time>2026-04-29T15:10:40.999Z</time></trkpt><trkpt lat="45.75950217593593" lon="8.844644911724354"><ele>388.0</ele><time>2026-04-29T15:10:42.999Z</time></trkpt><trkpt lat="45.75945476467637" lon="8.84476571865259"><ele>388.00000000000006</ele><time>2026-04-29T15:10:44.999Z</time></trkpt><trkpt lat="45.7594145595077" lon="8.844839403210026"><ele>388.0</ele><time>2026-04-29T15:10:45.999Z</time></trkpt><trkpt lat="45.75940881470018" lon="8.844951979151256"><ele>388.0</ele><time>2026-04-29T15:10:51.999Z</time></trkpt><trkpt lat="45.75943164779492" lon="8.845065261644375"><ele>388.0</ele><time>2026-04-29T15:10:53.999Z</time></trkpt><trkpt lat="45.7593717622359" lon="8.845133106727298"><ele>388.00000000000006</ele><time>2026-04-29T15:10:54.999Z</time></trkpt><trkpt lat="45.75931786680818" lon="8.845180049077502"><ele>388.0</ele><time>2026-04-29T15:10:55.999Z</time></trkpt><trkpt lat="45.759272381081324" lon="8.845283972249844"><ele>387.4</ele><time>2026-04-29T15:10:56.999Z</time></trkpt><trkpt lat="45.759272020829165" lon="8.84541829819437"><ele>386.79999999999995</ele><time>2026-04-29T15:10:58.999Z</time></trkpt><trkpt lat="45.759312832414274" lon="8.8456073090024"><ele>386.2</ele><time>2026-04-29T15:11:00.999Z</time></trkpt><trkpt lat="45.75932504025776" lon="8.845722939608539"><ele>385.6</ele><time>2026-04-29T15:11:03.999Z</time></trkpt><trkpt lat="45.759260769109424" lon="8.845801868626195"><ele>385.0</ele><time>2026-04-29T15:11:07.999Z</time></trkpt><trkpt lat="45.75924514345555" lon="8.845979223310017"><ele>386.2</ele><time>2026-04-29T15:11:09.999Z</time></trkpt><trkpt lat="45.759201813422834" lon="8.846082650848826"><ele>387.4</ele><time>2026-04-29T15:11:10.999Z</time></trkpt><trkpt lat="45.75916065271065" lon="8.846224697063105"><ele>388.6</ele><time>2026-04-29T15:11:11.999Z</time></trkpt><trkpt lat="45.759083440735694" lon="8.846343147490405"><ele>389.8</ele><time>2026-04-29T15:11:12.999Z</time></trkpt><trkpt lat="45.75905515711874" lon="8.846461287093117"><ele>391.0</ele><time>2026-04-29T15:11:13.999Z</time></trkpt><trkpt lat="45.75902099467703" lon="8.846679002569108"><ele>392.0</ele><time>2026-04-29T15:11:14.999Z</time></trkpt><trkpt lat="45.75896927955413" lon="8.846801176878735"><ele>393.0</ele><time>2026-04-29T15:11:15.999Z</time></trkpt><trkpt lat="45.7589367442608" lon="8.846971778084256"><ele>394.0</ele><time>2026-04-29T15:11:16.999Z</time></trkpt><trkpt lat="45.758894219913905" lon="8.847123370146203"><ele>395.0</ele><time>2026-04-29T15:11:17.999Z</time></trkpt><trkpt lat="45.758830746937605" lon="8.847222327091627"><ele>396.0</ele><time>2026-04-29T15:11:19Z</time></trkpt><trkpt lat="45.75874031336827" lon="8.847315152109687"><ele>396.0</ele><time>2026-04-29T15:11:20Z</time></trkpt><trkpt lat="45.7586798052226" lon="8.847376290067075"><ele>396.0</ele><time>2026-04-29T15:11:21Z</time></trkpt><trkpt lat="45.75859798928988" lon="8.84745704836574"><ele>396.0</ele><time>2026-04-29T15:11:22Z</time></trkpt><trkpt lat="45.75852929386897" lon="8.847525423384525"><ele>396.0</ele><time>2026-04-29T15:11:23Z</time></trkpt><trkpt lat="45.75840492528404" lon="8.847581569850119"><ele>396.0</ele><time>2026-04-29T15:11:24Z</time></trkpt><trkpt lat="45.758416828299616" lon="8.847671460409497"><ele>395.25</ele><time>2026-04-29T15:11:26Z</time></trkpt><trkpt lat="45.75859419623253" lon="8.847657422820706"><ele>394.5</ele><time>2026-04-29T15:11:27Z</time></trkpt><trkpt lat="45.75868592808674" lon="8.847692391276759"><ele>393.75</ele><time>2026-04-29T15:11:28Z</time></trkpt><trkpt lat="45.75876720692468" lon="8.84771213421676"><ele>393.0</ele><time>2026-04-29T15:11:29Z</time></trkpt><trkpt lat="45.75887969773443" lon="8.847747520657583"><ele>393.0</ele><time>2026-04-29T15:11:30Z</time></trkpt><trkpt lat="45.75898775953668" lon="8.847764091409802"><ele>393.0</ele><time>2026-04-29T15:11:31Z</time></trkpt><trkpt lat="45.759091160397716" lon="8.847775644171342"><ele>393.0</ele><time>2026-04-29T15:11:32Z</time></trkpt><trkpt lat="45.759155748600854" lon="8.847778518082919"><ele>393.0</ele><time>2026-04-29T15:11:33Z</time></trkpt><trkpt lat="45.75927065512152" lon="8.847781452965679"><ele>393.0</ele><time>2026-04-29T15:11:35Z</time></trkpt><trkpt lat="45.75938705971875" lon="8.847819567942064"><ele>393.0</ele><time>2026-04-29T15:11:37Z</time></trkpt><trkpt lat="45.75943602059124" lon="8.84790164575221"><ele>393.0</ele><time>2026-04-29T15:11:39Z</time></trkpt><trkpt lat="45.75948745105609" lon="8.847979607943534"><ele>393.0</ele><time>2026-04-29T15:11:41Z</time></trkpt><trkpt lat="45.7595925947419" lon="8.848029324856714"><ele>393.0</ele><time>2026-04-29T15:11:43Z</time></trkpt><trkpt lat="45.75967011844094" lon="8.84805026412362"><ele>393.0</ele><time>2026-04-29T15:11:44Z</time></trkpt><trkpt lat="45.75973901118398" lon="8.848072731490428"><ele>393.0</ele><time>2026-04-29T15:11:45Z</time></trkpt><trkpt lat="45.75989457348628" lon="8.848045566118387"><ele>393.0</ele><time>2026-04-29T15:11:51Z</time></trkpt><trkpt lat="45.7600925417674" lon="8.848145682280027"><ele>393.0</ele><time>2026-04-29T15:11:54Z</time></trkpt><trkpt lat="45.760167977262284" lon="8.848198025523697"><ele>393.0</ele><time>2026-04-29T15:11:56Z</time></trkpt><trkpt lat="45.76031640404439" lon="8.848131577506866"><ele>393.0</ele><time>2026-04-29T15:11:58Z</time></trkpt><trkpt lat="45.76040517001931" lon="8.847854035259576"><ele>393.0</ele><time>2026-04-29T15:11:59Z</time></trkpt><trkpt lat="45.76052903102894" lon="8.847785120941328"><ele>393.0</ele><time>2026-04-29T15:12:00Z</time></trkpt><trkpt lat="45.76065451801548" lon="8.847681933044218"><ele>393.0</ele><time>2026-04-29T15:12:01Z</time></trkpt><trkpt lat="45.76076013131567" lon="8.847616082079576"><ele>393.0</ele><time>2026-04-29T15:12:02Z</time></trkpt><trkpt lat="45.760840998885556" lon="8.847587536935338"><ele>393.3333333333333</ele><time>2026-04-29T15:12:03Z</time></trkpt><trkpt lat="45.76091761469111" lon="8.847569932338399"><ele>393.66666666666663</ele><time>2026-04-29T15:12:04Z</time></trkpt><trkpt lat="45.76101792593749" lon="8.847554032702465"><ele>394.0</ele><time>2026-04-29T15:12:06Z</time></trkpt><trkpt lat="45.76113545421625" lon="8.847499785948413"><ele>394.3333333333333</ele><time>2026-04-29T15:12:08Z</time></trkpt><trkpt lat="45.76120752652709" lon="8.847478566045398"><ele>394.66666666666663</ele><time>2026-04-29T15:12:09Z</time></trkpt><trkpt lat="45.761276017539736" lon="8.847496759530172"><ele>395.0</ele><time>2026-04-29T15:12:13Z</time></trkpt><trkpt lat="45.761488172078025" lon="8.847487977247857"><ele>395.4</ele><time>2026-04-29T15:12:16Z</time></trkpt><trkpt lat="45.76159126522996" lon="8.847513235626463"><ele>395.8</ele><time>2026-04-29T15:12:18Z</time></trkpt><trkpt lat="45.76167544942373" lon="8.847520829514085"><ele>396.20000000000005</ele><time>2026-04-29T15:12:20Z</time></trkpt><trkpt lat="45.7617636357609" lon="8.847515115349912"><ele>396.6</ele><time>2026-04-29T15:12:22Z</time></trkpt><trkpt lat="45.76183643427015" lon="8.847546452667514"><ele>397.0</ele><time>2026-04-29T15:12:23Z</time></trkpt><trkpt lat="45.761944505853954" lon="8.847514579280558"><ele>398.33333333333337</ele><time>2026-04-29T15:12:24.999Z</time></trkpt><trkpt lat="45.7620214460088" lon="8.847512889650451"><ele>399.6666666666667</ele><time>2026-04-29T15:12:25.999Z</time></trkpt><trkpt lat="45.76209338986266" lon="8.847515965718163"><ele>401.0</ele><time>2026-04-29T15:12:26.999Z</time></trkpt><trkpt lat="45.762207227157624" lon="8.84748099942957"><ele>402.33333333333337</ele><time>2026-04-29T15:12:28.999Z</time></trkpt><trkpt lat="45.76231480378549" lon="8.847447987174691"><ele>403.6666666666667</ele><time>2026-04-29T15:12:30.999Z</time></trkpt><trkpt lat="45.76238459031165" lon="8.847435828002801"><ele>405.0</ele><time>2026-04-29T15:12:32.999Z</time></trkpt><trkpt lat="45.762478459008" lon="8.847465176671175"><ele>405.0</ele><time>2026-04-29T15:12:35.999Z</time></trkpt><trkpt lat="45.76255067322018" lon="8.847516870611441"><ele>405.0</ele><time>2026-04-29T15:12:37.999Z</time></trkpt><trkpt lat="45.76270330695787" lon="8.84742797473295"><ele>405.0</ele><time>2026-04-29T15:12:38.999Z</time></trkpt><trkpt lat="45.762848885548756" lon="8.847507441840037"><ele>405.0</ele><time>2026-04-29T15:12:43.999Z</time></trkpt><trkpt lat="45.76300165502553" lon="8.847526479248248"><ele>406.5</ele><time>2026-04-29T15:12:47.999Z</time></trkpt><trkpt lat="45.763077683343134" lon="8.847599295939142"><ele>408.0</ele><time>2026-04-29T15:12:49.999Z</time></trkpt><trkpt lat="45.7632064591041" lon="8.84761443763975"><ele>409.5</ele><time>2026-04-29T15:12:53.999Z</time></trkpt><trkpt lat="45.76326852246986" lon="8.847704396216736"><ele>411.0</ele><time>2026-04-29T15:12:56.999Z</time></trkpt><trkpt lat="45.763503477600764" lon="8.847733912432398"><ele>411.8</ele><time>2026-04-29T15:13:02.999Z</time></trkpt><trkpt lat="45.7635914163199" lon="8.84776327767754"><ele>412.6</ele><time>2026-04-29T15:13:03.999Z</time></trkpt><trkpt lat="45.763680170627346" lon="8.847765920826198"><ele>413.4</ele><time>2026-04-29T15:13:04.999Z</time></trkpt><trkpt lat="45.76375329808531" lon="8.847800054235243"><ele>414.2</ele><time>2026-04-29T15:13:05.999Z</time></trkpt><trkpt lat="45.76384099430743" lon="8.84782706634982"><ele>415.0</ele><time>2026-04-29T15:13:06.999Z</time></trkpt><trkpt lat="45.763963866068686" lon="8.84784391867781"><ele>415.0</ele><time>2026-04-29T15:13:08.999Z</time></trkpt><trkpt lat="45.764177757284635" lon="8.847892755744061"><ele>415.0</ele><time>2026-04-29T15:13:18.999Z</time></trkpt><trkpt lat="45.76418340807163" lon="8.848016892430719"><ele>415.0</ele><time>2026-04-29T15:13:20.999Z</time></trkpt><trkpt lat="45.76420918223115" lon="8.848172513776637"><ele>415.0</ele><time>2026-04-29T15:13:22.999Z</time></trkpt><trkpt lat="45.764235292710154" lon="8.848257414135734"><ele>415.0</ele><time>2026-04-29T15:13:23.999Z</time></trkpt><trkpt lat="45.76434584662533" lon="8.848376540283876"><ele>415.0</ele><time>2026-04-29T15:13:26Z</time></trkpt><trkpt lat="45.76440372978232" lon="8.848462702646962"><ele>415.0</ele><time>2026-04-29T15:13:27Z</time></trkpt><trkpt lat="45.7645595513475" lon="8.848950263840932"><ele>414.2</ele><time>2026-04-29T15:13:28Z</time></trkpt><trkpt lat="45.764614620319946" lon="8.849050361695655"><ele>413.4</ele><time>2026-04-29T15:13:29Z</time></trkpt><trkpt lat="45.764605464949334" lon="8.849248913470039"><ele>412.6</ele><time>2026-04-29T15:13:30Z</time></trkpt><trkpt lat="45.76465245499615" lon="8.84933263493498"><ele>411.8</ele><time>2026-04-29T15:13:31Z</time></trkpt><trkpt lat="45.764707421716345" lon="8.849430114459066"><ele>411.0</ele><time>2026-04-29T15:13:32Z</time></trkpt><trkpt lat="45.76477161633664" lon="8.84956000088614"><ele>411.0</ele><time>2026-04-29T15:13:34Z</time></trkpt><trkpt lat="45.76483076225654" lon="8.849676722665272"><ele>411.0</ele><time>2026-04-29T15:13:35Z</time></trkpt><trkpt lat="45.76487261446006" lon="8.84979080421784"><ele>411.0</ele><time>2026-04-29T15:13:36Z</time></trkpt><trkpt lat="45.764914098530085" lon="8.849885005451844"><ele>411.0</ele><time>2026-04-29T15:13:37Z</time></trkpt><trkpt lat="45.76494645221355" lon="8.850020976334655"><ele>411.0</ele><time>2026-04-29T15:13:38Z</time></trkpt><trkpt lat="45.764969213135664" lon="8.850194654466549"><ele>410.8</ele><time>2026-04-29T15:13:41Z</time></trkpt><trkpt lat="45.7649848328624" lon="8.850362013542318"><ele>410.6</ele><time>2026-04-29T15:13:43Z</time></trkpt><trkpt lat="45.76497617885658" lon="8.85046212359814"><ele>410.4</ele><time>2026-04-29T15:13:44Z</time></trkpt><trkpt lat="45.76500281078535" lon="8.850572183758423"><ele>410.2</ele><time>2026-04-29T15:13:46Z</time></trkpt><trkpt lat="45.76502695326929" lon="8.85070128035991"><ele>410.0</ele><time>2026-04-29T15:13:47Z</time></trkpt><trkpt lat="45.76499601546609" lon="8.851059344339905"><ele>406.66666666666663</ele><time>2026-04-29T15:13:48Z</time></trkpt><trkpt lat="45.76526590021096" lon="8.8512352082426"><ele>403.33333333333337</ele><time>2026-04-29T15:13:52Z</time></trkpt><trkpt lat="45.765274662386055" lon="8.851379748680422"><ele>400.0</ele><time>2026-04-29T15:13:53Z</time></trkpt><trkpt lat="45.76526325676072" lon="8.851487490859334"><ele>400.0</ele><time>2026-04-29T15:13:54Z</time></trkpt><trkpt lat="45.76527493373482" lon="8.851615794321939"><ele>400.0</ele><time>2026-04-29T15:13:55Z</time></trkpt><trkpt lat="45.765300446536756" lon="8.851800914429116"><ele>400.0</ele><time>2026-04-29T15:13:56Z</time></trkpt><trkpt lat="45.76535978718084" lon="8.851978202532056"><ele>400.0</ele><time>2026-04-29T15:13:57Z</time></trkpt><trkpt lat="45.765414734928015" lon="8.852086688344698"><ele>398.5</ele><time>2026-04-29T15:13:58Z</time></trkpt><trkpt lat="45.765464208787776" lon="8.852177187030657"><ele>397.0</ele><time>2026-04-29T15:13:59Z</time></trkpt><trkpt lat="45.765587862700144" lon="8.85224935879406"><ele>395.5</ele><time>2026-04-29T15:14:00Z</time></trkpt><trkpt lat="45.76567058042752" lon="8.852361968894018"><ele>394.0</ele><time>2026-04-29T15:14:01Z</time></trkpt><trkpt lat="45.76577559959536" lon="8.852542853222003"><ele>390.79999999999995</ele><time>2026-04-29T15:14:02Z</time></trkpt><trkpt lat="45.765824965523926" lon="8.852670143935946"><ele>387.59999999999997</ele><time>2026-04-29T15:14:03Z</time></trkpt><trkpt lat="45.76587830749601" lon="8.852797213119986"><ele>384.4</ele><time>2026-04-29T15:14:04Z</time></trkpt><trkpt lat="45.76593864608384" lon="8.85292016377859"><ele>381.2</ele><time>2026-04-29T15:14:05Z</time></trkpt><trkpt lat="45.765997246049345" lon="8.853028646826369"><ele>378.0</ele><time>2026-04-29T15:14:06Z</time></trkpt><trkpt lat="45.766074913043816" lon="8.853146362057688"><ele>377.2</ele><time>2026-04-29T15:14:07Z</time></trkpt><trkpt lat="45.766188577987" lon="8.853260552222793"><ele>376.4</ele><time>2026-04-29T15:14:08Z</time></trkpt><trkpt lat="45.76628565829599" lon="8.853315933974173"><ele>375.59999999999997</ele><time>2026-04-29T15:14:09Z</time></trkpt><trkpt lat="45.76635254647352" lon="8.853373221876547"><ele>374.79999999999995</ele><time>2026-04-29T15:14:10Z</time></trkpt><trkpt lat="45.7664056211607" lon="8.853440438701115"><ele>374.0</ele><time>2026-04-29T15:14:11Z</time></trkpt><trkpt lat="45.766445585890864" lon="8.85352290084691"><ele>372.2</ele><time>2026-04-29T15:14:12Z</time></trkpt><trkpt lat="45.76647266504017" lon="8.85362477370244"><ele>370.4</ele><time>2026-04-29T15:14:13Z</time></trkpt><trkpt lat="45.766491170197874" lon="8.853771848875219"><ele>368.6</ele><time>2026-04-29T15:14:14Z</time></trkpt><trkpt lat="45.76648659929079" lon="8.853914654492236"><ele>366.8</ele><time>2026-04-29T15:14:15Z</time></trkpt><trkpt lat="45.76647147222166" lon="8.854126009407029"><ele>365.0</ele><time>2026-04-29T15:14:16Z</time></trkpt><trkpt lat="45.7664632522955" lon="8.854268486984097"><ele>364.4</ele><time>2026-04-29T15:14:17Z</time></trkpt><trkpt lat="45.7664615988919" lon="8.85437248602708"><ele>363.8</ele><time>2026-04-29T15:14:18Z</time></trkpt><trkpt lat="45.7664623126468" lon="8.854515690297344"><ele>363.20000000000005</ele><time>2026-04-29T15:14:19Z</time></trkpt><trkpt lat="45.766458181773686" lon="8.854656134830037"><ele>362.6</ele><time>2026-04-29T15:14:20Z</time></trkpt><trkpt lat="45.766437418686" lon="8.85478722139383"><ele>362.0</ele><time>2026-04-29T15:14:22Z</time></trkpt><trkpt lat="45.76641901075581" lon="8.854924086190612"><ele>362.0</ele><time>2026-04-29T15:14:24Z</time></trkpt><trkpt lat="45.7663351424952" lon="8.854969193597888"><ele>362.0</ele><time>2026-04-29T15:14:25Z</time></trkpt><trkpt lat="45.76626833157546" lon="8.854992853545923"><ele>362.0</ele><time>2026-04-29T15:14:25.999Z</time></trkpt><trkpt lat="45.76623651305681" lon="8.855207289502967"><ele>362.0</ele><time>2026-04-29T15:14:26.999Z</time></trkpt><trkpt lat="45.7661848535025" lon="8.85534263649932"><ele>362.0</ele><time>2026-04-29T15:14:27.999Z</time></trkpt><trkpt lat="45.76637094495002" lon="8.855702917943965"><ele>362.5</ele><time>2026-04-29T15:14:28.999Z</time></trkpt><trkpt lat="45.76636425524792" lon="8.855858656047221"><ele>363.0</ele><time>2026-04-29T15:14:29.999Z</time></trkpt><trkpt lat="45.76636142885627" lon="8.856027973562252"><ele>363.5</ele><time>2026-04-29T15:14:30.999Z</time></trkpt><trkpt lat="45.766348060985145" lon="8.856205638844306"><ele>364.0</ele><time>2026-04-29T15:14:31.999Z</time></trkpt><trkpt lat="45.766331737656316" lon="8.856368945056081"><ele>364.3333333333333</ele><time>2026-04-29T15:14:32.999Z</time></trkpt><trkpt lat="45.766323488741826" lon="8.856496004022716"><ele>364.66666666666663</ele><time>2026-04-29T15:14:33.999Z</time></trkpt><trkpt lat="45.76632803496687" lon="8.856628451331865"><ele>365.0</ele><time>2026-04-29T15:14:34.999Z</time></trkpt><trkpt lat="45.766341314480506" lon="8.856733792468283"><ele>365.3333333333333</ele><time>2026-04-29T15:14:35.999Z</time></trkpt><trkpt lat="45.76637685344735" lon="8.856810591663077"><ele>365.6666666666667</ele><time>2026-04-29T15:14:36.999Z</time></trkpt><trkpt lat="45.76643389716158" lon="8.856868913828984"><ele>366.0</ele><time>2026-04-29T15:14:37.999Z</time></trkpt><trkpt lat="45.766505001563" lon="8.856915697833852"><ele>366.0</ele><time>2026-04-29T15:14:38.999Z</time></trkpt><trkpt lat="45.76657672959335" lon="8.856955063330828"><ele>366.0</ele><time>2026-04-29T15:14:39.999Z</time></trkpt><trkpt lat="45.766666921069636" lon="8.857018783398091"><ele>366.0</ele><time>2026-04-29T15:14:40.999Z</time></trkpt><trkpt lat="45.76678755744807" lon="8.857060403599911"><ele>366.0</ele><time>2026-04-29T15:14:41.999Z</time></trkpt><trkpt lat="45.766908735000094" lon="8.857094600334364"><ele>366.0</ele><time>2026-04-29T15:14:42.999Z</time></trkpt><trkpt lat="45.76702859724171" lon="8.857113843503639"><ele>366.20000000000005</ele><time>2026-04-29T15:14:43.999Z</time></trkpt><trkpt lat="45.76714492577416" lon="8.857113179079636"><ele>366.40000000000003</ele><time>2026-04-29T15:14:44.999Z</time></trkpt><trkpt lat="45.767243285975354" lon="8.857104350532161"><ele>366.6</ele><time>2026-04-29T15:14:45.999Z</time></trkpt><trkpt lat="45.767344205046804" lon="8.857099094324207"><ele>366.8</ele><time>2026-04-29T15:14:46.999Z</time></trkpt><trkpt lat="45.7674410979088" lon="8.857108959558097"><ele>367.0</ele><time>2026-04-29T15:14:47.999Z</time></trkpt><trkpt lat="45.767533624408195" lon="8.857140588605674"><ele>367.0</ele><time>2026-04-29T15:14:48.999Z</time></trkpt><trkpt lat="45.76762582769136" lon="8.85719326183201"><ele>367.0</ele><time>2026-04-29T15:14:49.999Z</time></trkpt><trkpt lat="45.76770682756359" lon="8.85723624374408"><ele>367.0</ele><time>2026-04-29T15:14:50.999Z</time></trkpt><trkpt lat="45.76777827849104" lon="8.857249833190323"><ele>367.0</ele><time>2026-04-29T15:14:51.999Z</time></trkpt><trkpt lat="45.767855887527496" lon="8.857263653662633"><ele>367.0</ele><time>2026-04-29T15:14:52.999Z</time></trkpt><trkpt lat="45.767939739224985" lon="8.857288273768441"><ele>367.0</ele><time>2026-04-29T15:14:53.999Z</time></trkpt><trkpt lat="45.76805178591843" lon="8.857307531507882"><ele>366.20000000000005</ele><time>2026-04-29T15:14:54.999Z</time></trkpt><trkpt lat="45.768161333081316" lon="8.857342522936497"><ele>365.4</ele><time>2026-04-29T15:14:55.999Z</time></trkpt><trkpt lat="45.76827563393784" lon="8.857383363790337"><ele>364.6</ele><time>2026-04-29T15:14:56.999Z</time></trkpt><trkpt lat="45.768385358772896" lon="8.85741705723693"><ele>363.79999999999995</ele><time>2026-04-29T15:14:57.999Z</time></trkpt><trkpt lat="45.768476974465976" lon="8.85744728639046"><ele>363.0</ele><time>2026-04-29T15:14:58.999Z</time></trkpt><trkpt lat="45.76856681725498" lon="8.857473728428701"><ele>362.6666666666667</ele><time>2026-04-29T15:14:59.999Z</time></trkpt><trkpt lat="45.76865353262592" lon="8.857501927914551"><ele>362.3333333333333</ele><time>2026-04-29T15:15:00.999Z</time></trkpt><trkpt lat="45.76871891440209" lon="8.857528871445531"><ele>362.0</ele><time>2026-04-29T15:15:01.999Z</time></trkpt><trkpt lat="45.76882703076322" lon="8.85756076341109"><ele>361.66666666666663</ele><time>2026-04-29T15:15:03.999Z</time></trkpt><trkpt lat="45.768890092781966" lon="8.857591629048772"><ele>361.3333333333333</ele><time>2026-04-29T15:15:05.999Z</time></trkpt><trkpt lat="45.76883840756048" lon="8.85753709725237"><ele>361.0</ele><time>2026-04-29T15:15:32Z</time></trkpt><trkpt lat="45.76877365874477" lon="8.857513330198078"><ele>361.0</ele><time>2026-04-29T15:15:40Z</time></trkpt><trkpt lat="45.76870215754407" lon="8.857485461464767"><ele>361.0</ele><time>2026-04-29T15:15:49Z</time></trkpt><trkpt lat="45.76863519524746" lon="8.857466045297745"><ele>361.0</ele><time>2026-04-29T15:15:56Z</time></trkpt><trkpt lat="45.76855478341641" lon="8.8574442951186"><ele>361.0</ele><time>2026-04-29T15:16:04Z</time></trkpt><trkpt lat="45.76838112350436" lon="8.857386310705838"><ele>361.0</ele><time>2026-04-29T15:16:07Z</time></trkpt><trkpt lat="45.768275624779946" lon="8.857352702121572"><ele>361.3333333333333</ele><time>2026-04-29T15:16:08Z</time></trkpt><trkpt lat="45.76817379950842" lon="8.857319561591092"><ele>361.66666666666663</ele><time>2026-04-29T15:16:09Z</time></trkpt><trkpt lat="45.76809623445041" lon="8.857295205348713"><ele>362.0</ele><time>2026-04-29T15:16:10Z</time></trkpt><trkpt lat="45.768023403919706" lon="8.85727409881112"><ele>362.3333333333333</ele><time>2026-04-29T15:16:11Z</time></trkpt><trkpt lat="45.7679484476171" lon="8.857252772292886"><ele>362.6666666666667</ele><time>2026-04-29T15:16:12Z</time></trkpt><trkpt lat="45.76786659438878" lon="8.857249543247057"><ele>363.0</ele><time>2026-04-29T15:16:13Z</time></trkpt><trkpt lat="45.767773362549796" lon="8.85724091434185"><ele>363.6666666666667</ele><time>2026-04-29T15:16:14Z</time></trkpt><trkpt lat="45.76767964697883" lon="8.8572180554153"><ele>364.3333333333333</ele><time>2026-04-29T15:16:15Z</time></trkpt><trkpt lat="45.76757586254745" lon="8.857175014844401"><ele>365.0</ele><time>2026-04-29T15:16:16Z</time></trkpt><trkpt lat="45.767483095204405" lon="8.857133067714448"><ele>365.66666666666663</ele><time>2026-04-29T15:16:17Z</time></trkpt><trkpt lat="45.76741483207717" lon="8.857096255702317"><ele>366.3333333333333</ele><time>2026-04-29T15:16:18Z</time></trkpt><trkpt lat="45.76734110990702" lon="8.857077293592495"><ele>367.0</ele><time>2026-04-29T15:16:19Z</time></trkpt><trkpt lat="45.76726359893406" lon="8.857079335068187"><ele>367.0</ele><time>2026-04-29T15:16:20Z</time></trkpt><trkpt lat="45.767163441079326" lon="8.85708863081762"><ele>367.0</ele><time>2026-04-29T15:16:21Z</time></trkpt><trkpt lat="45.767051546092404" lon="8.857093759367109"><ele>367.0</ele><time>2026-04-29T15:16:22Z</time></trkpt><trkpt lat="45.76694374624514" lon="8.857092283624594"><ele>367.0</ele><time>2026-04-29T15:16:23Z</time></trkpt><trkpt lat="45.76681866235923" lon="8.857073039175434"><ele>367.0</ele><time>2026-04-29T15:16:24Z</time></trkpt><trkpt lat="45.766713030635735" lon="8.857047778978313"><ele>366.8333333333333</ele><time>2026-04-29T15:16:25Z</time></trkpt><trkpt lat="45.76661532058613" lon="8.857001598035717"><ele>366.66666666666663</ele><time>2026-04-29T15:16:26Z</time></trkpt><trkpt lat="45.76653355792718" lon="8.856955181835739"><ele>366.5</ele><time>2026-04-29T15:16:27Z</time></trkpt><trkpt lat="45.76647094396868" lon="8.8569105259867"><ele>366.3333333333333</ele><time>2026-04-29T15:16:28Z</time></trkpt><trkpt lat="45.766408993533936" lon="8.856821139928533"><ele>366.1666666666667</ele><time>2026-04-29T15:16:30Z</time></trkpt><trkpt lat="45.76635163349899" lon="8.856730525186727"><ele>366.0</ele><time>2026-04-29T15:16:32Z</time></trkpt><trkpt lat="45.76634803600744" lon="8.85660593286536"><ele>366.0</ele><time>2026-04-29T15:16:35Z</time></trkpt><trkpt lat="45.76635299464395" lon="8.85644054948167"><ele>366.0</ele><time>2026-04-29T15:19:31.999Z</time></trkpt><trkpt lat="45.76635378076077" lon="8.856333152907021"><ele>366.0</ele><time>2026-04-29T15:19:32.999Z</time></trkpt><trkpt lat="45.76636570843271" lon="8.856209791393642"><ele>366.0</ele><time>2026-04-29T15:19:33.999Z</time></trkpt><trkpt lat="45.76637242685685" lon="8.856081250597667"><ele>366.0</ele><time>2026-04-29T15:19:34.999Z</time></trkpt><trkpt lat="45.76638740313813" lon="8.855945375539712"><ele>365.6666666666667</ele><time>2026-04-29T15:19:35.999Z</time></trkpt><trkpt lat="45.76638999311215" lon="8.85581809747425"><ele>365.3333333333333</ele><time>2026-04-29T15:19:36.999Z</time></trkpt><trkpt lat="45.76639933587353" lon="8.855704782854461"><ele>365.0</ele><time>2026-04-29T15:19:37.999Z</time></trkpt><trkpt lat="45.76641466577667" lon="8.855595498401918"><ele>364.66666666666663</ele><time>2026-04-29T15:19:38.999Z</time></trkpt><trkpt lat="45.76643255814424" lon="8.855480541292316"><ele>364.3333333333333</ele><time>2026-04-29T15:19:39.999Z</time></trkpt><trkpt lat="45.7664435487812" lon="8.85536579026617"><ele>364.0</ele><time>2026-04-29T15:19:40.999Z</time></trkpt><trkpt lat="45.76644831912956" lon="8.855271703583654"><ele>364.0</ele><time>2026-04-29T15:19:41.999Z</time></trkpt><trkpt lat="45.766449258925036" lon="8.855178126749506"><ele>364.0</ele><time>2026-04-29T15:19:43Z</time></trkpt><trkpt lat="45.76645351537764" lon="8.855033591622963"><ele>364.0</ele><time>2026-04-29T15:19:45Z</time></trkpt><trkpt lat="45.76645445808249" lon="8.854943260083662"><ele>364.0</ele><time>2026-04-29T15:19:47Z</time></trkpt><trkpt lat="45.76644105171542" lon="8.85484468457481"><ele>364.0</ele><time>2026-04-29T15:19:50Z</time></trkpt><trkpt lat="45.76651224369965" lon="8.854702167717718"><ele>364.0</ele><time>2026-04-29T15:19:53Z</time></trkpt><trkpt lat="45.76651224369752" lon="8.854514391187069"><ele>364.2</ele><time>2026-04-29T15:19:55Z</time></trkpt><trkpt lat="45.76651167068018" lon="8.854393973121399"><ele>364.4</ele><time>2026-04-29T15:19:56Z</time></trkpt><trkpt lat="45.76651404972824" lon="8.854249847880235"><ele>364.6</ele><time>2026-04-29T15:19:57Z</time></trkpt><trkpt lat="45.76652583694802" lon="8.854073939154912"><ele>364.8</ele><time>2026-04-29T15:19:58Z</time></trkpt><trkpt lat="45.76653720670948" lon="8.853905805789056"><ele>365.0</ele><time>2026-04-29T15:19:59Z</time></trkpt><trkpt lat="45.76653858378252" lon="8.853752668359656"><ele>365.0</ele><time>2026-04-29T15:20:00Z</time></trkpt><trkpt lat="45.76652820149941" lon="8.853635615833122"><ele>365.0</ele><time>2026-04-29T15:20:01Z</time></trkpt><trkpt lat="45.76650925460657" lon="8.853546955414902"><ele>365.0</ele><time>2026-04-29T15:20:02Z</time></trkpt><trkpt lat="45.76647975415671" lon="8.853452844941664"><ele>365.0</ele><time>2026-04-29T15:20:03Z</time></trkpt><trkpt lat="45.76642371500709" lon="8.853364141623134"><ele>365.0</ele><time>2026-04-29T15:20:04Z</time></trkpt><trkpt lat="45.76635874388324" lon="8.853290660352538"><ele>365.0</ele><time>2026-04-29T15:20:05Z</time></trkpt><trkpt lat="45.76626893181151" lon="8.853230128912239"><ele>366.5</ele><time>2026-04-29T15:20:06Z</time></trkpt><trkpt lat="45.766205233175434" lon="8.853190819951344"><ele>368.0</ele><time>2026-04-29T15:20:07Z</time></trkpt><trkpt lat="45.766129641394656" lon="8.853144512023421"><ele>369.5</ele><time>2026-04-29T15:20:08Z</time></trkpt><trkpt lat="45.76607443695943" lon="8.853052187662884"><ele>371.0</ele><time>2026-04-29T15:20:09Z</time></trkpt><trkpt lat="45.76600973781633" lon="8.852945904764416"><ele>372.5</ele><time>2026-04-29T15:20:10Z</time></trkpt><trkpt lat="45.76595326393562" lon="8.852852664796059"><ele>374.0</ele><time>2026-04-29T15:20:11Z</time></trkpt><trkpt lat="45.76589712154239" lon="8.852741835456902"><ele>378.0</ele><time>2026-04-29T15:20:12Z</time></trkpt><trkpt lat="45.7658430915828" lon="8.85261389322609"><ele>382.0</ele><time>2026-04-29T15:20:13Z</time></trkpt><trkpt lat="45.76578675777158" lon="8.852474890893369"><ele>386.0</ele><time>2026-04-29T15:20:14Z</time></trkpt><trkpt lat="45.76574959138182" lon="8.852389880376428"><ele>390.0</ele><time>2026-04-29T15:20:15Z</time></trkpt><trkpt lat="45.76563940738123" lon="8.852247160571823"><ele>394.0</ele><time>2026-04-29T15:20:17Z</time></trkpt><trkpt lat="45.765596915465856" lon="8.852167112005404"><ele>394.0</ele><time>2026-04-29T15:20:18Z</time></trkpt><trkpt lat="45.76548729303763" lon="8.852088873748801"><ele>394.0</ele><time>2026-04-29T15:20:19Z</time></trkpt><trkpt lat="45.76543922382478" lon="8.852017527970924"><ele>394.0</ele><time>2026-04-29T15:20:20Z</time></trkpt><trkpt lat="45.76540182087099" lon="8.851935845159428"><ele>394.0</ele><time>2026-04-29T15:20:21Z</time></trkpt><trkpt lat="45.76536129191232" lon="8.851817250618447"><ele>394.0</ele><time>2026-04-29T15:20:22Z</time></trkpt><trkpt lat="45.765332590925446" lon="8.851666603201327"><ele>395.2</ele><time>2026-04-29T15:20:23Z</time></trkpt><trkpt lat="45.76531994064445" lon="8.851519684930087"><ele>396.4</ele><time>2026-04-29T15:20:24Z</time></trkpt><trkpt lat="45.765345186125145" lon="8.851423332366432"><ele>397.6</ele><time>2026-04-29T15:20:25Z</time></trkpt><trkpt lat="45.765290853481744" lon="8.851255854833912"><ele>398.8</ele><time>2026-04-29T15:20:27Z</time></trkpt><trkpt lat="45.7652178340152" lon="8.851200285784728"><ele>400.0</ele><time>2026-04-29T15:20:28Z</time></trkpt><trkpt lat="45.765117104733356" lon="8.851138210541489"><ele>400.2</ele><time>2026-04-29T15:20:31Z</time></trkpt><trkpt lat="45.76508688986652" lon="8.85097752690999"><ele>400.4</ele><time>2026-04-29T15:20:32Z</time></trkpt><trkpt lat="45.76508353446797" lon="8.850852909704141"><ele>400.6</ele><time>2026-04-29T15:20:33Z</time></trkpt><trkpt lat="45.76507792748066" lon="8.850711688653265"><ele>400.8</ele><time>2026-04-29T15:20:34Z</time></trkpt><trkpt lat="45.76506730795045" lon="8.850567635879935"><ele>401.0</ele><time>2026-04-29T15:20:35Z</time></trkpt><trkpt lat="45.765059621360905" lon="8.850463368302194"><ele>402.49999999999994</ele><time>2026-04-29T15:20:36Z</time></trkpt><trkpt lat="45.765051719695755" lon="8.850359520480806"><ele>404.0</ele><time>2026-04-29T15:20:37Z</time></trkpt><trkpt lat="45.76504215146022" lon="8.850266419379617"><ele>405.5</ele><time>2026-04-29T15:20:38Z</time></trkpt><trkpt lat="45.76501745579528" lon="8.850134844395502"><ele>407.0</ele><time>2026-04-29T15:20:39Z</time></trkpt><trkpt lat="45.76498531724034" lon="8.85000728806076"><ele>408.49999999999994</ele><time>2026-04-29T15:20:40Z</time></trkpt><trkpt lat="45.764963137539475" lon="8.849874210672226"><ele>410.0</ele><time>2026-04-29T15:20:42Z</time></trkpt><trkpt lat="45.76492811423689" lon="8.849781619539518"><ele>410.2</ele><time>2026-04-29T15:20:43Z</time></trkpt><trkpt lat="45.76485517685573" lon="8.849674509464423"><ele>410.4</ele><time>2026-04-29T15:20:44Z</time></trkpt><trkpt lat="45.76480513649164" lon="8.84954412971522"><ele>410.6</ele><time>2026-04-29T15:20:45Z</time></trkpt><trkpt lat="45.764748816506774" lon="8.849425571360095"><ele>410.8</ele><time>2026-04-29T15:20:46Z</time></trkpt><trkpt lat="45.764711824112794" lon="8.849328043482272"><ele>411.0</ele><time>2026-04-29T15:20:47Z</time></trkpt><trkpt lat="45.76466022057383" lon="8.849250334759532"><ele>411.0</ele><time>2026-04-29T15:20:48Z</time></trkpt><trkpt lat="45.76460737670062" lon="8.849162095454348"><ele>411.0</ele><time>2026-04-29T15:20:48.999Z</time></trkpt><trkpt lat="45.76455175049053" lon="8.84900692008311"><ele>411.0</ele><time>2026-04-29T15:20:50.999Z</time></trkpt><trkpt lat="45.764497621044164" lon="8.84890657007119"><ele>411.0</ele><time>2026-04-29T15:20:52.999Z</time></trkpt><trkpt lat="45.76445835665302" lon="8.8487671264626"><ele>411.0</ele><time>2026-04-29T15:20:53.999Z</time></trkpt><trkpt lat="45.76440935229143" lon="8.84870423608634"><ele>411.0</ele><time>2026-04-29T15:20:57.999Z</time></trkpt><trkpt lat="45.76438437036036" lon="8.848595614237228"><ele>411.0</ele><time>2026-04-29T15:21:00.999Z</time></trkpt><trkpt lat="45.76435653885606" lon="8.848473075013619"><ele>411.0</ele><time>2026-04-29T15:21:03.999Z</time></trkpt><trkpt lat="45.764336143402545" lon="8.848364853697918"><ele>411.0</ele><time>2026-04-29T15:21:06.999Z</time></trkpt><trkpt lat="45.76431919614545" lon="8.848273053062577"><ele>411.0</ele><time>2026-04-29T15:21:09.999Z</time></trkpt><trkpt lat="45.76430246210577" lon="8.848121796563337"><ele>411.0</ele><time>2026-04-29T15:21:11.999Z</time></trkpt><trkpt lat="45.764301191917795" lon="8.848027044901015"><ele>411.0</ele><time>2026-04-29T15:21:13.999Z</time></trkpt><trkpt lat="45.764298592189974" lon="8.847895532430723"><ele>411.0</ele><time>2026-04-29T15:21:14.999Z</time></trkpt><trkpt lat="45.76437448118056" lon="8.848038252652275"><ele>411.0</ele><time>2026-04-29T15:21:15.999Z</time></trkpt><trkpt lat="45.76433185474986" lon="8.847863471314373"><ele>411.0</ele><time>2026-04-29T15:21:17.999Z</time></trkpt><trkpt lat="45.764303813181286" lon="8.847702430198005"><ele>411.5</ele><time>2026-04-29T15:21:18.999Z</time></trkpt><trkpt lat="45.76429259645857" lon="8.847592835054268"><ele>412.0</ele><time>2026-04-29T15:21:19.999Z</time></trkpt><trkpt lat="45.76428301720302" lon="8.84750060393687"><ele>412.5</ele><time>2026-04-29T15:21:20.999Z</time></trkpt><trkpt lat="45.764270765357644" lon="8.847378820459847"><ele>413.0</ele><time>2026-04-29T15:21:22.999Z</time></trkpt><trkpt lat="45.764261696237654" lon="8.847284112115512"><ele>413.5</ele><time>2026-04-29T15:21:25.999Z</time></trkpt><trkpt lat="45.764266243883824" lon="8.847173208514475"><ele>414.0</ele><time>2026-04-29T15:21:28.999Z</time></trkpt><trkpt lat="45.76424404001809" lon="8.84706167803328"><ele>414.0</ele><time>2026-04-29T15:21:30.999Z</time></trkpt><trkpt lat="45.76423212927183" lon="8.846868627155985"><ele>414.0</ele><time>2026-04-29T15:21:32.999Z</time></trkpt><trkpt lat="45.764227900465166" lon="8.84675683055159"><ele>414.0</ele><time>2026-04-29T15:21:33.999Z</time></trkpt><trkpt lat="45.76422179111368" lon="8.84657111001506"><ele>414.0</ele><time>2026-04-29T15:21:35.999Z</time></trkpt><trkpt lat="45.76421448335505" lon="8.846465042015986"><ele>414.0</ele><time>2026-04-29T15:21:36.999Z</time></trkpt><trkpt lat="45.76434722881152" lon="8.84635750931901"><ele>414.0</ele><time>2026-04-29T15:21:38.999Z</time></trkpt><trkpt lat="45.76438486343791" lon="8.846254232599177"><ele>414.0</ele><time>2026-04-29T15:21:40.999Z</time></trkpt><trkpt lat="45.764254104412025" lon="8.846020910879345"><ele>414.0</ele><time>2026-04-29T15:21:42.999Z</time></trkpt><trkpt lat="45.764470530374965" lon="8.84607610951333"><ele>414.0</ele><time>2026-04-29T15:21:44.999Z</time></trkpt><trkpt lat="45.76440755855633" lon="8.84603031600611"><ele>414.0</ele><time>2026-04-29T15:21:52Z</time></trkpt><trkpt lat="45.76435695056544" lon="8.846116505555337"><ele>414.0</ele><time>2026-04-29T15:21:54Z</time></trkpt><trkpt lat="45.76428338319887" lon="8.84622662754701"><ele>414.0</ele><time>2026-04-29T15:21:56Z</time></trkpt><trkpt lat="45.76426392211827" lon="8.84637231599119"><ele>414.0</ele><time>2026-04-29T15:21:58Z</time></trkpt><trkpt lat="45.76417096418449" lon="8.846516098848971"><ele>414.0</ele><time>2026-04-29T15:22:04Z</time></trkpt><trkpt lat="45.76417242748495" lon="8.846612233426567"><ele>414.0</ele><time>2026-04-29T15:22:05Z</time></trkpt><trkpt lat="45.76417723623566" lon="8.846739361955338"><ele>414.0</ele><time>2026-04-29T15:22:07Z</time></trkpt><trkpt lat="45.764181375677225" lon="8.846848795947015"><ele>414.0</ele><time>2026-04-29T15:22:08Z</time></trkpt><trkpt lat="45.76418948978206" lon="8.846994557324214"><ele>414.0</ele><time>2026-04-29T15:22:09Z</time></trkpt><trkpt lat="45.76419802873635" lon="8.847115583413585"><ele>414.0</ele><time>2026-04-29T15:22:10Z</time></trkpt><trkpt lat="45.764208443384035" lon="8.847248223908233"><ele>414.0</ele><time>2026-04-29T15:22:11Z</time></trkpt><trkpt lat="45.76421988501456" lon="8.847373760240817"><ele>414.0</ele><time>2026-04-29T15:22:12Z</time></trkpt><trkpt lat="45.76423149244503" lon="8.847490519761934"><ele>414.0</ele><time>2026-04-29T15:22:13Z</time></trkpt><trkpt lat="45.7642417432117" lon="8.847589216270677"><ele>414.0</ele><time>2026-04-29T15:22:14Z</time></trkpt><trkpt lat="45.764260004845" lon="8.847768439709007"><ele>414.0</ele><time>2026-04-29T15:22:16Z</time></trkpt><trkpt lat="45.764272617210686" lon="8.847892877631116"><ele>414.00000000000006</ele><time>2026-04-29T15:22:17Z</time></trkpt><trkpt lat="45.76428469451291" lon="8.848010691017581"><ele>414.0</ele><time>2026-04-29T15:22:18Z</time></trkpt><trkpt lat="45.76429546713378" lon="8.84811151228913"><ele>414.0</ele><time>2026-04-29T15:22:19Z</time></trkpt><trkpt lat="45.76430628069568" lon="8.848201119083887"><ele>414.0</ele><time>2026-04-29T15:22:22Z</time></trkpt><trkpt lat="45.7642959529798" lon="8.848296600716035"><ele>414.0</ele><time>2026-04-29T15:22:27Z</time></trkpt><trkpt lat="45.764288070757075" lon="8.848395577356943"><ele>414.00000000000006</ele><time>2026-04-29T15:22:33Z</time></trkpt><trkpt lat="45.76426744123105" lon="8.848484070052557"><ele>414.0</ele><time>2026-04-29T15:22:37Z</time></trkpt><trkpt lat="45.76423511114254" lon="8.848565221678692"><ele>413.0</ele><time>2026-04-29T15:22:46Z</time></trkpt><trkpt lat="45.764409525443355" lon="8.848865635312427"><ele>412.0</ele><time>2026-04-29T15:23:01.999Z</time></trkpt><trkpt lat="45.76446269870148" lon="8.848965389437318"><ele>411.0</ele><time>2026-04-29T15:23:03.999Z</time></trkpt><trkpt lat="45.76457800195333" lon="8.84919992748282"><ele>411.0</ele><time>2026-04-29T15:23:07.999Z</time></trkpt><trkpt lat="45.76466650858901" lon="8.84935767428318"><ele>411.0</ele><time>2026-04-29T15:23:08.999Z</time></trkpt><trkpt lat="45.764722076398634" lon="8.849459766098096"><ele>411.0</ele><time>2026-04-29T15:23:09.999Z</time></trkpt><trkpt lat="45.76481035550037" lon="8.84963340101094"><ele>411.0</ele><time>2026-04-29T15:23:11.999Z</time></trkpt><trkpt lat="45.764871705852364" lon="8.849777635717073"><ele>411.0</ele><time>2026-04-29T15:23:13.999Z</time></trkpt><trkpt lat="45.764904349749585" lon="8.849879677043043"><ele>411.0</ele><time>2026-04-29T15:23:14.999Z</time></trkpt><trkpt lat="45.76493991003865" lon="8.850003612859789"><ele>411.0</ele><time>2026-04-29T15:23:17.999Z</time></trkpt><trkpt lat="45.76495120483209" lon="8.850102429433845"><ele>411.0</ele><time>2026-04-29T15:23:19.999Z</time></trkpt><trkpt lat="45.76496135397689" lon="8.850223492714575"><ele>411.0</ele><time>2026-04-29T15:23:21.999Z</time></trkpt><trkpt lat="45.76498102270544" lon="8.85031911580883"><ele>411.0</ele><time>2026-04-29T15:23:23.999Z</time></trkpt><trkpt lat="45.76495611369477" lon="8.850063800675674"><ele>410.66666666666663</ele><time>2026-04-29T15:23:24.999Z</time></trkpt><trkpt lat="45.764967260501834" lon="8.850173572944756"><ele>410.3333333333333</ele><time>2026-04-29T15:23:29.999Z</time></trkpt><trkpt lat="45.764943361318956" lon="8.850280812822211"><ele>410.0</ele><time>2026-04-29T15:23:33.999Z</time></trkpt><trkpt lat="45.7649730720818" lon="8.851151810884408"><ele>408.2</ele><time>2026-04-29T15:23:37.999Z</time></trkpt><trkpt lat="45.764910766402615" lon="8.851247250990683"><ele>406.4</ele><time>2026-04-29T15:23:39.999Z</time></trkpt><trkpt lat="45.76484725779371" lon="8.851324426309064"><ele>404.6</ele><time>2026-04-29T15:23:42.999Z</time></trkpt><trkpt lat="45.76472877821044" lon="8.851339497980538"><ele>402.8</ele><time>2026-04-29T15:23:44.999Z</time></trkpt><trkpt lat="45.764608549460235" lon="8.85137885795685"><ele>401.0</ele><time>2026-04-29T15:23:46.999Z</time></trkpt><trkpt lat="45.76454618327526" lon="8.851403172671052"><ele>401.0</ele><time>2026-04-29T15:23:47.999Z</time></trkpt><trkpt lat="45.764479535670475" lon="8.851430348344367"><ele>401.0</ele><time>2026-04-29T15:23:48.999Z</time></trkpt><trkpt lat="45.76441084723509" lon="8.851451155186629"><ele>401.0</ele><time>2026-04-29T15:23:50.999Z</time></trkpt><trkpt lat="45.76429608585468" lon="8.851531557450457"><ele>401.0</ele><time>2026-04-29T15:23:52.999Z</time></trkpt><trkpt lat="45.76419576842481" lon="8.85163604787208"><ele>401.0</ele><time>2026-04-29T15:23:55Z</time></trkpt><trkpt lat="45.764126999348164" lon="8.851695473215292"><ele>403.0</ele><time>2026-04-29T15:23:58Z</time></trkpt><trkpt lat="45.76428132043568" lon="8.851646654152898"><ele>405.0</ele><time>2026-04-29T15:23:59Z</time></trkpt><trkpt lat="45.764161776737694" lon="8.851706941836403"><ele>407.0</ele><time>2026-04-29T15:24:03Z</time></trkpt><trkpt lat="45.76408539390717" lon="8.851722496380653"><ele>409.0</ele><time>2026-04-29T15:24:06Z</time></trkpt><trkpt lat="45.76399557043199" lon="8.851761152590523"><ele>409.0</ele><time>2026-04-29T15:24:10Z</time></trkpt><trkpt lat="45.763929109978804" lon="8.85173000457373"><ele>409.0</ele><time>2026-04-29T15:24:15Z</time></trkpt><trkpt lat="45.76386880438297" lon="8.851681571634455"><ele>409.0</ele><time>2026-04-29T15:24:20Z</time></trkpt><trkpt lat="45.763810444676565" lon="8.85164675858217"><ele>409.0</ele><time>2026-04-29T15:24:24Z</time></trkpt><trkpt lat="45.763758937176604" lon="8.85158649908215"><ele>409.0</ele><time>2026-04-29T15:24:30Z</time></trkpt><trkpt lat="45.7636970657996" lon="8.85152429769594"><ele>409.0</ele><time>2026-04-29T15:24:34Z</time></trkpt><trkpt lat="45.7636807099261" lon="8.851436376981914"><ele>409.0</ele><time>2026-04-29T15:24:36Z</time></trkpt><trkpt lat="45.76366269251365" lon="8.851345445493807"><ele>409.0</ele><time>2026-04-29T15:24:38Z</time></trkpt><trkpt lat="45.763621062211456" lon="8.85122959838897"><ele>409.0</ele><time>2026-04-29T15:24:40Z</time></trkpt><trkpt lat="45.76354273212744" lon="8.851186437029533"><ele>409.0</ele><time>2026-04-29T15:24:43Z</time></trkpt><trkpt lat="45.76344374132616" lon="8.851222938551377"><ele>409.0</ele><time>2026-04-29T15:24:46Z</time></trkpt><trkpt lat="45.76336389558653" lon="8.85132259947082"><ele>409.0</ele><time>2026-04-29T15:24:47Z</time></trkpt><trkpt lat="45.76329652519243" lon="8.851373593104734"><ele>409.00000000000006</ele><time>2026-04-29T15:24:48Z</time></trkpt><trkpt lat="45.763234673631516" lon="8.851427097410081"><ele>409.0</ele><time>2026-04-29T15:24:49Z</time></trkpt><trkpt lat="45.76317040547888" lon="8.851502646935025"><ele>409.0</ele><time>2026-04-29T15:24:50Z</time></trkpt><trkpt lat="45.76312908266489" lon="8.851589732985104"><ele>409.0</ele><time>2026-04-29T15:24:51Z</time></trkpt><trkpt lat="45.76308499810093" lon="8.851670475767111"><ele>409.00000000000006</ele><time>2026-04-29T15:24:52Z</time></trkpt><trkpt lat="45.76302280139874" lon="8.851772152577386"><ele>409.0</ele><time>2026-04-29T15:24:53Z</time></trkpt><trkpt lat="45.76296308796245" lon="8.8518682472293"><ele>408.2</ele><time>2026-04-29T15:24:54Z</time></trkpt><trkpt lat="45.76289735973248" lon="8.852015176302185"><ele>407.4</ele><time>2026-04-29T15:24:55Z</time></trkpt><trkpt lat="45.762828587136944" lon="8.852118735711082"><ele>406.6</ele><time>2026-04-29T15:24:56Z</time></trkpt><trkpt lat="45.76277319330085" lon="8.852238017438435"><ele>405.8</ele><time>2026-04-29T15:24:57Z</time></trkpt><trkpt lat="45.76271225505031" lon="8.852380288166522"><ele>405.0</ele><time>2026-04-29T15:24:58Z</time></trkpt><trkpt lat="45.76265492433996" lon="8.852475809075875"><ele>405.0</ele><time>2026-04-29T15:24:59Z</time></trkpt><trkpt lat="45.76258498344374" lon="8.852566884847967"><ele>405.0</ele><time>2026-04-29T15:25:01Z</time></trkpt><trkpt lat="45.76251733420883" lon="8.852689570397388"><ele>405.0</ele><time>2026-04-29T15:25:03Z</time></trkpt><trkpt lat="45.762489428918535" lon="8.852773954005785"><ele>405.0</ele><time>2026-04-29T15:25:04Z</time></trkpt><trkpt lat="45.76244242110738" lon="8.8528617834366"><ele>405.0</ele><time>2026-04-29T15:25:05Z</time></trkpt><trkpt lat="45.7623889239095" lon="8.852998320939006"><ele>404.3333333333333</ele><time>2026-04-29T15:25:06.999Z</time></trkpt><trkpt lat="45.76236225412775" lon="8.853133165615839"><ele>403.66666666666663</ele><time>2026-04-29T15:25:08.999Z</time></trkpt><trkpt lat="45.76229393313313" lon="8.853214282273761"><ele>403.0</ele><time>2026-04-29T15:25:10.999Z</time></trkpt><trkpt lat="45.762243048472364" lon="8.853288834777013"><ele>402.3333333333333</ele><time>2026-04-29T15:25:11.999Z</time></trkpt><trkpt lat="45.76220240782408" lon="8.853358452497838"><ele>401.66666666666663</ele><time>2026-04-29T15:25:12.999Z</time></trkpt><trkpt lat="45.76214044965013" lon="8.853410540825543"><ele>401.0</ele><time>2026-04-29T15:25:13.999Z</time></trkpt><trkpt lat="45.7620306037958" lon="8.853500374440214"><ele>400.16666666666663</ele><time>2026-04-29T15:25:15.999Z</time></trkpt><trkpt lat="45.76195708376757" lon="8.853537131048077"><ele>399.3333333333333</ele><time>2026-04-29T15:25:16.999Z</time></trkpt><trkpt lat="45.76185716523713" lon="8.853564062237403"><ele>398.5</ele><time>2026-04-29T15:25:18.999Z</time></trkpt><trkpt lat="45.76177285431839" lon="8.853548864138668"><ele>397.66666666666663</ele><time>2026-04-29T15:25:25.999Z</time></trkpt><trkpt lat="45.7616921864254" lon="8.853558536954646"><ele>396.8333333333333</ele><time>2026-04-29T15:25:29.999Z</time></trkpt><trkpt lat="45.76161867667963" lon="8.85355275272059"><ele>396.0</ele><time>2026-04-29T15:25:32.999Z</time></trkpt><trkpt lat="45.761530619572575" lon="8.853550327572945"><ele>396.0</ele><time>2026-04-29T15:25:36.999Z</time></trkpt><trkpt lat="45.7614369185293" lon="8.853545995059976"><ele>396.0</ele><time>2026-04-29T15:25:39.999Z</time></trkpt><trkpt lat="45.76137045890099" lon="8.853537609380192"><ele>396.0</ele><time>2026-04-29T15:25:44.999Z</time></trkpt><trkpt lat="45.76144222094875" lon="8.853528977094577"><ele>396.0</ele><time>2026-04-29T15:25:50.999Z</time></trkpt><trkpt lat="45.76151943265184" lon="8.85350552057597"><ele>396.0</ele><time>2026-04-29T15:26:16Z</time></trkpt><trkpt lat="45.76159231594331" lon="8.853537463394169"><ele>396.0</ele><time>2026-04-29T15:26:24Z</time></trkpt><trkpt lat="45.761551850170214" lon="8.853467790349827"><ele>396.0</ele><time>2026-04-29T15:27:01Z</time></trkpt><trkpt lat="45.761603460561574" lon="8.853525047703535"><ele>396.0</ele><time>2026-04-29T15:27:15.999Z</time></trkpt><trkpt lat="45.76167253371788" lon="8.853540897920213"><ele>396.0</ele><time>2026-04-29T15:27:24.999Z</time></trkpt><trkpt lat="45.76173747745575" lon="8.853563396736776"><ele>396.0</ele><time>2026-04-29T15:27:26.999Z</time></trkpt><trkpt lat="45.76180441012817" lon="8.85354999072672"><ele>396.0</ele><time>2026-04-29T15:27:32.999Z</time></trkpt><trkpt lat="45.76173944635472" lon="8.853536366838487"><ele>396.0</ele><time>2026-04-29T15:27:37.999Z</time></trkpt><trkpt lat="45.76167523715272" lon="8.85353149073489"><ele>396.0</ele><time>2026-04-29T15:27:40.999Z</time></trkpt><trkpt lat="45.76160974565794" lon="8.853501109735687"><ele>396.0</ele><time>2026-04-29T15:27:46.999Z</time></trkpt><trkpt lat="45.76154493021473" lon="8.853481480639122"><ele>396.0</ele><time>2026-04-29T15:28:10Z</time></trkpt><trkpt lat="45.76146173221687" lon="8.85351164611527"><ele>396.0</ele><time>2026-04-29T15:28:21Z</time></trkpt><trkpt lat="45.76139605190757" lon="8.853501009486145"><ele>396.0</ele><time>2026-04-29T15:28:23Z</time></trkpt><trkpt lat="45.76147702890172" lon="8.853518371698371"><ele>396.0</ele><time>2026-04-29T15:28:34Z</time></trkpt><trkpt lat="45.76157234592452" lon="8.853527021040149"><ele>396.0</ele><time>2026-04-29T15:28:36Z</time></trkpt><trkpt lat="45.761692636810515" lon="8.85353248970664"><ele>396.0</ele><time>2026-04-29T15:28:38Z</time></trkpt><trkpt lat="45.761822755787236" lon="8.853542534631174"><ele>396.0</ele><time>2026-04-29T15:28:40Z</time></trkpt><trkpt lat="45.761891957737625" lon="8.853521686990046"><ele>396.0</ele><time>2026-04-29T15:28:41Z</time></trkpt><trkpt lat="45.76196956100915" lon="8.853469384648333"><ele>396.0</ele><time>2026-04-29T15:28:43Z</time></trkpt><trkpt lat="45.762070690039266" lon="8.853394165135619"><ele>396.0</ele><time>2026-04-29T15:28:45Z</time></trkpt><trkpt lat="45.76215998139156" lon="8.853300192946936"><ele>396.8333333333333</ele><time>2026-04-29T15:28:47Z</time></trkpt><trkpt lat="45.76221712483785" lon="8.853219537101067"><ele>397.66666666666663</ele><time>2026-04-29T15:28:48Z</time></trkpt><trkpt lat="45.762266670934395" lon="8.853160847238641"><ele>398.5</ele><time>2026-04-29T15:28:49Z</time></trkpt><trkpt lat="45.76231860735566" lon="8.853032007871722"><ele>399.3333333333333</ele><time>2026-04-29T15:28:51Z</time></trkpt><trkpt lat="45.76236376535716" lon="8.852930085968826"><ele>400.16666666666663</ele><time>2026-04-29T15:28:52Z</time></trkpt><trkpt lat="45.76241702722231" lon="8.852841450223469"><ele>401.0</ele><time>2026-04-29T15:28:53Z</time></trkpt><trkpt lat="45.762478275395196" lon="8.852731508675719"><ele>401.5</ele><time>2026-04-29T15:28:54Z</time></trkpt><trkpt lat="45.762536725089106" lon="8.852596115464564"><ele>402.0</ele><time>2026-04-29T15:28:56Z</time></trkpt><trkpt lat="45.762625458747706" lon="8.852445788475546"><ele>402.5</ele><time>2026-04-29T15:28:58Z</time></trkpt><trkpt lat="45.762706234866805" lon="8.852314715374805"><ele>403.0</ele><time>2026-04-29T15:28:59Z</time></trkpt><trkpt lat="45.762786025318654" lon="8.852189192003642"><ele>403.00000000000006</ele><time>2026-04-29T15:29:00Z</time></trkpt><trkpt lat="45.762836281201814" lon="8.85210393692225"><ele>403.0</ele><time>2026-04-29T15:29:01Z</time></trkpt><trkpt lat="45.762898062986814" lon="8.852029335139482"><ele>403.0</ele><time>2026-04-29T15:29:02Z</time></trkpt><trkpt lat="45.76297291831079" lon="8.851930647267023"><ele>403.0</ele><time>2026-04-29T15:29:03Z</time></trkpt><trkpt lat="45.76303577336224" lon="8.851826202274365"><ele>403.00000000000006</ele><time>2026-04-29T15:29:04Z</time></trkpt><trkpt lat="45.763081014107335" lon="8.851743544694973"><ele>403.0</ele><time>2026-04-29T15:29:05Z</time></trkpt><trkpt lat="45.76312477449159" lon="8.851623612655475"><ele>404.2</ele><time>2026-04-29T15:29:07Z</time></trkpt><trkpt lat="45.76315646922218" lon="8.851527863221188"><ele>405.4</ele><time>2026-04-29T15:29:08Z</time></trkpt><trkpt lat="45.76323867239546" lon="8.85139769585103"><ele>406.59999999999997</ele><time>2026-04-29T15:29:10Z</time></trkpt><trkpt lat="45.763288410582994" lon="8.851239668533282"><ele>407.79999999999995</ele><time>2026-04-29T15:29:12Z</time></trkpt><trkpt lat="45.763341913337186" lon="8.851159727405417"><ele>409.0</ele><time>2026-04-29T15:29:14Z</time></trkpt><trkpt lat="45.76340433405086" lon="8.851174586324067"><ele>409.00000000000006</ele><time>2026-04-29T15:29:17.999Z</time></trkpt><trkpt lat="45.76348703510227" lon="8.851250975877207"><ele>409.0</ele><time>2026-04-29T15:29:21.999Z</time></trkpt><trkpt lat="45.76357920276172" lon="8.851311240548029"><ele>409.0</ele><time>2026-04-29T15:29:23.999Z</time></trkpt><trkpt lat="45.763629165047" lon="8.851405686302487"><ele>409.0</ele><time>2026-04-29T15:29:29.999Z</time></trkpt><trkpt lat="45.763684163403454" lon="8.85146250255542"><ele>409.00000000000006</ele><time>2026-04-29T15:29:31.999Z</time></trkpt><trkpt lat="45.76374404524843" lon="8.8515055215774"><ele>409.0</ele><time>2026-04-29T15:29:32.999Z</time></trkpt><trkpt lat="45.763812851163046" lon="8.851539667516485"><ele>409.0</ele><time>2026-04-29T15:29:33.999Z</time></trkpt><trkpt lat="45.763895746519516" lon="8.85152187873318"><ele>409.0</ele><time>2026-04-29T15:29:34.999Z</time></trkpt><trkpt lat="45.76401133087491" lon="8.851602464852572"><ele>409.0</ele><time>2026-04-29T15:29:35.999Z</time></trkpt><trkpt lat="45.76413138187834" lon="8.851584234488655"><ele>409.0</ele><time>2026-04-29T15:29:37.999Z</time></trkpt><trkpt lat="45.76424098636386" lon="8.851523636737554"><ele>409.0</ele><time>2026-04-29T15:29:39.999Z</time></trkpt><trkpt lat="45.76432676738974" lon="8.851464516200691"><ele>409.0</ele><time>2026-04-29T15:29:41.999Z</time></trkpt><trkpt lat="45.764567341994" lon="8.851422599897509"><ele>409.0</ele><time>2026-04-29T15:29:44.999Z</time></trkpt><trkpt lat="45.7646722794759" lon="8.851382537238635"><ele>409.0</ele><time>2026-04-29T15:29:45.999Z</time></trkpt><trkpt lat="45.7647903074101" lon="8.851333256626042"><ele>407.6666666666667</ele><time>2026-04-29T15:29:47.999Z</time></trkpt><trkpt lat="45.764864207512744" lon="8.851289823191575"><ele>406.33333333333337</ele><time>2026-04-29T15:29:48.999Z</time></trkpt><trkpt lat="45.76495549427422" lon="8.851238885891958"><ele>405.0</ele><time>2026-04-29T15:29:49.999Z</time></trkpt><trkpt lat="45.765031454058686" lon="8.85119617461543"><ele>403.66666666666663</ele><time>2026-04-29T15:29:50.999Z</time></trkpt><trkpt lat="45.765079249963854" lon="8.851136541091828"><ele>402.3333333333333</ele><time>2026-04-29T15:29:54.999Z</time></trkpt><trkpt lat="45.765171146671655" lon="8.85114665848309"><ele>401.0</ele><time>2026-04-29T15:29:56.999Z</time></trkpt><trkpt lat="45.765213643972814" lon="8.851255011745474"><ele>400.66666666666663</ele><time>2026-04-29T15:29:58.999Z</time></trkpt><trkpt lat="45.76527593174806" lon="8.851339430054294"><ele>400.33333333333337</ele><time>2026-04-29T15:30:00.999Z</time></trkpt><trkpt lat="45.76527608380873" lon="8.85145764813495"><ele>400.0</ele><time>2026-04-29T15:30:02.999Z</time></trkpt><trkpt lat="45.76535615155444" lon="8.851970631145354"><ele>398.5</ele><time>2026-04-29T15:30:04.999Z</time></trkpt><trkpt lat="45.76544729430901" lon="8.852128423673575"><ele>397.0</ele><time>2026-04-29T15:30:05.999Z</time></trkpt><trkpt lat="45.76557744167995" lon="8.852249006811265"><ele>395.5</ele><time>2026-04-29T15:30:06.999Z</time></trkpt><trkpt lat="45.765639704571385" lon="8.852300957973688"><ele>394.0</ele><time>2026-04-29T15:30:07.999Z</time></trkpt><trkpt lat="45.76570535430584" lon="8.852371038669487"><ele>394.0</ele><time>2026-04-29T15:30:08.999Z</time></trkpt><trkpt lat="45.76577657417438" lon="8.852498983985084"><ele>394.0</ele><time>2026-04-29T15:30:09.999Z</time></trkpt><trkpt lat="45.765839223452524" lon="8.852657831702434"><ele>394.0</ele><time>2026-04-29T15:30:10.999Z</time></trkpt><trkpt lat="45.76589961523065" lon="8.852759895644107"><ele>394.0</ele><time>2026-04-29T15:30:12Z</time></trkpt><trkpt lat="45.76594091622771" lon="8.85285984554562"><ele>394.0</ele><time>2026-04-29T15:30:13Z</time></trkpt><trkpt lat="45.76599466001206" lon="8.852953313618489"><ele>390.0</ele><time>2026-04-29T15:30:14Z</time></trkpt><trkpt lat="45.766057360172624" lon="8.853054579534938"><ele>386.0</ele><time>2026-04-29T15:30:15Z</time></trkpt><trkpt lat="45.766115581303964" lon="8.853145772242275"><ele>382.0</ele><time>2026-04-29T15:30:16Z</time></trkpt><trkpt lat="45.7661973894346" lon="8.853273566392842"><ele>378.0</ele><time>2026-04-29T15:30:17Z</time></trkpt><trkpt lat="45.76630609372634" lon="8.853333724282713"><ele>374.0</ele><time>2026-04-29T15:30:18Z</time></trkpt><trkpt lat="45.7663758782019" lon="8.853398246570265"><ele>372.5</ele><time>2026-04-29T15:30:19Z</time></trkpt><trkpt lat="45.76643224786601" lon="8.853480379657263"><ele>371.0</ele><time>2026-04-29T15:30:20Z</time></trkpt><trkpt lat="45.76646458121409" lon="8.853569546862794"><ele>369.5</ele><time>2026-04-29T15:30:21Z</time></trkpt><trkpt lat="45.76648348087234" lon="8.85366616305491"><ele>368.0</ele><time>2026-04-29T15:30:22Z</time></trkpt><trkpt lat="45.76647685103508" lon="8.853780697818866"><ele>366.5</ele><time>2026-04-29T15:30:23Z</time></trkpt><trkpt lat="45.766485702912156" lon="8.853930254779296"><ele>365.0</ele><time>2026-04-29T15:30:24Z</time></trkpt><trkpt lat="45.766472705704714" lon="8.854110404589703"><ele>365.0</ele><time>2026-04-29T15:30:25Z</time></trkpt><trkpt lat="45.766463496985246" lon="8.854261287896062"><ele>365.0</ele><time>2026-04-29T15:30:26Z</time></trkpt><trkpt lat="45.766461797915056" lon="8.854403345878932"><ele>365.0</ele><time>2026-04-29T15:30:27Z</time></trkpt><trkpt lat="45.76644616494755" lon="8.854532189268488"><ele>365.0</ele><time>2026-04-29T15:30:28Z</time></trkpt><trkpt lat="45.76644851483037" lon="8.854643300818902"><ele>365.0</ele><time>2026-04-29T15:30:29Z</time></trkpt><trkpt lat="45.76643672889256" lon="8.854743039391417"><ele>365.0</ele><time>2026-04-29T15:30:30Z</time></trkpt><trkpt lat="45.76643287278795" lon="8.854888306023394"><ele>364.8</ele><time>2026-04-29T15:30:32Z</time></trkpt><trkpt lat="45.76639540296641" lon="8.85498972943261"><ele>364.6</ele><time>2026-04-29T15:30:34Z</time></trkpt><trkpt lat="45.766447872842996" lon="8.85512837710026"><ele>364.4</ele><time>2026-04-29T15:30:35Z</time></trkpt><trkpt lat="45.76643682388374" lon="8.855268435139877"><ele>364.2</ele><time>2026-04-29T15:30:36Z</time></trkpt><trkpt lat="45.76642464294337" lon="8.855408492490675"><ele>364.0</ele><time>2026-04-29T15:30:37Z</time></trkpt><trkpt lat="45.766418621451905" lon="8.855508244582209"><ele>364.0</ele><time>2026-04-29T15:30:38Z</time></trkpt><trkpt lat="45.76640064309728" lon="8.855620821870314"><ele>364.0</ele><time>2026-04-29T15:30:39.999Z</time></trkpt><trkpt lat="45.76638735456074" lon="8.855800151651971"><ele>364.0</ele><time>2026-04-29T15:30:41.999Z</time></trkpt><trkpt lat="45.76637729592211" lon="8.855919577719028"><ele>364.0</ele><time>2026-04-29T15:30:42.999Z</time></trkpt><trkpt lat="45.76636750693628" lon="8.856068778905254"><ele>364.0</ele><time>2026-04-29T15:30:43.999Z</time></trkpt><trkpt lat="45.766359260218564" lon="8.856205443229278"><ele>364.3333333333333</ele><time>2026-04-29T15:30:44.999Z</time></trkpt><trkpt lat="45.76635259346547" lon="8.856318078314109"><ele>364.66666666666663</ele><time>2026-04-29T15:30:45.999Z</time></trkpt><trkpt lat="45.766347585650124" lon="8.856417715398585"><ele>365.0</ele><time>2026-04-29T15:30:46.999Z</time></trkpt><trkpt lat="45.76634273465541" lon="8.856517407294266"><ele>365.3333333333333</ele><time>2026-04-29T15:30:47.999Z</time></trkpt><trkpt lat="45.76634911164189" lon="8.856689196105823"><ele>365.6666666666667</ele><time>2026-04-29T15:30:49.999Z</time></trkpt><trkpt lat="45.766359449287094" lon="8.85678085435555"><ele>366.0</ele><time>2026-04-29T15:30:51.999Z</time></trkpt><trkpt lat="45.76642129950158" lon="8.856848307882714"><ele>366.0</ele><time>2026-04-29T15:30:56.999Z</time></trkpt><trkpt lat="45.76650096668332" lon="8.856910318188897"><ele>366.0</ele><time>2026-04-29T15:30:58.999Z</time></trkpt><trkpt lat="45.76653399071356" lon="8.857062336632952"><ele>366.0</ele><time>2026-04-29T15:31:02.999Z</time></trkpt><trkpt lat="45.76655422065857" lon="8.857227517699075"><ele>366.0</ele><time>2026-04-29T15:31:03.999Z</time></trkpt><trkpt lat="45.766565748472956" lon="8.857415841407697"><ele>366.0</ele><time>2026-04-29T15:31:04.999Z</time></trkpt><trkpt lat="45.76657551676867" lon="8.857591810631344"><ele>366.0</ele><time>2026-04-29T15:31:05.999Z</time></trkpt><trkpt lat="45.76658482420927" lon="8.857708759067794"><ele>366.0</ele><time>2026-04-29T15:31:06.999Z</time></trkpt><trkpt lat="45.766591555019495" lon="8.857800427093805"><ele>366.0</ele><time>2026-04-29T15:31:07.999Z</time></trkpt><trkpt lat="45.766600283468755" lon="8.857924170054778"><ele>366.0</ele><time>2026-04-29T15:31:09.999Z</time></trkpt><trkpt lat="45.766593578262984" lon="8.858017095212814"><ele>366.0</ele><time>2026-04-29T15:31:11.999Z</time></trkpt><trkpt lat="45.766564874537" lon="8.858111464074554"><ele>365.5</ele><time>2026-04-29T15:31:13.999Z</time></trkpt><trkpt lat="45.76647033128076" lon="8.858189467594757"><ele>365.0</ele><time>2026-04-29T15:31:15.999Z</time></trkpt><trkpt lat="45.76638705499993" lon="8.858237495800223"><ele>364.5</ele><time>2026-04-29T15:31:16.999Z</time></trkpt><trkpt lat="45.76629830876135" lon="8.858278665816552"><ele>364.0</ele><time>2026-04-29T15:31:17.999Z</time></trkpt><trkpt lat="45.76623013754804" lon="8.858308428934741"><ele>363.5</ele><time>2026-04-29T15:31:18.999Z</time></trkpt><trkpt lat="45.76616668635661" lon="8.85832822206337"><ele>363.0</ele><time>2026-04-29T15:31:19.999Z</time></trkpt><trkpt lat="45.76605085276531" lon="8.858336800433797"><ele>362.4</ele><time>2026-04-29T15:31:21.999Z</time></trkpt><trkpt lat="45.765933550250416" lon="8.858303563293077"><ele>361.79999999999995</ele><time>2026-04-29T15:31:23.999Z</time></trkpt><trkpt lat="45.76586666340767" lon="8.85826084878595"><ele>361.2</ele><time>2026-04-29T15:31:24.999Z</time></trkpt><trkpt lat="45.765804325512654" lon="8.858226755463905"><ele>360.6</ele><time>2026-04-29T15:31:25.999Z</time></trkpt><trkpt lat="45.765689721060824" lon="8.858180739695594"><ele>360.0</ele><time>2026-04-29T15:31:27.999Z</time></trkpt><trkpt lat="45.76561773431745" lon="8.858153142562456"><ele>360.0</ele><time>2026-04-29T15:31:28.999Z</time></trkpt><trkpt lat="45.765542006950895" lon="8.858121734446293"><ele>360.0</ele><time>2026-04-29T15:31:29.999Z</time></trkpt><trkpt lat="45.76547821808607" lon="8.858092879724754"><ele>360.0</ele><time>2026-04-29T15:31:30.999Z</time></trkpt><trkpt lat="45.765407515604515" lon="8.858067749687402"><ele>360.0</ele><time>2026-04-29T15:31:31.999Z</time></trkpt><trkpt lat="45.76534086268752" lon="8.8580271332468"><ele>360.0</ele><time>2026-04-29T15:31:32.999Z</time></trkpt><trkpt lat="45.76526632351116" lon="8.857943270370356"><ele>360.0</ele><time>2026-04-29T15:31:34.999Z</time></trkpt><trkpt lat="45.76515536085207" lon="8.857895846697984"><ele>358.8333333333333</ele><time>2026-04-29T15:31:39.999Z</time></trkpt><trkpt lat="45.76508293176885" lon="8.857872141079737"><ele>357.6666666666667</ele><time>2026-04-29T15:31:40.999Z</time></trkpt><trkpt lat="45.765002844339655" lon="8.857834982326118"><ele>356.5</ele><time>2026-04-29T15:31:41.999Z</time></trkpt><trkpt lat="45.764924346937036" lon="8.857797066823073"><ele>355.33333333333337</ele><time>2026-04-29T15:31:42.999Z</time></trkpt><trkpt lat="45.76484494013631" lon="8.857775907330263"><ele>354.1666666666667</ele><time>2026-04-29T15:31:43.999Z</time></trkpt><trkpt lat="45.76477992533141" lon="8.857759221965734"><ele>353.0</ele><time>2026-04-29T15:31:44.999Z</time></trkpt><trkpt lat="45.7647059034368" lon="8.857763884645081"><ele>353.0</ele><time>2026-04-29T15:31:45.999Z</time></trkpt><trkpt lat="45.76461676617169" lon="8.857759303057252"><ele>353.0</ele><time>2026-04-29T15:31:46.999Z</time></trkpt><trkpt lat="45.76455291051086" lon="8.857758184083073"><ele>353.0</ele><time>2026-04-29T15:31:47.999Z</time></trkpt><trkpt lat="45.764475368513" lon="8.857775931406612"><ele>353.0</ele><time>2026-04-29T15:31:48.999Z</time></trkpt><trkpt lat="45.764400139175855" lon="8.857795061158617"><ele>353.0</ele><time>2026-04-29T15:31:49.999Z</time></trkpt><trkpt lat="45.76431573099784" lon="8.857823778229756"><ele>353.0</ele><time>2026-04-29T15:31:50.999Z</time></trkpt><trkpt lat="45.76422810664698" lon="8.857859200704414"><ele>351.2</ele><time>2026-04-29T15:31:51.999Z</time></trkpt><trkpt lat="45.76413893716204" lon="8.857889018553522"><ele>349.4</ele><time>2026-04-29T15:31:52.999Z</time></trkpt><trkpt lat="45.76405986145149" lon="8.857916497199389"><ele>347.59999999999997</ele><time>2026-04-29T15:31:53.999Z</time></trkpt><trkpt lat="45.7639557242283" lon="8.857953153446973"><ele>345.79999999999995</ele><time>2026-04-29T15:31:55.999Z</time></trkpt><trkpt lat="45.763853485628935" lon="8.857958570213711"><ele>344.0</ele><time>2026-04-29T15:31:57.999Z</time></trkpt><trkpt lat="45.76373084583914" lon="8.85794971944163"><ele>344.0</ele><time>2026-04-29T15:31:59.999Z</time></trkpt><trkpt lat="45.763637959178155" lon="8.857938271954618"><ele>344.0</ele><time>2026-04-29T15:32:01.999Z</time></trkpt><trkpt lat="45.763578548205984" lon="8.857908089157778"><ele>344.0</ele><time>2026-04-29T15:32:03.999Z</time></trkpt><trkpt lat="45.763675568953964" lon="8.857936655712074"><ele>344.0</ele><time>2026-04-29T15:32:11.999Z</time></trkpt><trkpt lat="45.76373796502466" lon="8.857950147769559"><ele>344.0</ele><time>2026-04-29T15:32:12.999Z</time></trkpt><trkpt lat="45.76382596420055" lon="8.85794839254237"><ele>344.0</ele><time>2026-04-29T15:32:13.999Z</time></trkpt><trkpt lat="45.76389917822813" lon="8.857953149149003"><ele>344.0</ele><time>2026-04-29T15:32:14.999Z</time></trkpt><trkpt lat="45.763962474549196" lon="8.85794601851987"><ele>344.0</ele><time>2026-04-29T15:32:15.999Z</time></trkpt><trkpt lat="45.764068009659944" lon="8.857904246791717"><ele>344.0</ele><time>2026-04-29T15:32:17.999Z</time></trkpt><trkpt lat="45.76414231118624" lon="8.857863093190687"><ele>344.0</ele><time>2026-04-29T15:32:18.999Z</time></trkpt><trkpt lat="45.76423941115802" lon="8.857827931081529"><ele>344.0</ele><time>2026-04-29T15:32:19.999Z</time></trkpt><trkpt lat="45.76434109567734" lon="8.857803619379235"><ele>345.79999999999995</ele><time>2026-04-29T15:32:20.999Z</time></trkpt><trkpt lat="45.76444427753016" lon="8.857766799845168"><ele>347.59999999999997</ele><time>2026-04-29T15:32:21.999Z</time></trkpt><trkpt lat="45.7645415860726" lon="8.857747745371185"><ele>349.4</ele><time>2026-04-29T15:32:23Z</time></trkpt><trkpt lat="45.764633713432346" lon="8.857749230246979"><ele>351.2</ele><time>2026-04-29T15:32:24Z</time></trkpt><trkpt lat="45.764730868247796" lon="8.85774894106757"><ele>353.0</ele><time>2026-04-29T15:32:25Z</time></trkpt><trkpt lat="45.76482089289312" lon="8.857765138160179"><ele>353.0</ele><time>2026-04-29T15:32:26Z</time></trkpt><trkpt lat="45.764909114247025" lon="8.857788251074416"><ele>353.0</ele><time>2026-04-29T15:32:27Z</time></trkpt><trkpt lat="45.76500028455278" lon="8.857827780057624"><ele>353.0</ele><time>2026-04-29T15:32:28Z</time></trkpt><trkpt lat="45.76509811623132" lon="8.857874392611471"><ele>353.0</ele><time>2026-04-29T15:32:29Z</time></trkpt><trkpt lat="45.76518478303525" lon="8.857910173437796"><ele>353.0</ele><time>2026-04-29T15:32:30Z</time></trkpt><trkpt lat="45.76525427695201" lon="8.857943344896022"><ele>354.1666666666667</ele><time>2026-04-29T15:32:31Z</time></trkpt><trkpt lat="45.76532663358445" lon="8.857988918494065"><ele>355.33333333333337</ele><time>2026-04-29T15:32:32Z</time></trkpt><trkpt lat="45.7654095412966" lon="8.858043014988349"><ele>356.5</ele><time>2026-04-29T15:32:33Z</time></trkpt><trkpt lat="45.76549821256692" lon="8.858092393809606"><ele>357.6666666666667</ele><time>2026-04-29T15:32:34Z</time></trkpt><trkpt lat="45.76556804405234" lon="8.858158761740915"><ele>358.8333333333333</ele><time>2026-04-29T15:32:35Z</time></trkpt><trkpt lat="45.765647664335994" lon="8.858184727441936"><ele>360.0</ele><time>2026-04-29T15:32:36Z</time></trkpt><trkpt lat="45.76572926390641" lon="8.858217053356706"><ele>360.0</ele><time>2026-04-29T15:32:37Z</time></trkpt><trkpt lat="45.76582101065953" lon="8.858253476268093"><ele>360.0</ele><time>2026-04-29T15:32:38Z</time></trkpt><trkpt lat="45.76592255497701" lon="8.858296738314595"><ele>360.0</ele><time>2026-04-29T15:32:39Z</time></trkpt><trkpt lat="45.766011114350505" lon="8.858338513958238"><ele>360.0</ele><time>2026-04-29T15:32:40Z</time></trkpt><trkpt lat="45.766098414696366" lon="8.858355430029222"><ele>360.0</ele><time>2026-04-29T15:32:41Z</time></trkpt><trkpt lat="45.766205431204426" lon="8.858335561153538"><ele>360.6</ele><time>2026-04-29T15:32:42Z</time></trkpt><trkpt lat="45.766314734370674" lon="8.858284831908579"><ele>361.2</ele><time>2026-04-29T15:32:43Z</time></trkpt><trkpt lat="45.76641208401787" lon="8.858227111816854"><ele>361.79999999999995</ele><time>2026-04-29T15:32:44Z</time></trkpt><trkpt lat="45.76648133142444" lon="8.858174721975507"><ele>362.4</ele><time>2026-04-29T15:32:45Z</time></trkpt><trkpt lat="45.76657858449905" lon="8.858085728626454"><ele>363.0</ele><time>2026-04-29T15:32:47Z</time></trkpt><trkpt lat="45.76659648185636" lon="8.85791345425197"><ele>363.0</ele><time>2026-04-29T15:32:49Z</time></trkpt><trkpt lat="45.76659357860792" lon="8.857794388810369"><ele>363.0</ele><time>2026-04-29T15:32:50Z</time></trkpt><trkpt lat="45.766570000748516" lon="8.857602957058788"><ele>363.0</ele><time>2026-04-29T15:32:51Z</time></trkpt><trkpt lat="45.76655427982662" lon="8.857390146471587"><ele>363.0</ele><time>2026-04-29T15:32:52Z</time></trkpt><trkpt lat="45.7665439474962" lon="8.857257595873335"><ele>363.5</ele><time>2026-04-29T15:32:53Z</time></trkpt><trkpt lat="45.766536068315965" lon="8.857157353065272"><ele>364.0</ele><time>2026-04-29T15:32:54Z</time></trkpt><trkpt lat="45.76651304631259" lon="8.857011445914829"><ele>364.5</ele><time>2026-04-29T15:32:56Z</time></trkpt><trkpt lat="45.76647510813098" lon="8.856935966073836"><ele>365.0</ele><time>2026-04-29T15:32:59Z</time></trkpt><trkpt lat="45.766437013703566" lon="8.856861591963652"><ele>365.5</ele><time>2026-04-29T15:33:01Z</time></trkpt><trkpt lat="45.76637169259899" lon="8.856799737023502"><ele>366.0</ele><time>2026-04-29T15:33:03Z</time></trkpt><trkpt lat="45.76634532484997" lon="8.85668101081661"><ele>366.0</ele><time>2026-04-29T15:33:06Z</time></trkpt><trkpt lat="45.76633895475859" lon="8.85653796099459"><ele>366.0</ele><time>2026-04-29T15:33:09Z</time></trkpt><trkpt lat="45.766342966684526" lon="8.856436078396218"><ele>366.0</ele><time>2026-04-29T15:33:11Z</time></trkpt><trkpt lat="45.7663659476785" lon="8.85626209683537"><ele>366.0</ele><time>2026-04-29T15:33:13Z</time></trkpt><trkpt lat="45.766368878958424" lon="8.856168740899422"><ele>366.0</ele><time>2026-04-29T15:33:14Z</time></trkpt><trkpt lat="45.76637911783306" lon="8.855978932331741"><ele>365.6</ele><time>2026-04-29T15:33:16Z</time></trkpt><trkpt lat="45.766388529400174" lon="8.855884159104809"><ele>365.20000000000005</ele><time>2026-04-29T15:33:17Z</time></trkpt><trkpt lat="45.76640396995881" lon="8.855709611417424"><ele>364.79999999999995</ele><time>2026-04-29T15:33:19Z</time></trkpt><trkpt lat="45.76641160038247" lon="8.855592882753628"><ele>364.4</ele><time>2026-04-29T15:33:20Z</time></trkpt><trkpt lat="45.7664291637278" lon="8.855449486371679"><ele>364.0</ele><time>2026-04-29T15:33:22Z</time></trkpt><trkpt lat="45.76644183769167" lon="8.855280079264833"><ele>364.0</ele><time>2026-04-29T15:33:24Z</time></trkpt><trkpt lat="45.76641677503264" lon="8.8551964506071"><ele>364.0</ele><time>2026-04-29T15:33:28Z</time></trkpt><trkpt lat="45.766347345640234" lon="8.855209633724744"><ele>364.0</ele><time>2026-04-29T15:33:30Z</time></trkpt><trkpt lat="45.76627673990629" lon="8.855215011142194"><ele>364.0</ele><time>2026-04-29T15:33:32Z</time></trkpt><trkpt lat="45.76625540562309" lon="8.855308208306695"><ele>364.0</ele><time>2026-04-29T15:33:37Z</time></trkpt><trkpt lat="45.76630729495133" lon="8.855362350624961"><ele>364.0</ele><time>2026-04-29T15:33:39.999Z</time></trkpt><trkpt lat="45.766373573500644" lon="8.855316205019511"><ele>364.0</ele><time>2026-04-29T15:33:55.999Z</time></trkpt><trkpt lat="45.76637751416505" lon="8.85519743870679"><ele>364.0</ele><time>2026-04-29T15:33:57.999Z</time></trkpt><trkpt lat="45.76644798494473" lon="8.855231842541802"><ele>364.0</ele><time>2026-04-29T15:34:02.999Z</time></trkpt><trkpt lat="45.76642740739856" lon="8.855390845789369"><ele>364.0</ele><time>2026-04-29T15:34:04.999Z</time></trkpt><trkpt lat="45.7664145422209" lon="8.855527065653206"><ele>364.0</ele><time>2026-04-29T15:34:05.999Z</time></trkpt><trkpt lat="45.76639964630643" lon="8.855676670479717"><ele>364.0</ele><time>2026-04-29T15:34:06.999Z</time></trkpt><trkpt lat="45.76638681914403" lon="8.855837143380855"><ele>364.5</ele><time>2026-04-29T15:34:07.999Z</time></trkpt><trkpt lat="45.76637825366708" lon="8.855995307423926"><ele>365.0</ele><time>2026-04-29T15:34:08.999Z</time></trkpt><trkpt lat="45.76637257186777" lon="8.856181792382516"><ele>365.5</ele><time>2026-04-29T15:34:09.999Z</time></trkpt><trkpt lat="45.76635754143346" lon="8.85635249636454"><ele>366.0</ele><time>2026-04-29T15:34:10.999Z</time></trkpt><trkpt lat="45.766348272766045" lon="8.856488809939089"><ele>366.0</ele><time>2026-04-29T15:34:11.999Z</time></trkpt><trkpt lat="45.766350572685354" lon="8.856610488949043"><ele>366.0</ele><time>2026-04-29T15:34:12.999Z</time></trkpt><trkpt lat="45.76636454100676" lon="8.85674557756903"><ele>366.0</ele><time>2026-04-29T15:34:13.999Z</time></trkpt><trkpt lat="45.76644342246106" lon="8.856893865866766"><ele>366.0</ele><time>2026-04-29T15:34:15.999Z</time></trkpt><trkpt lat="45.76653769311644" lon="8.856951125224679"><ele>366.0</ele><time>2026-04-29T15:34:16.999Z</time></trkpt><trkpt lat="45.766654972124606" lon="8.857001316701977"><ele>366.0</ele><time>2026-04-29T15:34:17.999Z</time></trkpt><trkpt lat="45.76675882652577" lon="8.857064114785832"><ele>366.0</ele><time>2026-04-29T15:34:18.999Z</time></trkpt><trkpt lat="45.76688440202605" lon="8.857102888526537"><ele>366.0</ele><time>2026-04-29T15:34:19.999Z</time></trkpt><trkpt lat="45.76700704408571" lon="8.857111579142973"><ele>366.0</ele><time>2026-04-29T15:34:20.999Z</time></trkpt><trkpt lat="45.76711722209398" lon="8.857113828220808"><ele>366.20000000000005</ele><time>2026-04-29T15:34:21.999Z</time></trkpt><trkpt lat="45.76722020998756" lon="8.857104424393034"><ele>366.40000000000003</ele><time>2026-04-29T15:34:22.999Z</time></trkpt><trkpt lat="45.767332155183375" lon="8.857103558558237"><ele>366.6</ele><time>2026-04-29T15:34:24Z</time></trkpt><trkpt lat="45.76743302386473" lon="8.857103502127925"><ele>366.8</ele><time>2026-04-29T15:34:25Z</time></trkpt><trkpt lat="45.76753018559015" lon="8.857136046296887"><ele>367.0</ele><time>2026-04-29T15:34:26Z</time></trkpt><trkpt lat="45.76763762313559" lon="8.857195640380757"><ele>366.0</ele><time>2026-04-29T15:34:27Z</time></trkpt><trkpt lat="45.767754795397956" lon="8.857244139410493"><ele>365.0</ele><time>2026-04-29T15:34:28Z</time></trkpt><trkpt lat="45.76788113607744" lon="8.857263705213358"><ele>364.0</ele><time>2026-04-29T15:34:29Z</time></trkpt><trkpt lat="45.76799292761167" lon="8.857269857817842"><ele>363.0</ele><time>2026-04-29T15:34:30Z</time></trkpt><trkpt lat="45.76810098869684" lon="8.857291539230854"><ele>363.0</ele><time>2026-04-29T15:34:31Z</time></trkpt><trkpt lat="45.7682351024493" lon="8.85733078851818"><ele>363.0</ele><time>2026-04-29T15:34:32Z</time></trkpt><trkpt lat="45.76835291766361" lon="8.857376427475387"><ele>363.0</ele><time>2026-04-29T15:34:33Z</time></trkpt><trkpt lat="45.76844798280741" lon="8.857401995954271"><ele>363.0</ele><time>2026-04-29T15:34:34Z</time></trkpt><trkpt lat="45.76853073507584" lon="8.857426466966828"><ele>363.0</ele><time>2026-04-29T15:34:35Z</time></trkpt><trkpt lat="45.76859816107266" lon="8.857458895652861"><ele>362.6666666666667</ele><time>2026-04-29T15:34:36Z</time></trkpt><trkpt lat="45.76868076034249" lon="8.857509030816873"><ele>362.3333333333333</ele><time>2026-04-29T15:34:37Z</time></trkpt><trkpt lat="45.768756434925216" lon="8.857529114456202"><ele>362.0</ele><time>2026-04-29T15:34:38Z</time></trkpt><trkpt lat="45.768846624909536" lon="8.857552622677504"><ele>361.66666666666663</ele><time>2026-04-29T15:34:40Z</time></trkpt><trkpt lat="45.76891796902578" lon="8.85758171862155"><ele>361.3333333333333</ele><time>2026-04-29T15:34:43Z</time></trkpt><trkpt lat="45.7688604467972" lon="8.857544971092532"><ele>361.0</ele><time>2026-04-29T15:34:50Z</time></trkpt><trkpt lat="45.76869504843093" lon="8.857481487691276"><ele>361.0</ele><time>2026-04-29T15:34:52Z</time></trkpt><trkpt lat="45.76855034155368" lon="8.85744382628262"><ele>361.0</ele><time>2026-04-29T15:34:53Z</time></trkpt><trkpt lat="45.76842569699637" lon="8.857398746797697"><ele>361.0</ele><time>2026-04-29T15:34:54Z</time></trkpt><trkpt lat="45.76828861124445" lon="8.85735520025027"><ele>361.0</ele><time>2026-04-29T15:34:55Z</time></trkpt><trkpt lat="45.76816320828816" lon="8.85731881919034"><ele>361.5</ele><time>2026-04-29T15:34:56Z</time></trkpt><trkpt lat="45.768042001597955" lon="8.857284452715504"><ele>362.0</ele><time>2026-04-29T15:34:57Z</time></trkpt><trkpt lat="45.76793309830537" lon="8.857256072637716"><ele>362.5</ele><time>2026-04-29T15:34:58Z</time></trkpt><trkpt lat="45.767823739505545" lon="8.857240449009424"><ele>363.0</ele><time>2026-04-29T15:34:59Z</time></trkpt><trkpt lat="45.76769625891017" lon="8.857220820645804"><ele>363.79999999999995</ele><time>2026-04-29T15:35:00Z</time></trkpt><trkpt lat="45.767578459438575" lon="8.857176617508916"><ele>364.6</ele><time>2026-04-29T15:35:01Z</time></trkpt><trkpt lat="45.76748172307411" lon="8.85713355058949"><ele>365.4</ele><time>2026-04-29T15:35:02Z</time></trkpt><trkpt lat="45.76739526549779" lon="8.857093561059488"><ele>366.20000000000005</ele><time>2026-04-29T15:35:03Z</time></trkpt><trkpt lat="45.767304221850225" lon="8.857084667266632"><ele>367.0</ele><time>2026-04-29T15:35:04Z</time></trkpt><trkpt lat="45.767197808771" lon="8.857089609434986"><ele>367.0</ele><time>2026-04-29T15:35:05Z</time></trkpt><trkpt lat="45.767069665056766" lon="8.857097637041308"><ele>367.0</ele><time>2026-04-29T15:35:06Z</time></trkpt><trkpt lat="45.76694367851909" lon="8.857093427780447"><ele>367.0</ele><time>2026-04-29T15:35:07Z</time></trkpt><trkpt lat="45.766821298803386" lon="8.857076907651832"><ele>367.0</ele><time>2026-04-29T15:35:08Z</time></trkpt><trkpt lat="45.76671988630902" lon="8.857046466700519"><ele>366.8</ele><time>2026-04-29T15:35:09Z</time></trkpt><trkpt lat="45.76662381424809" lon="8.856996250552877"><ele>366.6</ele><time>2026-04-29T15:35:10Z</time></trkpt><trkpt lat="45.766532051288955" lon="8.856938376833426"><ele>366.40000000000003</ele><time>2026-04-29T15:35:11Z</time></trkpt><trkpt lat="45.76647047565453" lon="8.856893708400419"><ele>366.20000000000005</ele><time>2026-04-29T15:35:12Z</time></trkpt><trkpt lat="45.76652313260804" lon="8.857133713111494"><ele>366.0</ele><time>2026-04-29T15:35:19Z</time></trkpt><trkpt lat="45.76653497974098" lon="8.85732746170503"><ele>366.0</ele><time>2026-04-29T15:35:20Z</time></trkpt><trkpt lat="45.76655383006342" lon="8.857579738157794"><ele>366.0</ele><time>2026-04-29T15:35:21Z</time></trkpt><trkpt lat="45.76656292971782" lon="8.857752255251912"><ele>366.0</ele><time>2026-04-29T15:35:22Z</time></trkpt><trkpt lat="45.76658099930355" lon="8.857879430510788"><ele>366.0</ele><time>2026-04-29T15:35:23Z</time></trkpt><trkpt lat="45.76659961264267" lon="8.858000465921135"><ele>365.4</ele><time>2026-04-29T15:35:24Z</time></trkpt><trkpt lat="45.76655939988188" lon="8.858145573207986"><ele>364.8</ele><time>2026-04-29T15:35:26Z</time></trkpt><trkpt lat="45.76648954863041" lon="8.858220258311462"><ele>364.2</ele><time>2026-04-29T15:35:27Z</time></trkpt><trkpt lat="45.76640026110988" lon="8.858264448873372"><ele>363.59999999999997</ele><time>2026-04-29T15:35:28Z</time></trkpt><trkpt lat="45.766298367400225" lon="8.858312803992353"><ele>363.0</ele><time>2026-04-29T15:35:29Z</time></trkpt><trkpt lat="45.76619057978794" lon="8.858355407340778"><ele>363.0</ele><time>2026-04-29T15:35:30Z</time></trkpt><trkpt lat="45.76608828040509" lon="8.858387106141834"><ele>363.0</ele><time>2026-04-29T15:35:31Z</time></trkpt><trkpt lat="45.766004988155046" lon="8.858369925052576"><ele>363.0</ele><time>2026-04-29T15:35:32Z</time></trkpt><trkpt lat="45.765937159178755" lon="8.858345857743814"><ele>363.0</ele><time>2026-04-29T15:35:33Z</time></trkpt><trkpt lat="45.765859961078824" lon="8.85830527384324"><ele>363.0</ele><time>2026-04-29T15:35:34Z</time></trkpt><trkpt lat="45.76575674488668" lon="8.858228497699967"><ele>362.5</ele><time>2026-04-29T15:35:35Z</time></trkpt><trkpt lat="45.765684051255434" lon="8.85818238678198"><ele>362.0</ele><time>2026-04-29T15:35:36Z</time></trkpt><trkpt lat="45.765608395652905" lon="8.85814818440136"><ele>361.5</ele><time>2026-04-29T15:35:37Z</time></trkpt><trkpt lat="45.765521483303374" lon="8.858115822997071"><ele>361.0</ele><time>2026-04-29T15:35:38Z</time></trkpt><trkpt lat="45.76543962113676" lon="8.858070851205737"><ele>360.5</ele><time>2026-04-29T15:35:39Z</time></trkpt><trkpt lat="45.76536062763589" lon="8.858035599522463"><ele>360.0</ele><time>2026-04-29T15:35:40Z</time></trkpt><trkpt lat="45.76528369392918" lon="8.857984472184775"><ele>360.0</ele><time>2026-04-29T15:35:41Z</time></trkpt><trkpt lat="45.765184260463634" lon="8.857922440661136"><ele>360.0</ele><time>2026-04-29T15:35:43Z</time></trkpt><trkpt lat="45.765254841418326" lon="8.857918943096804"><ele>360.0</ele><time>2026-04-29T15:35:48.999Z</time></trkpt><trkpt lat="45.76529750810383" lon="8.857993728582729"><ele>360.0</ele><time>2026-04-29T15:35:50.999Z</time></trkpt><trkpt lat="45.76536980372142" lon="8.858050374036297"><ele>360.0</ele><time>2026-04-29T15:35:51.999Z</time></trkpt><trkpt lat="45.765445964454194" lon="8.858096571418434"><ele>360.0</ele><time>2026-04-29T15:35:52.999Z</time></trkpt><trkpt lat="45.76555298721424" lon="8.85815278620728"><ele>360.0</ele><time>2026-04-29T15:35:53.999Z</time></trkpt><trkpt lat="45.765701939179415" lon="8.85824533110256"><ele>360.0</ele><time>2026-04-29T15:35:54.999Z</time></trkpt><trkpt lat="45.76583417145645" lon="8.858302239719029"><ele>360.0</ele><time>2026-04-29T15:35:55.999Z</time></trkpt><trkpt lat="45.76594534613868" lon="8.858300108250953"><ele>360.0</ele><time>2026-04-29T15:35:56.999Z</time></trkpt><trkpt lat="45.76604108265151" lon="8.858347277961384"><ele>360.75</ele><time>2026-04-29T15:35:57.999Z</time></trkpt><trkpt lat="45.76613841138772" lon="8.858347541342875"><ele>361.5</ele><time>2026-04-29T15:35:58.999Z</time></trkpt><trkpt lat="45.766281446576635" lon="8.858290098319177"><ele>362.25</ele><time>2026-04-29T15:35:59.999Z</time></trkpt><trkpt lat="45.76641194216696" lon="8.8582033967746"><ele>363.0</ele><time>2026-04-29T15:36:00.999Z</time></trkpt><trkpt lat="45.766497867912534" lon="8.85815899168564"><ele>363.0</ele><time>2026-04-29T15:36:01.999Z</time></trkpt><trkpt lat="45.76654636844457" lon="8.858092659831057"><ele>363.0</ele><time>2026-04-29T15:36:02.999Z</time></trkpt><trkpt lat="45.76660897725185" lon="8.85794021593394"><ele>363.0</ele><time>2026-04-29T15:36:04.999Z</time></trkpt><trkpt lat="45.76662093069739" lon="8.857795092895705"><ele>363.0</ele><time>2026-04-29T15:36:05.999Z</time></trkpt><trkpt lat="45.76657498397482" lon="8.857592694281069"><ele>363.0</ele><time>2026-04-29T15:36:06.999Z</time></trkpt><trkpt lat="45.76656217283935" lon="8.85736076209382"><ele>363.59999999999997</ele><time>2026-04-29T15:36:07.999Z</time></trkpt><trkpt lat="45.76655355723899" lon="8.85719735639328"><ele>364.2</ele><time>2026-04-29T15:36:08.999Z</time></trkpt><trkpt lat="45.76653644609474" lon="8.85708423312754"><ele>364.8</ele><time>2026-04-29T15:36:09.999Z</time></trkpt><trkpt lat="45.76649316787255" lon="8.856947541662349"><ele>365.4</ele><time>2026-04-29T15:36:11.999Z</time></trkpt><trkpt lat="45.766618735002815" lon="8.856961226051839"><ele>366.0</ele><time>2026-04-29T15:36:14.999Z</time></trkpt><trkpt lat="45.76672717324305" lon="8.857040576858338"><ele>366.25</ele><time>2026-04-29T15:36:15.999Z</time></trkpt><trkpt lat="45.76687903151694" lon="8.857095885776067"><ele>366.5</ele><time>2026-04-29T15:36:16.999Z</time></trkpt><trkpt lat="45.76704087522675" lon="8.857108356679428"><ele>366.75</ele><time>2026-04-29T15:36:17.999Z</time></trkpt><trkpt lat="45.767162226797424" lon="8.857108525748936"><ele>367.0</ele><time>2026-04-29T15:36:18.999Z</time></trkpt><trkpt lat="45.76726787768904" lon="8.857106048335877"><ele>367.0</ele><time>2026-04-29T15:36:19.999Z</time></trkpt><trkpt lat="45.76736934810896" lon="8.857102447615246"><ele>367.0</ele><time>2026-04-29T15:36:20.999Z</time></trkpt><trkpt lat="45.76746582615845" lon="8.857114317719962"><ele>367.0</ele><time>2026-04-29T15:36:21.999Z</time></trkpt><trkpt lat="45.767565222814106" lon="8.85715318268772"><ele>367.0</ele><time>2026-04-29T15:36:22.999Z</time></trkpt><trkpt lat="45.76767419918874" lon="8.857201842103118"><ele>367.0</ele><time>2026-04-29T15:36:23.999Z</time></trkpt><trkpt lat="45.76779265822356" lon="8.857237767212348"><ele>366.0</ele><time>2026-04-29T15:36:24.999Z</time></trkpt><trkpt lat="45.76793190259253" lon="8.857267398035068"><ele>365.0</ele><time>2026-04-29T15:36:25.999Z</time></trkpt><trkpt lat="45.76805768133119" lon="8.857281585191012"><ele>364.0</ele><time>2026-04-29T15:36:26.999Z</time></trkpt><trkpt lat="45.76818179417309" lon="8.857317523171043"><ele>363.0</ele><time>2026-04-29T15:36:27.999Z</time></trkpt><trkpt lat="45.76832237659281" lon="8.857378986632822"><ele>363.0</ele><time>2026-04-29T15:36:28.999Z</time></trkpt><trkpt lat="45.76843298410805" lon="8.857415141196729"><ele>363.0</ele><time>2026-04-29T15:36:30Z</time></trkpt><trkpt lat="45.7685226950115" lon="8.85744589647247"><ele>363.0</ele><time>2026-04-29T15:36:31Z</time></trkpt><trkpt lat="45.76861219868751" lon="8.857475156948482"><ele>363.0</ele><time>2026-04-29T15:36:32Z</time></trkpt><trkpt lat="45.76868711297635" lon="8.857500389388"><ele>363.0</ele><time>2026-04-29T15:36:33Z</time></trkpt><trkpt lat="45.76880248170925" lon="8.857535377602762"><ele>362.5</ele><time>2026-04-29T15:36:35Z</time></trkpt><trkpt lat="45.76889155421572" lon="8.857568695059621"><ele>362.0</ele><time>2026-04-29T15:36:37Z</time></trkpt><trkpt lat="45.76881669222446" lon="8.857529447532192"><ele>361.5</ele><time>2026-04-29T15:36:43Z</time></trkpt><trkpt lat="45.76867052225499" lon="8.857472571162967"><ele>361.0</ele><time>2026-04-29T15:36:44Z</time></trkpt><trkpt lat="45.768538965296706" lon="8.857432110904124"><ele>361.5</ele><time>2026-04-29T15:36:45Z</time></trkpt><trkpt lat="45.76840154388639" lon="8.857388210639519"><ele>362.0</ele><time>2026-04-29T15:36:46Z</time></trkpt><trkpt lat="45.76824840295471" lon="8.85734265766065"><ele>362.5</ele><time>2026-04-29T15:36:47Z</time></trkpt><trkpt lat="45.76810229833195" lon="8.857303559710552"><ele>363.0</ele><time>2026-04-29T15:36:48Z</time></trkpt><trkpt lat="45.76797790616024" lon="8.857276434432888"><ele>363.0</ele><time>2026-04-29T15:36:49Z</time></trkpt><trkpt lat="45.76785288712888" lon="8.857252412213874"><ele>363.0</ele><time>2026-04-29T15:36:50Z</time></trkpt><trkpt lat="45.76771252975261" lon="8.857223978404365"><ele>363.0</ele><time>2026-04-29T15:36:51Z</time></trkpt><trkpt lat="45.7675761752877" lon="8.857185250678784"><ele>363.0</ele><time>2026-04-29T15:36:52Z</time></trkpt><trkpt lat="45.767480414387585" lon="8.857136447129882"><ele>364.0</ele><time>2026-04-29T15:36:53Z</time></trkpt><trkpt lat="45.76738910259856" lon="8.857088032199925"><ele>365.0</ele><time>2026-04-29T15:36:54Z</time></trkpt><trkpt lat="45.767299464381914" lon="8.857061021391443"><ele>366.0</ele><time>2026-04-29T15:36:55Z</time></trkpt><trkpt lat="45.7671754037702" lon="8.857076157446146"><ele>367.0</ele><time>2026-04-29T15:36:56Z</time></trkpt><trkpt lat="45.767022119081716" lon="8.857086133865907"><ele>367.0</ele><time>2026-04-29T15:36:57Z</time></trkpt><trkpt lat="45.76689055890566" lon="8.857075444513978"><ele>367.0</ele><time>2026-04-29T15:36:58Z</time></trkpt><trkpt lat="45.76678418109778" lon="8.857056572134464"><ele>367.0</ele><time>2026-04-29T15:36:59Z</time></trkpt><trkpt lat="45.76667861433126" lon="8.85702474807701"><ele>367.0</ele><time>2026-04-29T15:37:00Z</time></trkpt><trkpt lat="45.76659051917421" lon="8.856973640995792"><ele>367.0</ele><time>2026-04-29T15:37:01Z</time></trkpt><trkpt lat="45.766530960024284" lon="8.85692632215071"><ele>366.8</ele><time>2026-04-29T15:37:02Z</time></trkpt><trkpt lat="45.76641972587698" lon="8.856848781608821"><ele>366.6</ele><time>2026-04-29T15:37:04Z</time></trkpt><trkpt lat="45.76636093209033" lon="8.856798865526926"><ele>366.40000000000003</ele><time>2026-04-29T15:37:05Z</time></trkpt><trkpt lat="45.76634125129911" lon="8.856690334737184"><ele>366.20000000000005</ele><time>2026-04-29T15:37:06Z</time></trkpt><trkpt lat="45.76634574982347" lon="8.856551619196647"><ele>366.0</ele><time>2026-04-29T15:37:07Z</time></trkpt><trkpt lat="45.76636372846207" lon="8.856394174787187"><ele>366.0</ele><time>2026-04-29T15:37:08Z</time></trkpt><trkpt lat="45.76636947072652" lon="8.85620365052743"><ele>366.0</ele><time>2026-04-29T15:37:09Z</time></trkpt><trkpt lat="45.76638039703488" lon="8.856013119236573"><ele>366.0</ele><time>2026-04-29T15:37:10Z</time></trkpt><trkpt lat="45.76639295463865" lon="8.855831207931528"><ele>366.0</ele><time>2026-04-29T15:37:11Z</time></trkpt><trkpt lat="45.7664044033416" lon="8.855667077750361"><ele>365.6</ele><time>2026-04-29T15:37:12Z</time></trkpt><trkpt lat="45.766416028248436" lon="8.855516755462812"><ele>365.20000000000005</ele><time>2026-04-29T15:37:13Z</time></trkpt><trkpt lat="45.76642894849434" lon="8.855348818370135"><ele>364.79999999999995</ele><time>2026-04-29T15:37:14Z</time></trkpt><trkpt lat="45.76643723366778" lon="8.855217593405019"><ele>364.4</ele><time>2026-04-29T15:37:15Z</time></trkpt><trkpt lat="45.76644294406958" lon="8.855111065716084"><ele>364.0</ele><time>2026-04-29T15:37:16Z</time></trkpt><trkpt lat="45.76644918429556" lon="8.854947768910401"><ele>364.2</ele><time>2026-04-29T15:37:18Z</time></trkpt><trkpt lat="45.76643156301179" lon="8.854847241124201"><ele>364.4</ele><time>2026-04-29T15:37:20Z</time></trkpt><trkpt lat="45.76650541167293" lon="8.854719172719388"><ele>364.6</ele><time>2026-04-29T15:37:22Z</time></trkpt><trkpt lat="45.766510857958316" lon="8.8545966338693"><ele>364.8</ele><time>2026-04-29T15:37:23Z</time></trkpt><trkpt lat="45.766511881007474" lon="8.854426571195384"><ele>365.0</ele><time>2026-04-29T15:37:24Z</time></trkpt><trkpt lat="45.76651498166081" lon="8.854229244922735"><ele>365.0</ele><time>2026-04-29T15:37:25Z</time></trkpt><trkpt lat="45.76652964982031" lon="8.854029600059292"><ele>365.0</ele><time>2026-04-29T15:37:26Z</time></trkpt><trkpt lat="45.7665395554345" lon="8.85383742496159"><ele>365.0</ele><time>2026-04-29T15:37:27Z</time></trkpt><trkpt lat="45.766536877744215" lon="8.853703283821977"><ele>365.0</ele><time>2026-04-29T15:37:28Z</time></trkpt><trkpt lat="45.76652469133372" lon="8.853597224948604"><ele>365.0</ele><time>2026-04-29T15:37:29Z</time></trkpt><trkpt lat="45.76649454390905" lon="8.853491054279012"><ele>366.8</ele><time>2026-04-29T15:37:30Z</time></trkpt><trkpt lat="45.76644599473076" lon="8.853397292914638"><ele>368.6</ele><time>2026-04-29T15:37:31Z</time></trkpt><trkpt lat="45.766339049393935" lon="8.85326954314554"><ele>370.4</ele><time>2026-04-29T15:37:32Z</time></trkpt><trkpt lat="45.76622842070626" lon="8.853202229119436"><ele>372.2</ele><time>2026-04-29T15:37:33Z</time></trkpt><trkpt lat="45.766152890619786" lon="8.853142115448215"><ele>374.0</ele><time>2026-04-29T15:37:34Z</time></trkpt><trkpt lat="45.76608818536808" lon="8.853065458656591"><ele>374.79999999999995</ele><time>2026-04-29T15:37:35Z</time></trkpt><trkpt lat="45.76602402694762" lon="8.852968963220018"><ele>375.59999999999997</ele><time>2026-04-29T15:37:36Z</time></trkpt><trkpt lat="45.76596940342392" lon="8.852859502562353"><ele>376.4</ele><time>2026-04-29T15:37:37Z</time></trkpt><trkpt lat="45.76590994063485" lon="8.852737009758997"><ele>377.2</ele><time>2026-04-29T15:37:38Z</time></trkpt><trkpt lat="45.765862567254075" lon="8.852619661208344"><ele>378.0</ele><time>2026-04-29T15:37:39Z</time></trkpt><trkpt lat="45.76581887281003" lon="8.852507261665894"><ele>381.2</ele><time>2026-04-29T15:37:40Z</time></trkpt><trkpt lat="45.7657747240685" lon="8.852409778697831"><ele>384.4</ele><time>2026-04-29T15:37:41Z</time></trkpt><trkpt lat="45.765722167149" lon="8.852322476798065"><ele>387.59999999999997</ele><time>2026-04-29T15:37:42Z</time></trkpt><trkpt lat="45.76562708073887" lon="8.852263574120936"><ele>390.79999999999995</ele><time>2026-04-29T15:37:43Z</time></trkpt><trkpt lat="45.765535492629134" lon="8.852139923667727"><ele>394.0</ele><time>2026-04-29T15:37:44Z</time></trkpt><trkpt lat="45.765442736494265" lon="8.852023123042786"><ele>394.0</ele><time>2026-04-29T15:37:45Z</time></trkpt><trkpt lat="45.765391119507896" lon="8.851934739070765"><ele>394.0</ele><time>2026-04-29T15:37:46Z</time></trkpt><trkpt lat="45.765366245431835" lon="8.851824376565812"><ele>394.0</ele><time>2026-04-29T15:37:47Z</time></trkpt><trkpt lat="45.765342213557695" lon="8.851729124843509"><ele>394.0</ele><time>2026-04-29T15:37:48Z</time></trkpt><trkpt lat="45.7653034842227" lon="8.851612425325019"><ele>394.0</ele><time>2026-04-29T15:37:50Z</time></trkpt><trkpt lat="45.76535524042772" lon="8.851806974172373"><ele>394.0</ele><time>2026-04-29T15:37:57.999Z</time></trkpt><trkpt lat="45.765458578331646" lon="8.851949036238894"><ele>394.0</ele><time>2026-04-29T15:37:59.999Z</time></trkpt><trkpt lat="45.76554910480819" lon="8.852053205159386"><ele>394.0</ele><time>2026-04-29T15:38:00.999Z</time></trkpt><trkpt lat="45.76562071221591" lon="8.852150937327787"><ele>394.0</ele><time>2026-04-29T15:38:01.999Z</time></trkpt><trkpt lat="45.765678799318756" lon="8.85222346780112"><ele>394.0</ele><time>2026-04-29T15:38:02.999Z</time></trkpt><trkpt lat="45.765741390706395" lon="8.852339697338152"><ele>394.0</ele><time>2026-04-29T15:38:03.999Z</time></trkpt><trkpt lat="45.765789561319956" lon="8.852497539514879"><ele>394.0</ele><time>2026-04-29T15:38:04.999Z</time></trkpt><trkpt lat="45.76585009535122" lon="8.8526552579752"><ele>394.0</ele><time>2026-04-29T15:38:05.999Z</time></trkpt><trkpt lat="45.765876330552345" lon="8.852750615835621"><ele>394.0</ele><time>2026-04-29T15:38:06.999Z</time></trkpt><trkpt lat="45.765946153451075" lon="8.852862272219728"><ele>394.0</ele><time>2026-04-29T15:38:07.999Z</time></trkpt><trkpt lat="45.76601320830223" lon="8.852989330309889"><ele>390.0</ele><time>2026-04-29T15:38:08.999Z</time></trkpt><trkpt lat="45.76606676081256" lon="8.853102913726346"><ele>386.0</ele><time>2026-04-29T15:38:09.999Z</time></trkpt><trkpt lat="45.766170072210315" lon="8.853201335727892"><ele>382.0</ele><time>2026-04-29T15:38:10.999Z</time></trkpt><trkpt lat="45.76626139445479" lon="8.853316911976796"><ele>378.0</ele><time>2026-04-29T15:38:11.999Z</time></trkpt><trkpt lat="45.766338868102125" lon="8.853383016998709"><ele>374.0</ele><time>2026-04-29T15:38:12.999Z</time></trkpt><trkpt lat="45.7663913872337" lon="8.853439551379573"><ele>372.2</ele><time>2026-04-29T15:38:13.999Z</time></trkpt><trkpt lat="45.76644107101944" lon="8.853520537954033"><ele>370.4</ele><time>2026-04-29T15:38:14.999Z</time></trkpt><trkpt lat="45.766471377660984" lon="8.853619125879293"><ele>368.6</ele><time>2026-04-29T15:38:15.999Z</time></trkpt><trkpt lat="45.766489377590894" lon="8.85377541240732"><ele>366.8</ele><time>2026-04-29T15:38:16.999Z</time></trkpt><trkpt lat="45.76648093854035" lon="8.8540062592713"><ele>365.0</ele><time>2026-04-29T15:38:17.999Z</time></trkpt><trkpt lat="45.76646479456182" lon="8.854232600861849"><ele>364.4</ele><time>2026-04-29T15:38:18.999Z</time></trkpt><trkpt lat="45.76646185420184" lon="8.854412071184305"><ele>363.8</ele><time>2026-04-29T15:38:19.999Z</time></trkpt><trkpt lat="45.76646231257358" lon="8.854555127769261"><ele>363.20000000000005</ele><time>2026-04-29T15:38:20.999Z</time></trkpt><trkpt lat="45.766457231177064" lon="8.854677521834054"><ele>362.6</ele><time>2026-04-29T15:38:21.999Z</time></trkpt><trkpt lat="45.766421065118486" lon="8.854794132395496"><ele>362.0</ele><time>2026-04-29T15:38:22.999Z</time></trkpt><trkpt lat="45.76642046906687" lon="8.854886393325096"><ele>362.0</ele><time>2026-04-29T15:38:23.999Z</time></trkpt><trkpt lat="45.76638938487223" lon="8.855015911736938"><ele>362.0</ele><time>2026-04-29T15:38:25.999Z</time></trkpt><trkpt lat="45.76643514857309" lon="8.855161828147374"><ele>362.0</ele><time>2026-04-29T15:38:26.999Z</time></trkpt><trkpt lat="45.76642588699363" lon="8.855348269633737"><ele>362.0</ele><time>2026-04-29T15:38:27.999Z</time></trkpt><trkpt lat="45.76640556709005" lon="8.855538676629248"><ele>362.5</ele><time>2026-04-29T15:38:28.999Z</time></trkpt><trkpt lat="45.76638738972901" lon="8.855728044772828"><ele>363.0</ele><time>2026-04-29T15:38:29.999Z</time></trkpt><trkpt lat="45.766374036665546" lon="8.855925246004288"><ele>363.5</ele><time>2026-04-29T15:38:30.999Z</time></trkpt><trkpt lat="45.7663595861687" lon="8.856111317067441"><ele>364.0</ele><time>2026-04-29T15:38:31.999Z</time></trkpt><trkpt lat="45.766346565869796" lon="8.856304571108042"><ele>364.4</ele><time>2026-04-29T15:38:32.999Z</time></trkpt><trkpt lat="45.76633810968441" lon="8.856476183537541"><ele>364.79999999999995</ele><time>2026-04-29T15:38:33.999Z</time></trkpt><trkpt lat="45.76633480567183" lon="8.856605949015876"><ele>365.20000000000005</ele><time>2026-04-29T15:38:34.999Z</time></trkpt><trkpt lat="45.76633770142181" lon="8.856740505704238"><ele>365.6</ele><time>2026-04-29T15:38:36Z</time></trkpt><trkpt lat="45.76636020314765" lon="8.856844867933209"><ele>366.0</ele><time>2026-04-29T15:38:37Z</time></trkpt><trkpt lat="45.76651457280211" lon="8.85693263035785"><ele>366.0</ele><time>2026-04-29T15:38:39Z</time></trkpt><trkpt lat="45.766635290285194" lon="8.856989394163914"><ele>366.0</ele><time>2026-04-29T15:38:40Z</time></trkpt><trkpt lat="45.76677294830147" lon="8.857060073159937"><ele>366.0</ele><time>2026-04-29T15:38:41Z</time></trkpt><trkpt lat="45.766915191818235" lon="8.857105677061897"><ele>366.0</ele><time>2026-04-29T15:38:42Z</time></trkpt><trkpt lat="45.76705745748964" lon="8.857109820061876"><ele>366.20000000000005</ele><time>2026-04-29T15:38:43Z</time></trkpt><trkpt lat="45.76717330136191" lon="8.857106361819119"><ele>366.40000000000003</ele><time>2026-04-29T15:38:44Z</time></trkpt><trkpt lat="45.76728551391001" lon="8.857094596587347"><ele>366.6</ele><time>2026-04-29T15:38:45Z</time></trkpt><trkpt lat="45.76739604376801" lon="8.857099482000415"><ele>366.8</ele><time>2026-04-29T15:38:46Z</time></trkpt><trkpt lat="45.76749555412425" lon="8.857124296852476"><ele>367.0</ele><time>2026-04-29T15:38:47Z</time></trkpt><trkpt lat="45.76760460189382" lon="8.85718107183788"><ele>366.0</ele><time>2026-04-29T15:38:48Z</time></trkpt><trkpt lat="45.7677259067189" lon="8.857233859296601"><ele>365.0</ele><time>2026-04-29T15:38:49Z</time></trkpt><trkpt lat="45.767857987822815" lon="8.857264986359702"><ele>364.0</ele><time>2026-04-29T15:38:50Z</time></trkpt><trkpt lat="45.7679776525195" lon="8.857272693147454"><ele>363.0</ele><time>2026-04-29T15:38:51Z</time></trkpt><trkpt lat="45.76809927678602" lon="8.857293728379496"><ele>363.0</ele><time>2026-04-29T15:38:52Z</time></trkpt><trkpt lat="45.768233146370726" lon="8.857336440160541"><ele>363.0</ele><time>2026-04-29T15:38:53Z</time></trkpt><trkpt lat="45.76836356418059" lon="8.857380466887953"><ele>363.0</ele><time>2026-04-29T15:38:54Z</time></trkpt><trkpt lat="45.76847378751103" lon="8.857413182303024"><ele>363.0</ele><time>2026-04-29T15:38:55Z</time></trkpt><trkpt lat="45.76856534782112" lon="8.857451983077006"><ele>362.59999999999997</ele><time>2026-04-29T15:38:56Z</time></trkpt><trkpt lat="45.768636124061594" lon="8.857496634855778"><ele>362.2</ele><time>2026-04-29T15:38:57Z</time></trkpt><trkpt lat="45.76874762822832" lon="8.857530566638953"><ele>361.8</ele><time>2026-04-29T15:38:59Z</time></trkpt><trkpt lat="45.76881082051007" lon="8.857545160691322"><ele>361.4</ele><time>2026-04-29T15:39:00Z</time></trkpt><trkpt lat="45.76888849539087" lon="8.857577156358031"><ele>361.0</ele><time>2026-04-29T15:39:02Z</time></trkpt><trkpt lat="45.76877494907855" lon="8.857518971960019"><ele>361.0</ele><time>2026-04-29T15:39:08Z</time></trkpt><trkpt lat="45.768642339208746" lon="8.857474893529249"><ele>361.0</ele><time>2026-04-29T15:39:09Z</time></trkpt><trkpt lat="45.76852285768332" lon="8.857435583349789"><ele>361.0</ele><time>2026-04-29T15:39:10Z</time></trkpt><trkpt lat="45.768403287639" lon="8.857391492187764"><ele>361.0</ele><time>2026-04-29T15:39:11Z</time></trkpt><trkpt lat="45.76827579608537" lon="8.857352851702654"><ele>361.5</ele><time>2026-04-29T15:39:12Z</time></trkpt><trkpt lat="45.768146809454166" lon="8.857314107975313"><ele>362.0</ele><time>2026-04-29T15:39:13Z</time></trkpt><trkpt lat="45.76801989739953" lon="8.857273396049491"><ele>362.5</ele><time>2026-04-29T15:39:14Z</time></trkpt><trkpt lat="45.76790553764833" lon="8.857247537809219"><ele>363.0</ele><time>2026-04-29T15:39:15Z</time></trkpt><trkpt lat="45.76777953828472" lon="8.857231314642819"><ele>364.0</ele><time>2026-04-29T15:39:16Z</time></trkpt><trkpt lat="45.76764427824981" lon="8.857207998075046"><ele>365.0</ele><time>2026-04-29T15:39:17Z</time></trkpt><trkpt lat="45.76753119391951" lon="8.857160487342695"><ele>366.0</ele><time>2026-04-29T15:39:18Z</time></trkpt><trkpt lat="45.767436043147036" lon="8.857106059265297"><ele>367.0</ele><time>2026-04-29T15:39:19Z</time></trkpt><trkpt lat="45.76733498353331" lon="8.857077885006412"><ele>367.0</ele><time>2026-04-29T15:39:20Z</time></trkpt><trkpt lat="45.76721492484682" lon="8.857082712413584"><ele>367.0</ele><time>2026-04-29T15:39:21Z</time></trkpt><trkpt lat="45.76707641607295" lon="8.85709015944691"><ele>367.0</ele><time>2026-04-29T15:39:22Z</time></trkpt><trkpt lat="45.766956958384" lon="8.857093568923867"><ele>367.0</ele><time>2026-04-29T15:39:23Z</time></trkpt><trkpt lat="45.76683044679107" lon="8.857076371364432"><ele>366.8333333333333</ele><time>2026-04-29T15:39:24Z</time></trkpt><trkpt lat="45.76671656470307" lon="8.857046112140655"><ele>366.66666666666663</ele><time>2026-04-29T15:39:25Z</time></trkpt><trkpt lat="45.76662789936615" lon="8.857007545661055"><ele>366.5</ele><time>2026-04-29T15:39:26Z</time></trkpt><trkpt lat="45.76655852103918" lon="8.856956683341979"><ele>366.3333333333333</ele><time>2026-04-29T15:39:27Z</time></trkpt><trkpt lat="45.76648985104414" lon="8.857005992842522"><ele>366.1666666666667</ele><time>2026-04-29T15:39:30Z</time></trkpt><trkpt lat="45.76650490673938" lon="8.857111748641525"><ele>366.0</ele><time>2026-04-29T15:39:31Z</time></trkpt><trkpt lat="45.76653846852044" lon="8.857255638092349"><ele>366.0</ele><time>2026-04-29T15:39:32Z</time></trkpt><trkpt lat="45.76656923829132" lon="8.857485165870955"><ele>366.0</ele><time>2026-04-29T15:39:33Z</time></trkpt><trkpt lat="45.766563294130016" lon="8.85771577573209"><ele>366.0</ele><time>2026-04-29T15:39:34Z</time></trkpt><trkpt lat="45.76658635526551" lon="8.857869918321896"><ele>366.0</ele><time>2026-04-29T15:39:35Z</time></trkpt><trkpt lat="45.76658461476534" lon="8.858020610287747"><ele>365.5</ele><time>2026-04-29T15:39:37Z</time></trkpt><trkpt lat="45.7665589665459" lon="8.858106870843425"><ele>365.0</ele><time>2026-04-29T15:39:38Z</time></trkpt><trkpt lat="45.766511877997026" lon="8.858178290670102"><ele>364.5</ele><time>2026-04-29T15:39:39Z</time></trkpt><trkpt lat="45.766433638867646" lon="8.858217146707393"><ele>364.0</ele><time>2026-04-29T15:39:40Z</time></trkpt><trkpt lat="45.7663261536933" lon="8.858259683858252"><ele>363.5</ele><time>2026-04-29T15:39:41Z</time></trkpt><trkpt lat="45.76621990918465" lon="8.858312089605892"><ele>363.0</ele><time>2026-04-29T15:39:42Z</time></trkpt><trkpt lat="45.766114895801444" lon="8.85834528808995"><ele>362.4</ele><time>2026-04-29T15:39:43Z</time></trkpt><trkpt lat="45.766026792786626" lon="8.858340591059264"><ele>361.79999999999995</ele><time>2026-04-29T15:39:44Z</time></trkpt><trkpt lat="45.76594029358383" lon="8.858311957652093"><ele>361.2</ele><time>2026-04-29T15:39:45Z</time></trkpt><trkpt lat="45.76583328201454" lon="8.85824934109627"><ele>360.6</ele><time>2026-04-29T15:39:46Z</time></trkpt><trkpt lat="45.765723199900975" lon="8.858180987096098"><ele>360.0</ele><time>2026-04-29T15:39:47Z</time></trkpt><trkpt lat="45.76562357240116" lon="8.858150104257907"><ele>360.0</ele><time>2026-04-29T15:39:48Z</time></trkpt><trkpt lat="45.7655333772925" lon="8.858118245578433"><ele>360.0</ele><time>2026-04-29T15:39:49Z</time></trkpt><trkpt lat="45.76544298893329" lon="8.858084745850554"><ele>360.0</ele><time>2026-04-29T15:39:50Z</time></trkpt><trkpt lat="45.76536100284836" lon="8.858048593938383"><ele>360.0</ele><time>2026-04-29T15:39:51Z</time></trkpt><trkpt lat="45.7653037478011" lon="8.858008873323403"><ele>360.0</ele><time>2026-04-29T15:39:52Z</time></trkpt><trkpt lat="45.76522439059618" lon="8.8579338083665"><ele>360.0</ele><time>2026-04-29T15:39:54Z</time></trkpt><trkpt lat="45.7652968448995" lon="8.857984727491433"><ele>360.0</ele><time>2026-04-29T15:40:00Z</time></trkpt><trkpt lat="45.765349881961214" lon="8.858036849505297"><ele>360.0</ele><time>2026-04-29T15:40:01Z</time></trkpt><trkpt lat="45.76541755891392" lon="8.858083690491002"><ele>360.0</ele><time>2026-04-29T15:40:02Z</time></trkpt><trkpt lat="45.765495960858345" lon="8.858130159666402"><ele>360.0</ele><time>2026-04-29T15:40:03Z</time></trkpt><trkpt lat="45.76560636728308" lon="8.858173301813316"><ele>360.0</ele><time>2026-04-29T15:40:03.999Z</time></trkpt><trkpt lat="45.76574014088254" lon="8.858226409872058"><ele>360.0</ele><time>2026-04-29T15:40:04.999Z</time></trkpt><trkpt lat="45.76585508505785" lon="8.858277405232892"><ele>360.0</ele><time>2026-04-29T15:40:05.999Z</time></trkpt><trkpt lat="45.76595957550056" lon="8.858322742801374"><ele>360.0</ele><time>2026-04-29T15:40:06.999Z</time></trkpt><trkpt lat="45.766057974721235" lon="8.85835521822113"><ele>360.0</ele><time>2026-04-29T15:40:07.999Z</time></trkpt><trkpt lat="45.76616890265927" lon="8.858343162402134"><ele>360.0</ele><time>2026-04-29T15:40:08.999Z</time></trkpt><trkpt lat="45.76629562202988" lon="8.858290307074306"><ele>360.6</ele><time>2026-04-29T15:40:09.999Z</time></trkpt><trkpt lat="45.76642356880423" lon="8.858214460807039"><ele>361.2</ele><time>2026-04-29T15:40:10.999Z</time></trkpt><trkpt lat="45.76651961837343" lon="8.858161526215152"><ele>361.79999999999995</ele><time>2026-04-29T15:40:11.999Z</time></trkpt><trkpt lat="45.76657618945259" lon="8.858111841915644"><ele>362.4</ele><time>2026-04-29T15:40:12.999Z</time></trkpt><trkpt lat="45.76660084680821" lon="8.857921264399456"><ele>363.0</ele><time>2026-04-29T15:40:14.999Z</time></trkpt><trkpt lat="45.766586127729475" lon="8.857759118784395"><ele>363.75</ele><time>2026-04-29T15:40:15.999Z</time></trkpt><trkpt lat="45.76656870077085" lon="8.857566990403425"><ele>364.5</ele><time>2026-04-29T15:40:16.999Z</time></trkpt><trkpt lat="45.76655214414038" lon="8.857340046320262"><ele>365.25</ele><time>2026-04-29T15:40:17.999Z</time></trkpt><trkpt lat="45.7665401667421" lon="8.857172439379866"><ele>366.0</ele><time>2026-04-29T15:40:18.999Z</time></trkpt><trkpt lat="45.76652814111579" lon="8.85706927013121"><ele>366.0</ele><time>2026-04-29T15:40:19.999Z</time></trkpt><trkpt lat="45.766458594743646" lon="8.856900758541581"><ele>366.0</ele><time>2026-04-29T15:40:21.999Z</time></trkpt><trkpt lat="45.76640001214975" lon="8.856821180207112"><ele>366.0</ele><time>2026-04-29T15:40:22.999Z</time></trkpt><trkpt lat="45.76635757345409" lon="8.856743948236334"><ele>366.0</ele><time>2026-04-29T15:40:23.999Z</time></trkpt><trkpt lat="45.766339407533636" lon="8.856642711709101"><ele>366.0</ele><time>2026-04-29T15:40:24.999Z</time></trkpt><trkpt lat="45.766342131586065" lon="8.856485371884542"><ele>366.0</ele><time>2026-04-29T15:40:25.999Z</time></trkpt><trkpt lat="45.766352388615196" lon="8.856288096038934"><ele>366.0</ele><time>2026-04-29T15:40:26.999Z</time></trkpt><trkpt lat="45.76636954306169" lon="8.856090469306913"><ele>366.0</ele><time>2026-04-29T15:40:27.999Z</time></trkpt><trkpt lat="45.76637884631584" lon="8.855908408280863"><ele>366.0</ele><time>2026-04-29T15:40:28.999Z</time></trkpt><trkpt lat="45.7663908021357" lon="8.855732733631374"><ele>365.6</ele><time>2026-04-29T15:40:29.999Z</time></trkpt><trkpt lat="45.76640493564012" lon="8.855585730993688"><ele>365.20000000000005</ele><time>2026-04-29T15:40:30.999Z</time></trkpt><trkpt lat="45.7664183512553" lon="8.855448382877302"><ele>364.79999999999995</ele><time>2026-04-29T15:40:31.999Z</time></trkpt><trkpt lat="45.766433137561776" lon="8.855312473364666"><ele>364.4</ele><time>2026-04-29T15:40:32.999Z</time></trkpt><trkpt lat="45.76643836977025" lon="8.855183984879007"><ele>364.0</ele><time>2026-04-29T15:40:33.999Z</time></trkpt><trkpt lat="45.76644145849648" lon="8.855092961279983"><ele>363.6</ele><time>2026-04-29T15:40:34.999Z</time></trkpt><trkpt lat="45.766447166252306" lon="8.854934761299072"><ele>363.2</ele><time>2026-04-29T15:40:36.999Z</time></trkpt><trkpt lat="45.76642771672363" lon="8.854836664930685"><ele>362.8</ele><time>2026-04-29T15:40:38.999Z</time></trkpt><trkpt lat="45.76650829212767" lon="8.85465436427774"><ele>362.40000000000003</ele><time>2026-04-29T15:40:40.999Z</time></trkpt><trkpt lat="45.76651224370558" lon="8.854495891286698"><ele>362.0</ele><time>2026-04-29T15:40:42Z</time></trkpt><trkpt lat="45.76651207382731" lon="8.854314424605976"><ele>362.75</ele><time>2026-04-29T15:40:43Z</time></trkpt><trkpt lat="45.766524534392104" lon="8.8540904164874"><ele>363.5</ele><time>2026-04-29T15:40:44Z</time></trkpt><trkpt lat="45.76653813598733" lon="8.853889630413699"><ele>364.25</ele><time>2026-04-29T15:40:45Z</time></trkpt><trkpt lat="45.76653742764326" lon="8.853719201541251"><ele>365.0</ele><time>2026-04-29T15:40:46Z</time></trkpt><trkpt lat="45.76652743987501" lon="8.853627289147322"><ele>365.0</ele><time>2026-04-29T15:40:47Z</time></trkpt><trkpt lat="45.76650289814563" lon="8.853513990178515"><ele>365.0</ele><time>2026-04-29T15:40:48Z</time></trkpt><trkpt lat="45.76645107454195" lon="8.853404075116918"><ele>365.0</ele><time>2026-04-29T15:40:49Z</time></trkpt><trkpt lat="45.76637802993548" lon="8.853298566447123"><ele>365.0</ele><time>2026-04-29T15:40:50Z</time></trkpt><trkpt lat="45.76626770951759" lon="8.853229271876177"><ele>365.0</ele><time>2026-04-29T15:40:51Z</time></trkpt><trkpt lat="45.76615159650083" lon="8.853157371987235"><ele>366.8</ele><time>2026-04-29T15:40:52Z</time></trkpt><trkpt lat="45.76606285062854" lon="8.853045926083903"><ele>368.6</ele><time>2026-04-29T15:40:53Z</time></trkpt><trkpt lat="45.76601308534871" lon="8.852943621616104"><ele>370.4</ele><time>2026-04-29T15:40:54Z</time></trkpt><trkpt lat="45.765952259783134" lon="8.85282375003081"><ele>372.2</ele><time>2026-04-29T15:40:55Z</time></trkpt><trkpt lat="45.76588591175289" lon="8.852687024880236"><ele>374.0</ele><time>2026-04-29T15:40:56Z</time></trkpt><trkpt lat="45.76584497671383" lon="8.8525735952194"><ele>378.0</ele><time>2026-04-29T15:40:57Z</time></trkpt><trkpt lat="45.7657977505473" lon="8.852458737420507"><ele>382.0</ele><time>2026-04-29T15:40:58Z</time></trkpt><trkpt lat="45.76573458321542" lon="8.852343359405333"><ele>386.0</ele><time>2026-04-29T15:41:00Z</time></trkpt><trkpt lat="45.76568237377792" lon="8.852290420860678"><ele>390.0</ele><time>2026-04-29T15:41:01Z</time></trkpt><trkpt lat="45.765602779704224" lon="8.852225318467566"><ele>394.0</ele><time>2026-04-29T15:41:02Z</time></trkpt><trkpt lat="45.765479711223165" lon="8.852121700728805"><ele>394.00000000000006</ele><time>2026-04-29T15:41:03Z</time></trkpt><trkpt lat="45.765414606704915" lon="8.852034967152264"><ele>394.0</ele><time>2026-04-29T15:41:04Z</time></trkpt><trkpt lat="45.76537299451218" lon="8.851962267465515"><ele>394.0</ele><time>2026-04-29T15:41:05Z</time></trkpt><trkpt lat="45.76534747065472" lon="8.851842351363167"><ele>394.0</ele><time>2026-04-29T15:41:07Z</time></trkpt><trkpt lat="45.765322082357365" lon="8.851752019496926"><ele>394.00000000000006</ele><time>2026-04-29T15:41:13Z</time></trkpt><trkpt lat="45.765282585193354" lon="8.851645777509441"><ele>394.0</ele><time>2026-04-29T15:41:15Z</time></trkpt><trkpt lat="45.76533545566244" lon="8.851821003120383"><ele>394.0</ele><time>2026-04-29T15:41:17Z</time></trkpt><trkpt lat="45.765420204982306" lon="8.851946019866155"><ele>394.0</ele><time>2026-04-29T15:41:18Z</time></trkpt><trkpt lat="45.76546834562091" lon="8.85215449416365"><ele>394.0</ele><time>2026-04-29T15:41:19Z</time></trkpt><trkpt lat="45.76556253747304" lon="8.852236283256206"><ele>394.0</ele><time>2026-04-29T15:41:20Z</time></trkpt><trkpt lat="45.76565965404693" lon="8.85231477280424"><ele>394.0</ele><time>2026-04-29T15:41:21Z</time></trkpt><trkpt lat="45.765726182781634" lon="8.852402692436378"><ele>394.0</ele><time>2026-04-29T15:41:22Z</time></trkpt><trkpt lat="45.76580431881302" lon="8.852566585647168"><ele>394.0</ele><time>2026-04-29T15:41:23Z</time></trkpt><trkpt lat="45.76587875049357" lon="8.852756303471747"><ele>394.0</ele><time>2026-04-29T15:41:24Z</time></trkpt><trkpt lat="45.76594851495986" lon="8.852898868243864"><ele>390.0</ele><time>2026-04-29T15:41:25Z</time></trkpt><trkpt lat="45.766013721225065" lon="8.85301986856982"><ele>386.0</ele><time>2026-04-29T15:41:26Z</time></trkpt><trkpt lat="45.766097172956826" lon="8.853144038047851"><ele>382.0</ele><time>2026-04-29T15:41:27Z</time></trkpt><trkpt lat="45.76619231298989" lon="8.853247152396378"><ele>378.0</ele><time>2026-04-29T15:41:28Z</time></trkpt><trkpt lat="45.76630481089333" lon="8.853355634170507"><ele>377.2</ele><time>2026-04-29T15:41:29Z</time></trkpt><trkpt lat="45.766388068026934" lon="8.853436342284773"><ele>376.4</ele><time>2026-04-29T15:41:30Z</time></trkpt><trkpt lat="45.76643922205003" lon="8.853507762106991"><ele>375.59999999999997</ele><time>2026-04-29T15:41:31Z</time></trkpt><trkpt lat="45.766499532163195" lon="8.853649887695338"><ele>374.79999999999995</ele><time>2026-04-29T15:41:33Z</time></trkpt><trkpt lat="45.766501698774064" lon="8.853761983355279"><ele>374.0</ele><time>2026-04-29T15:41:34Z</time></trkpt><trkpt lat="45.76647557403622" lon="8.853954235445812"><ele>371.75</ele><time>2026-04-29T15:41:35Z</time></trkpt><trkpt lat="45.76646830428167" lon="8.854192685644362"><ele>369.5</ele><time>2026-04-29T15:41:36Z</time></trkpt><trkpt lat="45.76645897105527" lon="8.854400544149874"><ele>367.25</ele><time>2026-04-29T15:41:37Z</time></trkpt><trkpt lat="45.76645753487326" lon="8.854544819809904"><ele>365.0</ele><time>2026-04-29T15:41:38Z</time></trkpt><trkpt lat="45.76645112786821" lon="8.854695599902602"><ele>364.8</ele><time>2026-04-29T15:41:39Z</time></trkpt><trkpt lat="45.76645011301689" lon="8.854821352949855"><ele>364.6</ele><time>2026-04-29T15:41:40Z</time></trkpt><trkpt lat="45.76644627689068" lon="8.854981577925642"><ele>364.4</ele><time>2026-04-29T15:41:42Z</time></trkpt><trkpt lat="45.766458430349026" lon="8.855095679710779"><ele>364.2</ele><time>2026-04-29T15:41:44Z</time></trkpt><trkpt lat="45.76643865715294" lon="8.855211704667544"><ele>364.0</ele><time>2026-04-29T15:41:45Z</time></trkpt><trkpt lat="45.7664218738216" lon="8.855374338997704"><ele>364.0</ele><time>2026-04-29T15:41:46Z</time></trkpt><trkpt lat="45.76640445591106" lon="8.855545579793942"><ele>364.0</ele><time>2026-04-29T15:41:47Z</time></trkpt><trkpt lat="45.76638776198383" lon="8.85572387172059"><ele>364.0</ele><time>2026-04-29T15:41:48Z</time></trkpt><trkpt lat="45.76637652987116" lon="8.855887229570119"><ele>364.0</ele><time>2026-04-29T15:41:49Z</time></trkpt><trkpt lat="45.76636918974245" lon="8.856064276260447"><ele>364.4</ele><time>2026-04-29T15:41:50Z</time></trkpt><trkpt lat="45.766351828817605" lon="8.856243516307057"><ele>364.79999999999995</ele><time>2026-04-29T15:41:51Z</time></trkpt><trkpt lat="45.76634435239435" lon="8.856377124907363"><ele>365.20000000000005</ele><time>2026-04-29T15:41:52Z</time></trkpt><trkpt lat="45.76634441208081" lon="8.856468860515115"><ele>365.6</ele><time>2026-04-29T15:41:53Z</time></trkpt><trkpt lat="45.766335314362436" lon="8.856584791471954"><ele>366.0</ele><time>2026-04-29T15:41:55Z</time></trkpt><trkpt lat="45.76633969368439" lon="8.856756458948487"><ele>366.0</ele><time>2026-04-29T15:42:08.999Z</time></trkpt><trkpt lat="45.766343425232556" lon="8.856554316038526"><ele>366.0</ele><time>2026-04-29T15:42:15.999Z</time></trkpt><trkpt lat="45.76634160610002" lon="8.856420450598499"><ele>366.0</ele><time>2026-04-29T15:42:16.999Z</time></trkpt><trkpt lat="45.76635675873063" lon="8.85624783525443"><ele>366.0</ele><time>2026-04-29T15:42:17.999Z</time></trkpt><trkpt lat="45.76636776802936" lon="8.856064756966834"><ele>365.6</ele><time>2026-04-29T15:42:18.999Z</time></trkpt><trkpt lat="45.76638183030222" lon="8.855903609723791"><ele>365.20000000000005</ele><time>2026-04-29T15:42:19.999Z</time></trkpt><trkpt lat="45.76639293950355" lon="8.855771180672948"><ele>364.79999999999995</ele><time>2026-04-29T15:42:20.999Z</time></trkpt><trkpt lat="45.76640494034671" lon="8.855661342463572"><ele>364.4</ele><time>2026-04-29T15:42:21.999Z</time></trkpt><trkpt lat="45.766422950634414" lon="8.855499806308254"><ele>364.0</ele><time>2026-04-29T15:42:23.999Z</time></trkpt><trkpt lat="45.76643287640867" lon="8.85534786669421"><ele>364.0</ele><time>2026-04-29T15:42:25.999Z</time></trkpt><trkpt lat="45.7664482119665" lon="8.855235204053876"><ele>364.0</ele><time>2026-04-29T15:42:27.999Z</time></trkpt><trkpt lat="45.76638093399454" lon="8.855181323730989"><ele>364.0</ele><time>2026-04-29T15:42:32.999Z</time></trkpt><trkpt lat="45.76633642966016" lon="8.855250856350242"><ele>364.0</ele><time>2026-04-29T15:42:35.999Z</time></trkpt><trkpt lat="45.76640622630329" lon="8.855195425143291"><ele>364.0</ele><time>2026-04-29T15:46:44.999Z</time></trkpt><trkpt lat="45.76644269299591" lon="8.855098086944516"><ele>364.0</ele><time>2026-04-29T15:46:47.999Z</time></trkpt><trkpt lat="45.76643557430574" lon="8.854961361310842"><ele>363.6</ele><time>2026-04-29T15:46:49.999Z</time></trkpt><trkpt lat="45.76642142746651" lon="8.854853847814505"><ele>363.2</ele><time>2026-04-29T15:46:52.999Z</time></trkpt><trkpt lat="45.76643794986332" lon="8.854741963865745"><ele>362.8</ele><time>2026-04-29T15:46:54.999Z</time></trkpt><trkpt lat="45.76644855046316" lon="8.85462708683503"><ele>362.40000000000003</ele><time>2026-04-29T15:46:55.999Z</time></trkpt><trkpt lat="45.766448961547944" lon="8.854487835609351"><ele>362.0</ele><time>2026-04-29T15:46:56.999Z</time></trkpt><trkpt lat="45.76651181988447" lon="8.854324649445937"><ele>362.75</ele><time>2026-04-29T15:46:57.999Z</time></trkpt><trkpt lat="45.76652065372585" lon="8.85413950701649"><ele>363.5</ele><time>2026-04-29T15:46:58.999Z</time></trkpt><trkpt lat="45.76653401814376" lon="8.853961302895227"><ele>364.25</ele><time>2026-04-29T15:46:59.999Z</time></trkpt><trkpt lat="45.7665401252249" lon="8.853813703538442"><ele>365.0</ele><time>2026-04-29T15:47:00.999Z</time></trkpt><trkpt lat="45.76653141167249" lon="8.853670733906736"><ele>365.0</ele><time>2026-04-29T15:47:01.999Z</time></trkpt><trkpt lat="45.76651652969128" lon="8.853578680542698"><ele>365.0</ele><time>2026-04-29T15:47:02.999Z</time></trkpt><trkpt lat="45.76649337826704" lon="8.853486211108027"><ele>365.0</ele><time>2026-04-29T15:47:03.999Z</time></trkpt><trkpt lat="45.766435322848885" lon="8.853376838491782"><ele>365.0</ele><time>2026-04-29T15:47:04.999Z</time></trkpt><trkpt lat="45.76637585484715" lon="8.853295439883668"><ele>365.0</ele><time>2026-04-29T15:47:05.999Z</time></trkpt><trkpt lat="45.76626007572542" lon="8.85322390820008"><ele>365.0</ele><time>2026-04-29T15:47:06.999Z</time></trkpt><trkpt lat="45.7661670882679" lon="8.853154980016559"><ele>366.8</ele><time>2026-04-29T15:47:07.999Z</time></trkpt><trkpt lat="45.76608902954108" lon="8.853066624740563"><ele>368.6</ele><time>2026-04-29T15:47:08.999Z</time></trkpt><trkpt lat="45.7660262410179" lon="8.852966609763534"><ele>370.4</ele><time>2026-04-29T15:47:09.999Z</time></trkpt><trkpt lat="45.76596756723948" lon="8.852854880952277"><ele>372.2</ele><time>2026-04-29T15:47:10.999Z</time></trkpt><trkpt lat="45.76590050816071" lon="8.852717388275513"><ele>374.0</ele><time>2026-04-29T15:47:11.999Z</time></trkpt><trkpt lat="45.76584137819588" lon="8.852564171471693"><ele>378.0</ele><time>2026-04-29T15:47:12.999Z</time></trkpt><trkpt lat="45.7657736143333" lon="8.852436372075228"><ele>382.0</ele><time>2026-04-29T15:47:13.999Z</time></trkpt><trkpt lat="45.76571703209306" lon="8.852319037076825"><ele>386.0</ele><time>2026-04-29T15:47:14.999Z</time></trkpt><trkpt lat="45.765643604220564" lon="8.852234715475417"><ele>390.0</ele><time>2026-04-29T15:47:15.999Z</time></trkpt><trkpt lat="45.76556594389029" lon="8.852132748474247"><ele>394.0</ele><time>2026-04-29T15:47:16.999Z</time></trkpt><trkpt lat="45.765470005728965" lon="8.852062139511814"><ele>394.0</ele><time>2026-04-29T15:47:17.999Z</time></trkpt><trkpt lat="45.76541084570796" lon="8.851963677829357"><ele>394.0</ele><time>2026-04-29T15:47:18.999Z</time></trkpt><trkpt lat="45.76538053403269" lon="8.851841578046267"><ele>394.0</ele><time>2026-04-29T15:47:19.999Z</time></trkpt><trkpt lat="45.76535808982014" lon="8.851727161287325"><ele>394.0</ele><time>2026-04-29T15:47:20.999Z</time></trkpt><trkpt lat="45.76534005434983" lon="8.851598929779199"><ele>394.0</ele><time>2026-04-29T15:47:21.999Z</time></trkpt><trkpt lat="45.76531997639327" lon="8.851456122308"><ele>395.2</ele><time>2026-04-29T15:47:22.999Z</time></trkpt><trkpt lat="45.765312209167824" lon="8.851306126143967"><ele>396.4</ele><time>2026-04-29T15:47:23.999Z</time></trkpt><trkpt lat="45.765269034833686" lon="8.851204804193193"><ele>397.6</ele><time>2026-04-29T15:47:24.999Z</time></trkpt><trkpt lat="45.76520002258904" lon="8.851190258633231"><ele>398.8</ele><time>2026-04-29T15:47:25.999Z</time></trkpt><trkpt lat="45.76513845484419" lon="8.85111738028361"><ele>400.0</ele><time>2026-04-29T15:47:26.999Z</time></trkpt><trkpt lat="45.7650803795482" lon="8.850952103538319"><ele>402.0</ele><time>2026-04-29T15:47:28.999Z</time></trkpt><trkpt lat="45.76508508133892" lon="8.85083570143664"><ele>404.0</ele><time>2026-04-29T15:47:29.999Z</time></trkpt><trkpt lat="45.76506483935462" lon="8.850701409691732"><ele>406.0</ele><time>2026-04-29T15:47:30.999Z</time></trkpt><trkpt lat="45.76506174999916" lon="8.850596906139145"><ele>408.0</ele><time>2026-04-29T15:47:31.999Z</time></trkpt><trkpt lat="45.76504860976687" lon="8.850477819303244"><ele>410.0</ele><time>2026-04-29T15:47:32.999Z</time></trkpt><trkpt lat="45.76501351868728" lon="8.850249191699222"><ele>410.25</ele><time>2026-04-29T15:47:33.999Z</time></trkpt><trkpt lat="45.7650080209228" lon="8.85009943861333"><ele>410.5</ele><time>2026-04-29T15:47:34.999Z</time></trkpt><trkpt lat="45.76497597492394" lon="8.849923886795663"><ele>410.75</ele><time>2026-04-29T15:47:35.999Z</time></trkpt><trkpt lat="45.76493580265654" lon="8.849798223252803"><ele>411.0</ele><time>2026-04-29T15:47:36.999Z</time></trkpt><trkpt lat="45.76485663915021" lon="8.849641154768134"><ele>411.0</ele><time>2026-04-29T15:47:37.999Z</time></trkpt><trkpt lat="45.76477062842301" lon="8.849475551288231"><ele>411.0</ele><time>2026-04-29T15:47:38.999Z</time></trkpt><trkpt lat="45.76466074941867" lon="8.849271390878936"><ele>411.0</ele><time>2026-04-29T15:47:39.999Z</time></trkpt><trkpt lat="45.76457325959823" lon="8.84911146466115"><ele>411.0</ele><time>2026-04-29T15:47:40.999Z</time></trkpt><trkpt lat="45.76450219843241" lon="8.84896454917144"><ele>411.0</ele><time>2026-04-29T15:47:41.999Z</time></trkpt><trkpt lat="45.76445594127292" lon="8.84884362687103"><ele>411.0</ele><time>2026-04-29T15:47:42.999Z</time></trkpt><trkpt lat="45.76442860898359" lon="8.848745766383953"><ele>411.0</ele><time>2026-04-29T15:47:43.999Z</time></trkpt><trkpt lat="45.76440693499071" lon="8.848641981892701"><ele>411.0</ele><time>2026-04-29T15:47:44.999Z</time></trkpt><trkpt lat="45.764389759244054" lon="8.848552887804725"><ele>411.0</ele><time>2026-04-29T15:47:45.999Z</time></trkpt><trkpt lat="45.76436970299907" lon="8.848422913284663"><ele>412.0</ele><time>2026-04-29T15:47:47.999Z</time></trkpt><trkpt lat="45.76435072247364" lon="8.848284861514582"><ele>413.0</ele><time>2026-04-29T15:47:49.999Z</time></trkpt><trkpt lat="45.76431829718592" lon="8.848028449601486"><ele>414.0</ele><time>2026-04-29T15:47:56.999Z</time></trkpt><trkpt lat="45.76430558887304" lon="8.84787461461695"><ele>415.0</ele><time>2026-04-29T15:47:57.999Z</time></trkpt><trkpt lat="45.764317840676725" lon="8.847706996712112"><ele>414.75</ele><time>2026-04-29T15:47:58.999Z</time></trkpt><trkpt lat="45.7642909060072" lon="8.847576557284755"><ele>414.5</ele><time>2026-04-29T15:47:59.999Z</time></trkpt><trkpt lat="45.76427553232111" lon="8.84742859987443"><ele>414.25</ele><time>2026-04-29T15:48:00.999Z</time></trkpt><trkpt lat="45.764259367514164" lon="8.847256885940652"><ele>414.0</ele><time>2026-04-29T15:48:01.999Z</time></trkpt><trkpt lat="45.764243834218505" lon="8.847059054584138"><ele>414.0</ele><time>2026-04-29T15:48:02.999Z</time></trkpt><trkpt lat="45.764233988582724" lon="8.846904415600523"><ele>414.0</ele><time>2026-04-29T15:48:03.999Z</time></trkpt><trkpt lat="45.76423988911114" lon="8.846762960662952"><ele>414.0</ele><time>2026-04-29T15:48:04.999Z</time></trkpt><trkpt lat="45.76422663367563" lon="8.846634548849607"><ele>414.0</ele><time>2026-04-29T15:48:05.999Z</time></trkpt><trkpt lat="45.76422624950904" lon="8.846467837675858"><ele>414.0</ele><time>2026-04-29T15:48:06.999Z</time></trkpt><trkpt lat="45.76423140577368" lon="8.846306761429306"><ele>413.4</ele><time>2026-04-29T15:48:07.999Z</time></trkpt><trkpt lat="45.76424828224889" lon="8.846157776223674"><ele>412.79999999999995</ele><time>2026-04-29T15:48:08.999Z</time></trkpt><trkpt lat="45.764262557047694" lon="8.846009991218242"><ele>412.20000000000005</ele><time>2026-04-29T15:48:09.999Z</time></trkpt><trkpt lat="45.76431284961002" lon="8.845868533457748"><ele>411.6</ele><time>2026-04-29T15:48:10.999Z</time></trkpt><trkpt lat="45.76437497393981" lon="8.84575147794361"><ele>411.0</ele><time>2026-04-29T15:48:11.999Z</time></trkpt><trkpt lat="45.76431017882578" lon="8.845785613886724"><ele>411.0</ele><time>2026-04-29T15:48:26.999Z</time></trkpt><trkpt lat="45.76425223486109" lon="8.845826966822818"><ele>411.0</ele><time>2026-04-29T15:48:34.999Z</time></trkpt><trkpt lat="45.7641881341974" lon="8.845811131913559"><ele>411.0</ele><time>2026-04-29T15:48:47.999Z</time></trkpt><trkpt lat="45.76412510564975" lon="8.845841285901356"><ele>411.0</ele><time>2026-04-29T15:48:51.999Z</time></trkpt><trkpt lat="45.76432875023941" lon="8.845761777860153"><ele>411.0</ele><time>2026-04-29T15:49:11.999Z</time></trkpt><trkpt lat="45.76437583860072" lon="8.845695296161084"><ele>411.0</ele><time>2026-04-29T15:49:12.999Z</time></trkpt><trkpt lat="45.76444113548044" lon="8.84557359311822"><ele>411.0</ele><time>2026-04-29T15:49:13.999Z</time></trkpt><trkpt lat="45.76452984509402" lon="8.845460291118002"><ele>411.0</ele><time>2026-04-29T15:49:14.999Z</time></trkpt><trkpt lat="45.76460790987183" lon="8.845328553023318"><ele>411.0</ele><time>2026-04-29T15:49:15.999Z</time></trkpt><trkpt lat="45.7646769607464" lon="8.845210856808842"><ele>410.0</ele><time>2026-04-29T15:49:16.999Z</time></trkpt><trkpt lat="45.76475636940462" lon="8.84507550594263"><ele>409.0</ele><time>2026-04-29T15:49:17.999Z</time></trkpt><trkpt lat="45.76483219757898" lon="8.844919181262346"><ele>408.0</ele><time>2026-04-29T15:49:18.999Z</time></trkpt><trkpt lat="45.764916182657274" lon="8.8447771990809"><ele>407.0</ele><time>2026-04-29T15:49:19.999Z</time></trkpt><trkpt lat="45.764996398816656" lon="8.844649214226662"><ele>407.0</ele><time>2026-04-29T15:49:20.999Z</time></trkpt><trkpt lat="45.7650826775829" lon="8.84450935279842"><ele>407.0</ele><time>2026-04-29T15:49:21.999Z</time></trkpt><trkpt lat="45.76516830764992" lon="8.844365566075854"><ele>407.0</ele><time>2026-04-29T15:49:22.999Z</time></trkpt><trkpt lat="45.765261743944706" lon="8.844212331982199"><ele>407.0</ele><time>2026-04-29T15:49:23.999Z</time></trkpt><trkpt lat="45.765367429014965" lon="8.84404674077362"><ele>406.25</ele><time>2026-04-29T15:49:24.999Z</time></trkpt><trkpt lat="45.76546612035404" lon="8.843907758591687"><ele>405.5</ele><time>2026-04-29T15:49:26Z</time></trkpt><trkpt lat="45.76557135783037" lon="8.843799047227291"><ele>404.75</ele><time>2026-04-29T15:49:27Z</time></trkpt><trkpt lat="45.765666216154806" lon="8.843676981124508"><ele>404.0</ele><time>2026-04-29T15:49:28Z</time></trkpt><trkpt lat="45.76576009400007" lon="8.843525850798764"><ele>404.75</ele><time>2026-04-29T15:49:29Z</time></trkpt><trkpt lat="45.76587239077782" lon="8.84338541398811"><ele>405.5</ele><time>2026-04-29T15:49:30Z</time></trkpt><trkpt lat="45.76597327674436" lon="8.84324450505391"><ele>406.25</ele><time>2026-04-29T15:49:31Z</time></trkpt><trkpt lat="45.76608754552303" lon="8.843090048968005"><ele>407.0</ele><time>2026-04-29T15:49:32Z</time></trkpt><trkpt lat="45.76618685876385" lon="8.842935459229269"><ele>407.75</ele><time>2026-04-29T15:49:33Z</time></trkpt><trkpt lat="45.766269517784025" lon="8.842790574526067"><ele>408.5</ele><time>2026-04-29T15:49:34Z</time></trkpt><trkpt lat="45.76633418870529" lon="8.842679169492518"><ele>409.25</ele><time>2026-04-29T15:49:35Z</time></trkpt><trkpt lat="45.76640888101903" lon="8.842564743935704"><ele>410.0</ele><time>2026-04-29T15:49:36Z</time></trkpt><trkpt lat="45.766501029662656" lon="8.842446498296857"><ele>410.0</ele><time>2026-04-29T15:49:37Z</time></trkpt><trkpt lat="45.7666022796597" lon="8.842335422721277"><ele>410.0</ele><time>2026-04-29T15:49:38Z</time></trkpt><trkpt lat="45.766687193996525" lon="8.842246579512683"><ele>410.0</ele><time>2026-04-29T15:49:39Z</time></trkpt><trkpt lat="45.766763149542435" lon="8.842154177366144"><ele>410.0</ele><time>2026-04-29T15:49:40Z</time></trkpt><trkpt lat="45.76682669856747" lon="8.842045536415743"><ele>410.0</ele><time>2026-04-29T15:49:41Z</time></trkpt><trkpt lat="45.76688185576649" lon="8.841924067724813"><ele>410.0</ele><time>2026-04-29T15:49:42Z</time></trkpt><trkpt lat="45.76691106944113" lon="8.841767416848512"><ele>410.0</ele><time>2026-04-29T15:49:43Z</time></trkpt><trkpt lat="45.766929913808184" lon="8.841585009785163"><ele>410.0</ele><time>2026-04-29T15:49:44Z</time></trkpt><trkpt lat="45.766947996377034" lon="8.841403273057699"><ele>410.0</ele><time>2026-04-29T15:49:45Z</time></trkpt><trkpt lat="45.7669737600167" lon="8.841220898248578"><ele>410.0</ele><time>2026-04-29T15:49:46Z</time></trkpt><trkpt lat="45.76699878678558" lon="8.841049736787042"><ele>410.0</ele><time>2026-04-29T15:49:47Z</time></trkpt><trkpt lat="45.76702855663019" lon="8.840872373540233"><ele>410.0</ele><time>2026-04-29T15:49:48Z</time></trkpt><trkpt lat="45.76706593137163" lon="8.84067387711354"><ele>410.0</ele><time>2026-04-29T15:49:49Z</time></trkpt><trkpt lat="45.767107935609" lon="8.840457401234348"><ele>410.25</ele><time>2026-04-29T15:49:50Z</time></trkpt><trkpt lat="45.76714690963674" lon="8.840267764957884"><ele>410.5</ele><time>2026-04-29T15:49:51Z</time></trkpt><trkpt lat="45.76718237330762" lon="8.840087892577237"><ele>410.75</ele><time>2026-04-29T15:49:52Z</time></trkpt><trkpt lat="45.76721387334648" lon="8.839907309729538"><ele>411.0</ele><time>2026-04-29T15:49:53Z</time></trkpt><trkpt lat="45.76724596891336" lon="8.83972983210914"><ele>411.75</ele><time>2026-04-29T15:49:54Z</time></trkpt><trkpt lat="45.767282854804826" lon="8.839550250212472"><ele>412.5</ele><time>2026-04-29T15:49:55Z</time></trkpt><trkpt lat="45.76733345549804" lon="8.839369568107495"><ele>413.25</ele><time>2026-04-29T15:49:56Z</time></trkpt><trkpt lat="45.767387086834226" lon="8.839183867250043"><ele>414.0</ele><time>2026-04-29T15:49:57Z</time></trkpt><trkpt lat="45.76743780642043" lon="8.838998661872624"><ele>414.0</ele><time>2026-04-29T15:49:58Z</time></trkpt><trkpt lat="45.76748397467757" lon="8.838825063206462"><ele>414.0</ele><time>2026-04-29T15:49:59Z</time></trkpt><trkpt lat="45.767531521213996" lon="8.838655388001706"><ele>414.0</ele><time>2026-04-29T15:50:00Z</time></trkpt><trkpt lat="45.7675770442694" lon="8.838486297789071"><ele>414.0</ele><time>2026-04-29T15:50:01Z</time></trkpt><trkpt lat="45.767623177024966" lon="8.838316239381802"><ele>413.75</ele><time>2026-04-29T15:50:02Z</time></trkpt><trkpt lat="45.76766403468322" lon="8.838156381680275"><ele>413.5</ele><time>2026-04-29T15:50:03Z</time></trkpt><trkpt lat="45.767706010000204" lon="8.838006992909753"><ele>413.25</ele><time>2026-04-29T15:50:04Z</time></trkpt><trkpt lat="45.76774558440715" lon="8.837856298560553"><ele>413.0</ele><time>2026-04-29T15:50:05Z</time></trkpt><trkpt lat="45.767783678961415" lon="8.837702947898123"><ele>412.59999999999997</ele><time>2026-04-29T15:50:06Z</time></trkpt><trkpt lat="45.76782054130873" lon="8.837564682087233"><ele>412.2</ele><time>2026-04-29T15:50:07Z</time></trkpt><trkpt lat="45.767853778688" lon="8.837435087691698"><ele>411.8</ele><time>2026-04-29T15:50:08Z</time></trkpt><trkpt lat="45.76788768862833" lon="8.837305717687142"><ele>411.4</ele><time>2026-04-29T15:50:09Z</time></trkpt><trkpt lat="45.767926490729785" lon="8.837180032220417"><ele>411.0</ele><time>2026-04-29T15:50:10Z</time></trkpt><trkpt lat="45.7679626962269" lon="8.837047593088258"><ele>411.0</ele><time>2026-04-29T15:50:11Z</time></trkpt><trkpt lat="45.768001088500185" lon="8.83691234400141"><ele>411.0</ele><time>2026-04-29T15:50:12Z</time></trkpt><trkpt lat="45.768044205656366" lon="8.836782560755879"><ele>411.0</ele><time>2026-04-29T15:50:13Z</time></trkpt><trkpt lat="45.76808361529925" lon="8.836649945389487"><ele>411.0</ele><time>2026-04-29T15:50:14Z</time></trkpt><trkpt lat="45.768124326785895" lon="8.836514685572523"><ele>411.0</ele><time>2026-04-29T15:50:15Z</time></trkpt><trkpt lat="45.76816103706566" lon="8.836383032770303"><ele>410.6666666666667</ele><time>2026-04-29T15:50:16Z</time></trkpt><trkpt lat="45.76819887114885" lon="8.836251030531871"><ele>410.33333333333337</ele><time>2026-04-29T15:50:17Z</time></trkpt><trkpt lat="45.76823163619181" lon="8.83613479405436"><ele>410.0</ele><time>2026-04-29T15:50:18Z</time></trkpt><trkpt lat="45.76827397448886" lon="8.836034970097893"><ele>409.6666666666667</ele><time>2026-04-29T15:50:19Z</time></trkpt><trkpt lat="45.76830292080606" lon="8.835937032817968"><ele>409.33333333333337</ele><time>2026-04-29T15:50:20Z</time></trkpt><trkpt lat="45.768322580628215" lon="8.835844504808772"><ele>409.0</ele><time>2026-04-29T15:50:21Z</time></trkpt><trkpt lat="45.76835024258652" lon="8.835727402582501"><ele>408.83333333333337</ele><time>2026-04-29T15:50:23Z</time></trkpt><trkpt lat="45.76830918416896" lon="8.835657776337186"><ele>408.6666666666667</ele><time>2026-04-29T15:50:46Z</time></trkpt><trkpt lat="45.76824313151331" lon="8.83563824669573"><ele>408.5</ele><time>2026-04-29T15:50:54Z</time></trkpt><trkpt lat="45.768167349339194" lon="8.835734335620456"><ele>408.33333333333337</ele><time>2026-04-29T15:52:15Z</time></trkpt><trkpt lat="45.768180424996096" lon="8.835826573099178"><ele>408.1666666666667</ele><time>2026-04-29T15:52:29Z</time></trkpt><trkpt lat="45.768263671655276" lon="8.835952207955973"><ele>408.0</ele><time>2026-04-29T15:52:40Z</time></trkpt><trkpt lat="45.76818800207397" lon="8.83590786209981"><ele>408.1666666666667</ele><time>2026-04-29T15:53:31.087Z</time></trkpt><trkpt lat="45.76814874086755" lon="8.836047142378492"><ele>408.33333333333337</ele><time>2026-04-29T16:02:26Z</time></trkpt><trkpt lat="45.7681766873146" lon="8.83619763441238"><ele>408.5</ele><time>2026-04-29T16:02:28.001Z</time></trkpt><trkpt lat="45.768231843745966" lon="8.836294417660431"><ele>408.6666666666667</ele><time>2026-04-29T16:02:30.001Z</time></trkpt><trkpt lat="45.768269060689164" lon="8.836371494614848"><ele>408.83333333333337</ele><time>2026-04-29T16:02:31.001Z</time></trkpt><trkpt lat="45.768305648157494" lon="8.836467924856363"><ele>409.0</ele><time>2026-04-29T16:02:35.001Z</time></trkpt><trkpt lat="45.7681671966643" lon="8.836564559317548"><ele>409.0</ele><time>2026-04-29T16:02:38.001Z</time></trkpt><trkpt lat="45.76818150075965" lon="8.836455633652795"><ele>409.0</ele><time>2026-04-29T16:02:43Z</time></trkpt><trkpt lat="45.768073917304065" lon="8.836018925946258"><ele>409.0</ele><time>2026-04-29T16:04:20Z</time></trkpt></trkseg></trk></gpx>